GFSGBSN_sfc_dewp_000.txt.gz
Dewpoint
55 54 55 56 56 56 56 55 55 55 55 55 55 55 53 53 53 53 53 53 55 55 55 55 55 56 51 29 29 30 54 47 35 30 25 25 24 25 24 24 23 19 20 20 21 19 18
54 54 55 56 56 56 56 55 55 55 55 55 55 55 55 54 54 53 53 54 55 55 55 55 55 56 40 26 30 31 31 30 30 30 28 24 25 26 24 24 21 25 24 23 23 22 23
54 54 56 57 57 57 56 55 55 55 54 54 54 55 55 55 55 55 55 55 54 55 55 55 55 53 32 28 29 32 32 31 32 31 30 29 27 23 26 25 27 25 21 20 21 22 22
53 54 56 57 56 56 55 55 54 54 54 54 54 54 54 54 55 55 55 54 54 55 55 55 55 48 30 34 35 30 29 27 28 31 32 33 30 26 24 27 23 19 19 15 17 22 19
53 54 56 57 56 56 56 55 55 54 54 54 54 53 53 53 53 53 53 54 54 54 55 54 48 39 29 38 29 30 26 25 26 28 32 30 28 26 24 17 17 19 15 16 17 25 27
52 54 56 57 56 57 57 56 55 54 54 54 53 53 53 53 53 53 53 54 54 53 51 46 41 28 27 26 29 27 26 27 26 30 27 25 24 19 21 17 8 16 14 21 18 22 26
51 52 56 57 57 57 56 55 55 54 54 53 53 53 52 52 52 53 52 49 35 31 36 25 26 27 25 25 28 26 27 28 27 23 20 26 21 17 20 22 21 20 19 22 22 24 27
52 52 54 56 56 56 56 55 55 54 54 53 53 53 53 52 52 53 49 46 43 44 27 31 27 27 28 27 25 26 26 25 25 21 21 23 19 21 23 23 20 21 22 19 23 26 28
51 50 54 55 55 55 55 55 54 54 53 53 53 53 53 52 51 50 50 50 55 48 27 28 29 27 27 26 25 26 25 27 23 20 23 21 21 24 22 22 23 21 20 21 23 26 28
50 49 53 55 55 55 54 54 54 54 53 53 52 52 52 51 48 48 45 50 53 42 28 25 26 27 26 26 24 28 33 27 26 21 23 23 21 22 25 22 23 22 22 25 25 27 22
50 49 52 53 54 54 53 53 53 53 53 53 52 52 53 50 48 44 49 54 54 41 17 26 25 29 27 23 25 32 35 28 29 28 25 21 20 24 26 24 26 25 30 29 28 27 27
50 50 52 53 54 53 53 53 53 53 53 52 52 52 52 50 47 48 54 51 48 33 21 27 28 26 25 28 30 32 34 34 33 30 31 30 27 25 25 27 30 30 30 27 29 27 23
51 51 52 53 53 53 53 53 52 52 52 52 52 53 53 53 40 52 52 45 33 25 31 25 26 26 25 26 31 32 32 31 30 19 28 31 30 32 30 29 31 31 26 20 20 21 21
53 53 52 52 53 53 53 52 52 52 52 52 51 53 54 54 53 53 46 38 24 29 28 29 26 28 26 27 30 32 31 30 32 30 30 29 22 31 32 29 28 29 28 23 15 19 23
53 53 53 52 53 53 52 52 52 52 52 51 52 52 47 50 54 49 40 29 26 28 28 28 28 27 28 32 29 30 31 31 32 33 28 30 28 33 34 34 31 30 28 30 26 21 21
52 53 53 52 53 52 52 52 52 52 52 52 53 42 46 52 52 42 37 30 27 31 31 31 27 30 27 32 30 29 30 32 32 35 34 33 30 32 33 33 32 30 31 26 28 18 20
52 52 52 52 53 52 52 52 52 52 52 52 50 35 43 53 45 37 30 26 28 35 35 33 32 32 33 32 31 31 32 33 33 34 34 32 31 26 30 30 30 31 30 30 30 28 21
51 52 52 52 53 52 52 52 52 51 51 51 41 33 45 47 36 35 29 30 35 35 36 35 35 34 33 33 33 32 32 33 35 36 32 34 30 26 26 31 35 33 31 29 24 22 26
51 51 51 52 52 52 51 52 52 51 51 47 42 41 45 43 32 29 34 34 35 34 35 34 34 35 35 33 30 33 34 38 38 35 34 33 28 23 19 26 30 31 33 32 29 28 27
51 51 51 52 52 52 52 50 50 51 51 46 39 37 41 43 38 33 32 32 33 36 34 37 35 35 34 33 35 33 35 37 39 38 41 37 31 25 22 22 27 29 32 32 31 29 27
51 51 51 51 52 52 50 50 51 51 51 46 40 37 39 33 36 36 36 34 34 32 34 36 35 34 33 30 32 33 35 36 36 39 38 35 30 30 30 31 32 32 33 33 32 31 30
51 51 51 50 51 51 49 49 51 50 50 44 41 40 41 39 38 32 34 32 35 34 33 34 34 36 35 32 33 32 36 35 34 36 35 35 28 30 29 33 33 31 33 33 33 33 33
51 51 50 50 51 51 50 49 49 50 50 45 45 42 41 35 31 32 32 33 33 35 36 35 36 33 30 36 38 39 38 37 37 35 32 32 28 28 23 30 29 22 25 30 31 31 30
51 51 51 51 52 52 49 49 50 50 50 47 46 40 36 31 29 33 35 35 34 34 34 36 35 32 34 40 37 35 32 29 33 35 37 31 28 27 24 30 22 26 30 29 29 29 29
50 51 51 52 52 52 49 50 50 50 51 50 47 41 37 32 34 35 35 35 35 35 36 36 41 40 39 35 31 26 26 23 26 37 35 34 32 28 29 28 27 30 29 28 28 26 29
50 50 51 51 51 51 51 50 50 50 51 51 49 44 39 35 35 36 36 36 32 30 32 37 42 42 38 30 27 20 19 25 26 28 35 34 28 26 28 25 23 26 27 30 35 27 35
50 50 50 51 50 50 51 51 50 50 50 51 50 46 42 35 38 39 35 35 36 34 34 33 37 35 37 29 28 22 25 30 26 21 19 26 29 31 30 27 26 30 31 33 27 28 34
50 50 50 50 50 50 50 51 50 50 50 51 50 50 46 38 40 43 41 39 39 36 33 36 35 34 35 32 29 29 19 27 27 28 25 23 21 20 25 25 21 31 33 30 33 37 36
49 50 50 50 49 49 50 50 50 50 50 50 48 50 48 43 39 46 47 45 42 40 39 36 36 35 35 33 32 29 26 29 28 29 30 27 29 28 31 28 31 32 36 35 37 38 37

GFSGBSN_sfc_dewp_003.txt.gz
Dewpoint
55 54 55 56 57 57 56 55 56 56 55 55 55 55 54 53 53 53 52 52 53 54 54 55 55 55 50 33 31 31 53 45 37 33 25 26 27 27 25 23 24 21 20 20 21 18 18
55 55 56 57 57 57 55 55 55 55 55 55 55 55 55 53 53 53 53 53 53 55 54 55 55 55 43 30 30 32 32 31 31 31 29 28 26 26 27 24 24 25 23 22 22 23 23
54 55 57 57 57 56 55 54 55 55 55 55 54 55 55 55 54 53 53 53 55 54 54 55 55 53 36 34 32 32 30 32 30 32 30 28 27 26 26 25 28 24 19 19 21 22 20
54 54 56 57 57 56 54 54 55 55 55 54 54 54 54 55 55 55 55 54 54 54 55 55 54 51 36 37 37 29 27 28 28 31 32 32 31 29 26 26 22 19 20 17 19 25 23
53 54 56 57 57 56 55 55 55 55 54 54 54 53 53 53 53 54 54 54 54 55 54 54 50 43 34 37 29 29 27 27 28 31 32 27 30 28 25 21 19 20 11 16 18 26 27
52 54 56 57 57 56 55 54 55 54 54 53 53 53 53 53 53 53 53 53 54 53 51 51 40 34 28 26 28 28 28 30 30 33 29 29 25 23 23 16 10 17 14 18 19 22 28
51 52 55 56 56 56 55 54 54 54 54 53 53 53 52 52 53 53 52 48 34 36 36 29 31 28 25 26 28 28 28 30 28 27 25 27 22 20 21 22 20 19 19 21 22 25 28
52 52 54 56 56 55 55 55 54 54 54 53 53 53 53 53 52 53 51 47 41 44 30 33 30 29 29 28 28 30 30 27 28 23 23 24 22 21 23 22 19 21 21 18 23 25 28
51 50 53 55 55 55 54 54 54 54 53 53 53 53 53 52 53 52 52 52 54 48 32 30 31 29 29 30 30 31 30 31 24 25 23 24 19 24 23 24 25 23 20 21 23 25 27
50 50 53 54 55 54 54 53 53 54 53 53 52 52 52 52 48 50 48 51 54 48 30 27 27 28 28 29 28 33 35 31 31 23 25 21 22 26 27 25 25 24 23 27 26 27 23
50 50 52 53 54 53 53 53 53 53 53 52 52 52 52 49 49 47 49 54 56 44 21 26 28 30 30 28 30 31 35 34 30 29 27 21 25 26 28 25 27 28 30 29 28 28 26
50 51 52 53 53 53 53 53 53 53 53 52 52 52 51 49 50 52 55 53 49 34 21 29 29 27 29 32 33 33 34 35 32 31 33 30 30 27 26 28 30 31 29 27 29 28 25
52 52 52 53 53 53 53 52 52 52 52 52 52 53 53 51 43 54 52 46 34 27 32 26 26 28 28 30 32 32 32 33 30 25 31 30 30 32 31 29 32 32 26 24 28 28 25
53 53 53 53 53 53 53 52 52 52 52 52 51 52 52 53 54 53 48 39 27 30 29 29 28 31 29 31 31 33 32 31 34 31 32 29 24 31 34 30 28 31 29 28 19 23 25
52 53 53 53 53 53 52 52 52 52 52 51 52 48 49 52 54 49 42 33 29 28 28 28 29 28 30 32 31 31 32 31 32 35 30 31 27 33 34 34 31 30 31 31 28 25 29
52 52 52 52 53 52 52 52 52 52 52 52 49 45 47 51 51 44 39 31 30 31 32 30 28 32 30 32 31 31 31 33 31 35 35 33 29 31 32 33 33 31 32 28 31 25 21
52 52 52 52 52 52 52 52 52 52 52 51 46 42 46 52 46 38 33 30 32 36 36 33 33 33 32 33 32 32 31 33 34 34 35 32 31 28 30 31 30 32 31 31 31 30 28
51 51 51 52 52 52 52 52 52 51 51 47 41 40 48 49 36 36 32 31 36 35 37 36 36 35 34 35 34 33 33 33 36 36 34 35 32 27 26 31 34 32 30 29 27 23 30
51 51 51 52 52 52 52 50 51 51 51 47 42 42 46 45 35 34 36 35 35 35 35 35 35 37 36 34 32 35 35 40 39 37 35 34 31 24 18 26 29 31 32 31 30 31 28
51 51 51 51 52 52 51 50 51 51 51 45 39 40 42 42 39 35 34 35 34 36 35 37 35 37 35 34 37 35 35 39 40 39 41 38 32 27 21 20 28 29 31 32 33 32 28
51 51 51 51 51 51 50 50 50 50 51 45 42 39 40 36 38 37 37 35 34 33 35 36 35 34 34 32 34 35 36 36 37 40 39 37 33 32 31 31 32 31 31 32 31 32 31
51 51 50 50 51 50 50 50 50 50 50 44 41 41 41 38 37 35 34 36 35 35 34 35 35 37 36 33 32 33 36 35 35 36 37 36 32 34 31 32 31 31 31 32 32 33 33
51 51 51 50 51 50 49 50 50 50 49 45 45 43 41 35 33 34 34 34 35 36 37 36 37 35 32 36 38 39 39 39 37 36 35 36 34 32 27 30 30 27 26 31 31 32 30
51 51 51 51 51 51 49 50 50 50 50 47 46 40 39 34 32 34 36 35 35 36 36 37 37 35 37 41 39 36 32 32 34 37 37 33 32 32 31 31 24 27 30 30 30 30 30
50 50 51 51 51 51 51 50 50 50 51 49 46 41 38 34 34 34 35 36 36 37 37 37 41 40 41 38 35 31 30 27 30 36 36 35 34 31 29 28 29 29 29 29 29 26 30
50 50 50 51 51 50 50 50 50 49 50 51 48 44 40 36 37 36 36 36 34 34 35 40 43 42 39 35 33 28 27 26 27 29 34 34 32 34 31 28 25 30 27 31 33 28 34
50 50 50 50 50 50 50 50 50 49 50 51 50 47 41 37 39 38 37 37 37 36 35 35 40 38 39 34 32 32 32 30 28 25 25 30 31 30 30 29 30 31 31 32 30 33 36
50 50 50 50 50 49 50 50 50 49 49 51 50 49 45 38 41 43 41 38 39 38 37 38 39 38 37 34 33 33 31 32 30 29 27 27 28 27 28 27 25 30 32 35 37 39 38
49 49 50 50 49 49 49 49 50 49 50 50 49 49 48 44 42 48 49 46 43 40 40 38 38 37 39 35 34 33 32 29 31 31 31 30 32 31 31 31 33 32 36 39 39 39 39

GFSGBSN_sfc_dewp_006.txt.gz
Dewpoint
55 55 55 56 57 57 56 56 55 55 56 55 55 55 54 54 54 53 53 53 53 53 53 54 55 55 52 32 28 30 53 47 35 29 26 25 21 22 16 17 17 16 19 20 19 17 18
55 55 56 57 57 56 55 54 54 55 55 55 55 55 55 54 53 53 53 52 52 53 55 54 55 55 41 26 29 31 30 27 29 28 27 26 25 25 23 22 19 24 22 22 22 22 23
55 55 56 57 57 55 55 54 55 55 55 55 55 55 55 54 53 53 53 53 52 54 54 54 55 52 31 29 31 28 26 28 28 29 28 29 27 24 26 26 27 24 21 22 23 22 23
54 54 56 57 57 55 54 54 55 55 55 54 54 55 55 55 55 55 54 54 55 54 55 55 54 51 29 33 31 26 24 25 29 31 32 31 28 27 26 28 20 17 19 15 22 23 25
53 54 56 57 56 55 55 54 55 55 54 54 54 54 54 54 54 54 54 54 54 55 55 54 51 40 25 36 27 28 27 24 28 30 30 26 27 26 23 21 16 16 8 11 18 24 25
52 53 56 57 56 55 55 54 55 54 54 54 54 53 53 53 53 53 53 54 54 53 50 48 37 29 25 24 27 27 26 28 27 27 26 26 25 20 18 12 8 12 11 14 15 19 23
51 51 55 56 56 56 55 54 54 54 54 54 53 53 52 52 53 53 53 50 37 36 32 28 27 25 24 26 28 28 28 27 25 25 21 25 19 20 22 23 20 18 16 16 16 24 28
52 51 54 56 55 55 55 55 54 54 54 53 53 53 53 53 53 53 53 42 44 41 28 30 27 28 28 28 26 29 30 23 24 20 24 19 21 21 24 23 20 19 17 17 22 25 29
51 50 53 55 55 55 54 54 54 54 54 53 53 53 53 53 53 55 53 51 55 48 27 28 29 26 26 30 31 31 30 26 21 21 21 20 20 22 23 26 25 22 20 24 24 25 28
51 50 53 54 54 54 53 54 54 54 53 53 53 53 53 52 49 51 47 51 56 48 27 24 24 27 27 27 28 32 33 29 26 23 22 22 26 26 25 26 28 22 26 29 27 26 20
51 51 53 53 54 53 53 53 53 53 53 53 52 53 52 52 52 43 50 56 57 50 24 25 25 29 32 28 29 30 34 31 28 27 27 23 26 27 27 27 30 28 32 30 29 26 26
51 52 53 53 53 53 53 53 53 53 53 53 52 53 52 50 56 53 56 55 54 38 22 25 26 28 29 31 30 30 32 32 31 29 28 28 29 30 29 29 29 32 30 30 31 30 27
52 53 53 53 53 53 53 53 52 52 52 52 53 53 53 52 48 58 57 49 33 30 29 23 24 29 30 30 31 31 32 33 29 24 28 27 29 31 33 28 32 29 26 27 29 29 26
53 53 53 53 53 53 53 52 52 52 52 52 52 52 53 54 57 58 53 43 28 29 26 27 28 29 28 30 31 31 29 29 32 30 27 25 26 31 33 32 29 30 30 30 20 25 24
52 53 53 53 53 53 52 52 52 52 52 52 52 53 54 56 58 56 42 40 32 27 26 26 27 26 29 30 29 30 32 30 32 33 29 28 26 32 32 32 32 29 30 31 30 30 31
52 52 52 52 53 52 52 52 52 52 52 52 48 49 50 56 56 52 46 33 29 30 30 27 25 29 28 29 29 30 31 33 32 34 35 32 28 30 31 33 33 31 32 29 30 28 16
52 52 52 52 52 52 52 52 52 51 51 52 51 39 52 56 53 45 40 34 32 35 35 31 31 31 32 31 31 31 31 33 34 33 34 31 30 27 31 31 30 32 31 30 28 30 24
51 51 51 52 52 52 52 51 51 51 51 51 50 40 52 55 41 39 35 33 37 34 36 36 36 34 33 34 33 33 32 33 37 36 31 35 33 26 24 32 34 32 30 29 28 20 29
51 51 51 51 52 52 50 50 51 51 51 49 45 44 50 51 44 45 37 35 35 34 34 34 35 36 36 35 34 34 35 38 38 36 34 35 32 22 23 30 32 31 31 31 31 32 29
51 51 51 51 52 50 50 50 50 51 51 49 44 48 45 44 41 37 36 35 34 36 36 36 35 36 36 35 36 36 36 37 39 38 41 40 32 27 17 19 25 24 24 28 29 32 28
51 51 51 50 50 49 50 50 50 51 51 50 46 45 44 45 42 39 37 35 33 33 35 36 34 34 35 36 34 35 35 36 36 39 40 38 29 31 28 28 27 28 27 26 26 29 29
51 51 50 50 50 49 49 50 50 50 50 48 46 44 42 40 40 38 39 35 33 33 33 33 33 34 32 31 28 30 29 31 29 37 36 37 32 34 30 29 28 29 28 27 28 29 29
51 51 50 50 51 49 49 50 50 50 51 48 48 45 45 38 38 41 39 36 34 37 37 36 36 35 36 33 35 39 39 39 37 35 35 37 37 34 33 31 31 32 30 27 27 30 29
51 51 50 52 51 50 50 50 50 50 51 51 48 46 49 43 42 37 36 36 36 36 37 38 37 41 38 42 41 40 37 37 39 39 39 38 38 36 35 34 29 28 29 28 29 29 28
50 51 51 52 51 51 50 50 50 50 51 51 48 46 46 38 41 37 38 38 38 39 38 38 41 41 43 41 41 40 35 37 36 36 37 38 39 35 32 28 28 27 28 29 28 28 31
50 50 51 51 51 51 50 50 50 50 51 53 51 48 46 40 44 37 38 39 40 41 41 43 43 44 43 45 41 35 33 28 27 30 36 36 38 39 33 30 28 29 29 31 32 28 36
50 50 50 51 51 50 50 50 50 49 50 54 53 52 46 50 41 40 40 40 40 41 41 43 43 44 44 42 37 38 35 32 29 33 33 35 34 33 33 32 31 31 32 33 32 35 40
49 49 49 50 50 50 50 50 50 49 50 53 54 53 50 47 43 43 42 41 40 41 44 44 43 44 44 38 37 39 36 37 33 30 31 31 36 33 33 30 29 32 32 35 38 40 40
49 49 49 49 50 49 49 50 50 49 49 51 52 52 52 50 46 51 50 46 46 41 42 45 42 42 45 43 39 38 34 34 39 34 33 31 34 31 32 34 35 35 37 38 40 40 41

GFSGBSN_sfc_dewp_009.txt.gz
Dewpoint
55 55 55 56 57 57 57 57 56 55 54 56 56 55 55 55 54 54 54 53 53 53 53 54 55 55 53 38 25 29 52 52 39 29 23 20 18 14 10 9 9 10 10 9 8 8 9
55 55 55 56 57 57 56 55 55 54 56 56 55 55 55 54 54 54 53 53 52 52 53 54 54 55 48 28 27 27 27 25 26 24 19 18 17 16 13 11 13 16 16 18 18 19 19
55 55 55 57 57 57 56 55 54 55 55 55 55 55 55 54 54 54 54 53 53 53 54 54 55 51 44 28 27 25 25 25 25 28 22 25 21 18 20 21 21 19 18 19 20 21 20
55 54 54 57 57 56 55 54 54 55 55 55 55 55 55 55 54 53 53 53 54 54 55 55 55 49 31 28 27 23 22 22 26 29 28 26 25 25 23 25 19 17 19 16 19 21 22
54 53 54 57 57 55 54 54 54 54 54 54 54 55 55 55 55 55 55 55 55 55 55 55 53 49 25 36 25 24 24 21 26 30 27 24 26 23 24 19 16 17 12 10 18 20 21
54 52 54 56 57 56 54 54 54 54 54 53 52 53 54 54 54 54 54 54 55 54 52 46 41 32 23 22 24 23 25 28 27 29 26 26 24 21 14 12 12 12 7 9 10 19 16
53 51 53 55 56 56 55 55 54 54 54 53 52 52 53 54 54 54 52 49 40 40 34 28 25 24 21 23 27 24 26 26 26 25 23 22 19 20 21 20 16 13 12 12 14 20 22
53 51 52 55 55 55 55 55 54 54 54 53 53 53 53 53 54 54 55 41 45 39 27 27 27 28 28 27 22 24 27 25 25 19 20 17 20 20 23 22 20 18 16 16 18 21 24
53 51 52 54 55 54 54 54 54 54 54 53 53 53 54 53 54 55 49 48 49 47 27 27 27 25 26 27 27 28 27 21 17 14 14 21 22 23 23 23 23 21 21 24 22 22 22
53 50 53 54 54 54 54 54 54 54 53 53 53 53 54 53 50 50 46 49 54 52 27 21 22 26 26 28 28 30 32 27 21 17 19 22 25 24 24 25 26 22 25 26 24 22 19
52 51 53 54 54 54 53 53 53 53 53 53 53 53 53 54 49 41 48 54 56 54 26 23 25 31 27 28 28 29 32 27 22 22 27 24 25 26 26 26 27 28 30 27 27 24 23
51 52 53 53 54 53 53 53 53 53 53 53 53 54 53 51 55 51 53 54 55 39 24 24 25 27 28 29 28 29 30 31 31 26 26 27 28 29 29 28 28 30 29 28 30 26 25
51 52 53 53 54 53 53 53 52 52 52 52 54 54 52 51 46 57 58 50 28 31 26 23 24 27 28 28 29 28 29 31 27 26 26 26 28 29 31 28 31 27 27 28 29 28 27
52 52 53 54 54 53 53 53 52 52 52 53 53 53 55 55 55 59 53 37 32 26 22 24 25 26 27 27 29 28 27 27 30 28 24 23 28 28 30 30 29 27 29 32 21 24 23
52 52 53 53 54 53 53 52 52 52 52 53 53 57 54 59 60 58 39 38 31 24 24 24 25 25 27 28 27 29 30 28 29 32 28 27 26 30 31 31 30 29 28 29 30 32 30
52 52 52 53 53 52 52 52 52 52 52 53 45 45 47 59 60 54 43 36 29 28 25 25 24 28 26 26 27 28 29 31 30 31 30 28 28 27 29 31 32 31 30 30 30 27 16
52 52 52 53 53 52 52 51 52 52 52 54 48 38 54 58 57 41 40 34 30 32 31 29 27 28 28 29 28 29 29 31 32 31 31 27 27 27 27 28 27 30 30 29 24 27 24
52 52 52 52 52 52 51 51 51 51 51 52 49 37 54 56 38 42 37 32 36 32 35 34 33 31 31 32 31 31 30 33 35 34 30 32 30 27 20 30 32 30 28 27 29 21 27
51 51 52 52 52 51 50 50 51 51 51 50 41 43 53 54 44 47 37 35 34 33 32 33 34 34 35 34 33 33 34 38 37 34 35 33 32 25 22 30 31 28 28 27 28 31 27
51 51 51 52 52 50 50 50 51 51 51 53 42 46 44 45 42 37 36 34 34 35 35 35 35 36 35 33 34 35 35 37 39 37 41 39 30 25 23 21 21 22 21 21 25 30 29
51 51 51 50 50 50 50 51 51 51 51 53 45 44 43 43 42 38 37 35 33 32 34 35 34 33 34 34 33 33 33 35 35 39 37 34 29 29 27 23 22 22 23 22 21 23 27
51 51 50 51 50 50 50 51 50 51 51 50 41 43 43 43 40 38 38 35 31 32 33 32 32 33 31 33 26 28 27 27 28 35 34 34 33 35 30 25 23 25 23 22 22 25 25
51 51 50 51 50 50 50 51 50 50 52 48 48 49 45 41 41 41 38 34 32 37 37 32 33 31 34 32 36 37 38 36 34 34 34 36 37 33 32 32 32 34 30 23 23 25 28
51 51 50 52 52 51 51 51 50 50 51 52 50 47 50 45 43 37 35 34 35 34 36 35 34 38 40 40 40 39 38 37 37 38 38 40 36 38 35 35 30 29 27 27 26 27 26
51 51 52 52 52 51 51 50 50 50 51 52 49 48 48 43 40 37 37 36 38 38 38 38 41 41 43 40 41 38 36 37 36 34 35 37 40 37 34 29 28 27 28 28 29 28 29
50 51 52 52 51 51 51 50 50 50 51 52 51 52 49 43 46 37 38 39 41 41 42 43 44 45 45 46 41 37 32 27 29 32 35 37 41 39 36 31 29 31 30 31 32 30 37
50 50 51 51 51 51 51 50 50 50 50 54 53 56 48 52 42 41 42 42 40 41 40 43 44 45 45 45 39 40 34 31 28 33 33 36 37 36 33 33 32 30 31 34 30 35 40
50 50 50 50 50 50 50 50 50 50 50 54 54 55 52 48 44 43 42 43 42 41 46 44 43 45 47 39 40 41 38 37 34 28 32 33 36 33 35 32 29 32 32 35 37 39 41
49 49 49 50 50 50 50 50 50 50 50 51 51 52 53 50 48 50 49 48 48 43 42 46 41 43 44 44 43 43 36 38 39 33 30 31 34 34 34 33 33 36 37 40 39 41 41

GFSGBSN_sfc_dewp_012.txt.gz
Dewpoint
54 55 56 56 56 57 57 56 55 55 54 54 54 56 56 55 55 54 53 53 53 53 53 54 54 55 54 45 28 29 51 55 40 38 28 21 19 17 12 10 9 10 8 6 5 4 8
55 55 55 55 57 57 57 55 55 54 54 55 56 56 56 55 55 54 54 53 53 52 53 54 55 55 51 36 25 24 24 25 24 24 18 18 16 15 10 7 11 11 9 8 9 13 13
55 55 55 56 57 56 55 55 55 54 54 56 56 56 56 55 54 54 54 53 53 53 54 54 54 53 47 32 24 23 22 23 24 26 23 23 21 15 16 16 16 14 14 15 17 18 17
55 55 54 56 57 56 55 55 54 54 55 55 55 56 55 56 54 53 53 53 53 54 55 55 55 52 40 28 26 22 21 19 22 26 25 23 23 24 24 20 13 13 17 15 17 18 21
54 54 53 55 57 57 55 54 54 55 55 55 55 55 55 55 55 54 54 54 55 55 55 55 54 51 34 36 23 23 21 21 22 26 25 22 26 19 18 15 15 17 12 16 19 17 20
54 53 52 55 57 56 55 55 55 54 54 54 54 55 55 55 55 55 55 55 55 54 53 50 47 41 27 21 22 19 22 26 24 26 24 24 23 19 18 16 14 14 10 8 9 17 14
53 52 51 54 56 56 55 55 55 54 54 53 53 54 54 54 54 54 52 50 43 42 40 30 22 25 18 17 21 20 23 24 26 25 24 22 19 21 21 20 15 13 11 10 16 19 18
53 52 50 53 55 55 55 55 55 54 54 53 53 53 53 54 54 54 53 47 43 38 28 26 25 24 24 25 20 19 24 25 24 21 20 15 20 20 19 18 17 15 14 14 17 19 17
53 51 50 53 55 55 54 54 55 54 53 53 53 52 54 53 54 54 52 46 46 49 28 25 26 24 26 25 24 23 28 21 20 19 12 24 21 21 21 21 20 20 18 25 22 22 20
53 51 51 53 54 54 54 54 54 54 53 53 53 53 54 53 51 50 45 46 51 55 26 19 22 24 25 26 26 26 27 26 18 14 18 23 23 22 21 23 24 21 26 24 22 21 17
53 51 52 53 54 54 53 53 53 53 53 53 53 53 53 53 55 42 47 50 53 55 28 22 22 28 24 27 27 26 28 27 20 21 23 24 24 25 25 26 25 26 28 25 24 23 21
52 50 52 53 54 53 53 53 53 53 53 53 54 54 53 52 58 50 52 55 55 42 28 21 23 25 24 25 26 27 26 29 30 24 26 26 26 28 28 27 26 29 28 27 27 27 30
52 50 52 53 54 53 53 53 52 53 52 54 54 54 52 54 51 56 60 52 32 32 23 21 23 25 25 26 26 27 28 29 27 25 26 26 26 29 28 29 30 26 27 32 34 33 31
52 53 52 53 54 53 53 53 52 52 52 54 54 53 56 55 56 61 56 40 32 24 20 21 24 26 25 26 27 27 26 26 28 31 23 24 27 27 28 29 26 27 27 36 25 29 28
52 53 52 53 53 53 53 52 52 52 52 54 53 60 58 60 62 60 46 38 32 21 23 22 23 24 25 26 27 28 29 26 27 30 27 26 26 28 28 29 27 29 28 25 31 34 32
53 53 51 52 53 53 52 52 52 52 52 54 50 48 47 59 61 57 46 38 31 27 22 23 21 25 24 24 25 27 27 30 28 30 28 25 28 24 25 29 31 28 26 29 35 29 21
52 52 51 52 53 52 51 51 52 52 52 54 56 39 56 58 59 43 41 38 29 27 30 24 24 24 26 25 26 27 28 30 31 29 29 28 28 26 26 27 25 28 27 28 24 30 27
52 52 51 52 53 51 50 51 51 51 52 52 55 38 56 59 38 38 39 32 35 31 34 33 32 28 28 29 29 29 30 34 33 31 29 29 29 35 21 27 27 27 26 26 35 26 35
52 51 51 52 52 50 50 51 51 51 51 53 43 45 55 55 43 50 37 33 31 30 29 31 32 32 33 32 32 32 36 37 37 36 36 33 33 33 24 30 29 23 25 25 29 36 29
51 51 51 51 50 50 50 51 51 51 52 52 46 45 42 44 45 40 37 34 34 35 34 33 33 34 33 33 33 33 36 37 38 36 42 40 28 26 28 22 21 21 20 20 23 33 31
51 51 51 50 50 50 50 51 51 51 51 51 47 43 39 41 41 38 36 33 33 33 34 34 32 31 33 34 32 32 35 35 34 38 35 34 31 30 27 23 23 22 21 21 21 23 26
51 51 50 50 50 50 50 51 50 51 51 50 46 43 43 41 41 37 38 33 31 30 33 31 31 32 33 36 30 30 29 28 30 34 32 35 38 37 33 24 25 25 24 23 22 21 21
51 51 50 50 49 50 51 51 50 51 52 49 49 49 44 42 40 42 40 35 32 35 37 32 32 34 38 35 38 37 37 36 33 34 35 37 41 37 34 32 33 35 33 23 24 24 25
51 51 50 52 51 52 51 51 50 50 52 57 53 48 52 46 43 37 36 34 33 36 35 33 33 40 39 39 40 39 39 38 37 37 38 40 39 39 35 35 30 28 27 27 26 25 25
51 50 52 52 52 52 51 50 50 50 51 54 52 52 49 41 43 37 36 34 37 37 36 40 40 40 41 39 43 36 38 37 36 34 34 37 41 35 34 29 28 28 28 29 30 29 29
51 51 52 52 51 51 51 51 50 50 51 54 55 57 53 46 47 37 36 39 41 42 42 43 44 45 42 49 43 37 35 31 32 32 35 37 43 41 35 30 26 33 30 32 32 30 38
51 51 52 52 51 51 51 51 50 50 50 55 55 59 55 53 43 44 41 43 41 43 42 43 44 46 44 44 37 40 37 30 31 33 34 35 37 35 34 31 33 30 31 33 29 35 40
50 50 51 51 51 51 51 51 50 50 50 53 56 56 55 51 46 46 44 44 41 44 47 44 44 47 50 39 39 42 39 40 37 31 34 33 35 33 34 33 29 32 31 34 39 42 41
49 50 50 50 50 51 51 50 51 50 50 51 53 53 56 53 50 52 50 50 48 47 46 48 42 44 47 44 44 45 36 38 39 36 27 33 38 37 35 35 38 38 37 40 43 42 43

GFSGBSN_sfc_dewp_015.txt.gz
Dewpoint
54 55 56 57 57 57 56 56 56 55 54 54 54 54 55 56 56 56 53 53 53 53 53 54 54 54 54 50 40 29 61 58 50 41 38 36 29 21 18 15 12 10 8 6 5 7 13
55 56 56 56 56 57 55 55 55 54 54 53 54 55 56 56 56 55 54 53 53 53 52 53 54 54 52 39 33 27 27 43 35 38 36 32 24 20 19 16 13 14 8 5 4 14 14
55 56 56 56 56 57 55 54 54 54 54 54 56 56 56 56 56 54 54 53 53 52 53 54 54 53 50 46 29 24 25 23 24 26 26 26 24 22 21 18 18 16 13 12 14 16 16
55 55 55 55 56 57 56 54 54 54 54 56 56 56 55 55 55 53 53 53 53 54 54 55 54 53 45 38 26 21 22 21 24 27 28 26 29 25 26 20 14 14 18 15 17 19 18
55 55 55 54 55 56 56 54 54 55 55 55 55 55 55 54 55 54 53 54 54 54 55 56 53 53 40 36 27 25 23 23 27 28 28 21 26 27 19 18 16 19 13 18 17 19 22
55 55 54 54 55 57 56 55 56 55 55 55 54 54 55 54 54 54 54 55 55 55 54 52 50 44 43 27 27 22 23 27 30 33 31 29 25 22 21 19 16 16 15 18 18 17 14
55 54 53 53 55 56 55 56 55 55 55 55 54 54 54 54 54 54 52 50 47 45 49 37 34 38 19 17 20 21 26 27 29 29 27 26 24 22 22 23 19 17 15 18 19 19 21
55 54 53 53 55 55 55 55 55 54 54 54 54 53 54 54 54 54 52 52 43 42 37 40 29 27 29 27 23 23 27 30 32 26 26 23 23 23 23 24 24 19 20 23 21 20 17
54 54 52 53 54 55 54 55 54 54 54 54 53 54 53 53 54 52 52 51 51 52 32 32 30 27 31 30 28 24 28 28 24 23 27 24 24 23 23 26 25 24 26 25 23 22 21
54 53 51 53 54 55 54 54 54 54 54 53 53 53 53 53 50 55 52 49 54 56 27 24 27 28 29 30 29 27 27 29 25 24 26 24 27 25 24 26 25 27 30 28 24 23 19
54 52 51 53 54 54 53 53 53 54 54 54 53 53 53 54 52 51 49 52 54 52 24 26 27 30 27 31 28 30 31 32 27 21 27 27 28 29 28 27 27 30 32 29 28 25 24
54 52 52 53 54 54 53 53 53 53 53 53 52 54 53 51 52 54 57 58 52 41 24 28 26 29 26 29 30 27 30 33 34 27 27 26 29 28 28 28 28 28 31 31 30 28 25
53 52 52 53 54 53 53 53 52 52 53 53 53 54 52 54 54 58 59 51 36 31 29 23 26 28 27 29 28 29 30 30 30 27 28 27 28 29 30 30 32 29 31 28 27 27 26
52 52 52 53 53 53 53 52 52 52 52 53 53 53 56 59 61 60 56 43 32 27 26 25 27 28 27 28 29 31 29 28 29 32 29 28 27 28 30 29 28 30 30 27 24 25 26
52 52 52 53 53 53 52 52 52 52 52 53 53 57 57 59 61 58 49 37 35 29 24 25 27 28 27 30 31 30 29 27 28 29 29 31 27 29 28 29 29 31 26 27 30 29 26
52 52 52 52 53 52 51 50 52 52 52 53 53 54 52 58 59 55 46 40 37 29 27 26 26 28 26 25 28 30 31 33 32 31 31 28 27 26 27 30 31 28 28 28 29 22 20
52 52 52 52 52 52 50 50 51 52 52 53 54 42 54 59 57 46 40 41 32 29 36 34 32 28 30 27 28 30 31 32 32 31 30 32 32 28 29 27 27 29 30 30 28 28 23
52 51 51 52 52 50 50 51 51 51 52 52 52 40 57 58 39 43 39 39 35 33 37 37 36 31 33 32 33 33 35 35 36 37 31 32 32 26 28 29 29 28 30 30 26 25 28
51 51 51 52 51 50 50 51 51 51 51 54 47 48 55 56 36 38 40 37 36 32 34 35 35 36 35 36 32 37 38 40 40 37 36 35 29 27 28 31 30 25 27 29 35 29 24
51 51 51 50 49 49 50 51 51 51 51 52 51 40 47 48 47 43 39 36 37 37 37 36 35 37 36 35 36 37 38 41 40 36 41 40 30 27 25 24 24 24 24 23 31 27 27
51 51 51 50 49 49 50 51 51 51 50 51 50 44 41 36 39 41 40 37 36 36 38 37 36 36 35 32 35 37 38 37 39 39 38 35 31 32 30 27 26 25 25 25 23 25 24
51 51 50 49 48 49 51 50 50 51 50 51 50 47 42 40 36 40 40 35 36 35 36 35 34 35 36 35 37 34 35 35 35 35 36 38 32 30 29 31 30 28 29 27 25 26 25
51 51 50 49 48 50 51 50 50 50 52 52 52 50 49 45 39 40 39 38 37 38 39 39 37 38 36 38 39 39 39 37 38 35 37 37 31 29 28 32 32 25 30 28 27 28 28
51 51 50 51 50 52 51 50 50 50 52 57 55 54 46 37 43 40 39 39 39 37 36 41 41 37 41 40 39 38 36 36 38 37 41 34 33 31 23 24 14 31 31 30 30 30 30
51 50 51 52 51 51 51 50 50 50 51 55 54 55 45 36 45 41 38 38 39 43 42 41 41 40 42 42 35 27 30 25 31 35 37 40 33 25 26 24 25 29 31 31 30 30 38
50 50 52 51 51 51 50 50 49 50 50 55 55 56 51 41 40 44 38 40 40 41 42 43 46 46 46 38 30 26 26 27 30 32 37 40 35 28 25 18 14 28 32 34 34 27 39
50 51 52 51 51 51 50 50 50 49 50 55 55 55 55 45 45 46 42 40 44 43 41 43 44 41 45 35 33 30 29 33 29 28 27 28 28 23 30 17 26 34 33 35 26 27 41
50 50 51 51 51 51 50 50 50 50 50 54 54 54 54 46 46 48 49 45 44 45 38 43 39 39 36 34 31 31 29 31 30 33 31 28 25 28 30 25 22 35 33 28 34 41 40
50 50 50 50 50 52 50 50 50 50 50 51 53 54 56 52 49 51 50 49 47 47 46 44 38 45 44 37 35 35 33 35 32 26 34 29 33 31 30 28 34 36 36 39 41 41 40

GFSGBSN_sfc_dewp_018.txt.gz
Dewpoint
56 55 55 56 57 57 56 55 55 55 54 53 53 53 53 54 55 56 56 53 53 53 52 52 52 53 53 49 39 37 58 60 55 43 37 33 33 26 19 17 13 8 7 5 11 13 10
55 55 56 57 57 56 55 55 54 54 53 53 53 53 54 55 56 56 55 53 53 53 52 52 52 53 51 41 38 34 42 48 38 37 36 36 31 25 21 18 10 12 6 3 6 13 15
55 56 57 56 56 56 56 55 55 53 53 53 53 54 56 56 56 56 54 53 53 52 51 52 53 53 51 43 41 35 26 28 33 36 30 28 28 25 26 18 17 12 8 10 14 15 15
55 55 56 56 55 55 56 56 54 54 53 53 55 56 55 55 55 55 53 53 52 52 53 53 54 53 43 42 38 22 24 22 25 28 29 29 31 28 21 19 15 12 16 13 17 18 19
56 56 56 56 54 55 56 56 54 55 56 55 55 55 55 54 54 54 53 53 53 54 54 55 52 52 30 43 26 23 25 25 28 29 28 22 27 25 19 16 14 17 11 16 17 19 19
55 56 56 55 54 55 56 56 55 55 55 54 55 54 54 54 54 54 53 53 55 55 54 53 51 45 41 36 26 22 23 27 30 30 27 24 26 23 21 17 11 14 15 25 16 17 21
56 56 56 54 53 55 56 56 55 54 54 54 54 54 53 54 54 54 52 50 44 43 49 28 34 39 30 19 21 21 23 26 29 26 25 28 23 19 19 20 18 18 20 18 18 19 17
56 56 55 53 54 56 55 55 54 54 54 54 53 53 53 54 54 53 51 51 41 41 28 39 41 38 31 21 25 24 28 28 29 25 28 23 22 22 23 26 26 25 21 21 21 20 16
55 55 54 52 54 55 55 54 54 53 53 53 53 53 53 53 53 51 48 48 50 52 36 31 32 28 30 30 28 26 29 31 25 24 26 23 21 25 27 26 26 28 25 24 23 23 20
55 53 53 52 53 54 54 54 54 53 53 53 52 52 52 53 48 51 46 47 49 46 25 23 27 27 28 31 28 27 27 29 29 24 25 23 27 27 28 26 27 28 30 27 25 23 13
54 53 51 51 53 53 53 53 53 53 53 53 52 52 52 53 49 52 49 55 55 47 19 24 29 30 28 29 29 27 30 31 27 23 26 27 28 28 27 28 28 29 31 28 27 25 25
53 53 51 52 52 53 53 53 52 52 52 52 52 53 52 50 50 51 57 57 46 38 19 26 28 28 26 30 29 26 29 32 32 27 26 26 30 28 28 30 29 29 32 32 30 29 24
53 53 51 52 53 53 53 52 52 52 52 52 52 53 51 54 52 57 58 43 36 26 29 22 26 29 27 29 30 29 30 29 30 25 26 28 29 29 30 30 30 28 31 26 26 25 24
53 52 52 52 53 52 52 52 52 52 52 52 52 52 53 56 59 57 49 38 31 29 26 27 27 29 27 28 30 31 30 28 29 32 28 27 26 28 29 29 27 29 29 26 23 22 23
53 52 52 52 52 52 52 50 51 52 51 52 52 52 57 57 58 55 44 35 34 30 26 26 28 27 28 29 29 29 28 27 29 30 28 28 27 30 28 28 31 30 25 28 28 27 24
52 52 52 52 52 52 49 50 50 52 51 52 51 50 46 57 56 50 43 38 37 31 32 28 26 29 26 26 28 30 31 33 32 31 32 30 25 27 27 31 30 23 27 27 27 19 20
52 52 52 52 52 50 50 50 51 51 52 52 52 38 44 58 49 43 37 39 35 34 36 32 32 27 29 26 28 31 32 33 34 33 30 33 28 26 32 27 27 27 28 29 27 27 22
51 51 51 51 51 49 50 51 51 51 52 50 49 37 52 46 30 41 37 39 35 32 35 35 36 36 30 33 35 35 35 35 38 38 28 33 30 25 28 28 28 27 29 29 25 22 26
51 51 51 51 49 49 49 51 51 51 51 50 45 46 53 44 29 33 39 36 35 34 34 34 35 37 37 34 34 38 37 40 37 36 35 32 28 25 27 30 29 25 27 33 31 27 23
51 51 51 50 49 49 50 51 51 51 51 52 48 38 44 46 43 37 39 35 35 38 36 36 35 35 35 34 38 36 37 39 37 34 40 39 32 26 25 26 25 22 25 30 29 25 25
51 50 50 49 49 49 50 50 50 51 50 49 49 40 37 32 34 39 40 36 35 35 37 36 34 35 34 32 36 36 37 37 36 37 36 34 30 30 28 28 27 26 25 25 24 26 25
50 50 49 49 49 50 51 50 50 51 50 48 47 45 41 34 35 38 40 37 35 36 35 35 34 36 36 34 34 35 35 34 32 34 35 38 29 29 28 31 33 26 30 29 27 26 25
50 49 49 49 49 51 50 50 50 50 50 48 50 50 42 41 33 36 37 36 37 38 38 38 38 37 36 38 39 39 39 38 37 34 38 35 30 25 22 30 30 23 28 28 27 28 27
50 49 49 49 50 51 50 50 49 50 52 56 54 51 43 35 39 36 40 37 38 38 38 41 39 36 40 42 36 33 33 35 38 39 37 32 32 26 19 19 9 28 30 30 29 33 35
50 50 51 51 51 50 50 49 49 50 51 53 53 51 42 34 43 40 38 41 42 43 42 42 43 41 41 38 29 25 28 28 31 39 41 36 29 26 16 22 19 28 30 29 26 28 37
49 50 51 50 50 50 50 49 49 49 51 52 52 54 44 39 38 45 40 41 39 39 40 42 45 46 43 34 27 25 22 22 29 33 36 37 30 24 27 12 7 21 32 33 32 27 38
49 51 51 50 50 50 50 50 49 49 50 53 52 54 50 43 44 45 39 39 43 41 39 41 41 40 39 28 30 25 28 31 28 27 26 27 25 22 16 15 24 28 34 34 25 24 40
50 50 50 50 50 49 49 49 49 49 50 52 51 53 49 43 44 49 48 42 44 42 37 41 37 37 35 28 26 31 25 30 29 32 30 27 26 25 25 16 19 33 33 28 31 39 40
50 49 50 50 50 49 49 50 50 50 50 53 48 53 54 48 46 50 49 49 48 44 44 42 35 40 39 34 33 35 27 33 28 27 34 26 28 28 29 28 31 35 34 35 40 40 39

GFSGBSN_sfc_dewp_021.txt.gz
Dewpoint
58 57 56 56 56 57 56 56 55 54 54 54 53 53 53 53 53 53 54 55 52 52 52 52 52 52 51 47 37 35 61 61 47 39 32 32 32 29 23 18 21 9 7 10 11 9 6
57 57 56 56 56 56 56 56 55 54 54 53 53 53 53 53 53 55 56 54 53 52 52 51 51 52 49 32 35 36 47 44 42 39 36 33 29 31 25 19 10 11 8 6 12 13 11
57 56 56 56 57 56 56 56 56 54 54 53 53 53 53 54 56 56 55 54 52 52 51 51 52 52 50 33 39 40 41 41 38 35 32 36 35 29 24 16 19 10 8 9 13 14 15
57 56 56 56 56 56 55 55 56 56 53 54 53 54 55 55 55 55 55 52 52 52 51 52 53 53 39 40 43 37 24 22 30 36 30 27 29 28 23 17 18 14 15 10 14 17 18
57 56 56 56 56 55 54 55 56 56 56 56 55 55 55 54 54 54 53 52 52 53 52 54 52 51 29 40 30 25 24 24 28 28 29 23 27 23 20 14 13 16 10 16 17 17 17
57 56 56 56 56 54 54 56 56 55 55 55 55 55 54 54 54 54 53 53 54 54 54 53 52 43 37 29 28 22 23 27 30 32 27 26 26 21 20 13 8 12 15 22 14 16 18
56 56 56 56 55 54 55 56 56 55 54 54 54 54 54 54 54 54 52 51 45 44 49 27 31 35 36 23 22 20 24 28 28 26 24 27 22 18 19 20 18 17 19 17 18 19 19
56 56 56 56 55 54 55 56 55 54 54 54 53 53 54 54 54 54 50 48 38 44 30 41 42 40 38 34 24 23 29 26 27 23 27 23 21 23 28 28 25 22 20 20 21 22 23
55 55 56 55 54 54 55 55 54 54 53 53 53 53 53 53 53 51 46 45 49 48 39 30 34 33 30 28 26 25 28 29 24 24 24 22 23 26 26 26 27 28 24 23 21 21 24
55 55 55 54 53 54 55 55 54 54 53 53 52 52 53 53 48 48 44 45 52 43 25 23 26 24 28 30 26 27 27 27 27 24 24 24 30 27 26 24 27 26 30 27 24 18 22
54 54 54 53 52 53 53 53 53 53 53 52 52 52 53 52 47 52 50 56 54 42 17 23 27 28 27 28 27 22 29 29 22 24 26 27 28 27 25 26 28 29 31 26 26 24 23
54 54 53 52 52 52 53 52 52 52 52 52 52 53 52 51 49 49 56 53 43 35 18 27 28 27 24 29 28 26 30 33 30 28 28 28 29 28 28 30 28 29 30 32 32 28 23
54 53 53 52 52 52 53 52 52 52 52 52 52 53 51 53 52 57 54 40 32 28 28 24 26 27 27 28 29 29 30 29 28 24 27 28 28 28 30 29 30 29 29 25 25 25 24
53 53 52 51 52 53 52 52 52 52 51 52 52 52 52 51 58 55 44 30 30 31 26 27 28 28 27 29 30 30 29 26 28 29 28 26 24 27 27 28 27 28 28 26 22 22 22
53 52 52 52 52 52 52 51 50 52 51 52 52 50 55 56 57 51 39 30 32 31 25 27 28 27 28 29 28 29 28 26 28 29 28 26 25 29 27 28 30 29 25 29 28 27 24
53 52 51 52 52 52 51 50 50 52 52 52 51 46 45 55 53 48 40 35 36 33 30 28 26 28 25 26 28 30 30 32 32 30 32 30 23 27 26 30 29 25 28 26 26 18 19
52 52 52 52 52 51 50 49 51 51 52 52 47 33 39 55 43 39 32 37 39 32 35 28 27 28 28 27 29 31 31 33 36 34 31 32 24 24 30 26 26 27 27 28 28 26 21
51 51 51 51 51 50 49 51 51 51 52 50 45 30 50 41 29 39 37 39 37 32 34 35 35 34 30 34 35 34 33 34 38 37 27 32 29 26 26 28 30 28 28 27 22 21 25
51 51 51 51 50 49 49 51 51 51 51 49 42 48 53 38 26 32 36 37 34 32 32 33 34 36 36 36 33 37 36 39 35 34 32 30 28 24 25 29 27 27 28 32 29 27 23
51 51 51 50 49 49 49 50 51 51 52 51 43 38 42 45 37 32 35 34 34 36 35 35 34 36 34 36 38 36 36 38 34 32 40 37 31 24 23 24 25 20 24 30 27 24 23
50 50 50 49 49 49 49 51 51 51 51 50 46 37 38 34 37 41 39 36 34 33 36 35 33 35 33 33 35 36 37 36 33 37 36 32 27 28 28 29 26 24 23 26 26 26 23
50 50 49 48 49 49 50 50 51 50 50 47 47 41 40 32 34 36 39 36 34 35 34 34 32 37 35 33 33 35 33 31 26 34 36 36 28 27 28 30 31 25 24 26 25 25 28
50 49 48 48 49 51 50 50 50 50 49 46 48 49 40 39 35 37 38 37 36 36 39 38 37 36 33 37 38 38 38 37 36 34 36 32 28 22 17 28 27 16 26 28 27 27 26
49 49 49 49 51 50 50 49 50 50 51 52 52 47 41 35 32 32 39 38 37 37 37 39 38 36 38 39 35 33 33 37 39 40 36 31 29 23 18 18 6 20 30 29 27 30 34
48 49 49 51 51 50 49 49 49 50 51 52 52 47 40 34 40 39 40 41 41 42 41 42 43 40 40 32 28 25 26 27 31 38 37 34 28 25 16 18 17 22 29 29 28 26 35
49 50 50 50 50 49 49 49 49 50 52 53 52 49 43 40 39 42 41 40 37 37 38 41 45 44 38 30 26 20 16 20 28 33 36 33 28 23 24 9 4 17 31 33 30 25 37
50 50 50 50 50 49 49 49 49 50 52 51 51 52 46 41 43 43 39 39 41 39 38 40 41 39 36 27 22 23 27 27 26 25 26 27 23 20 14 14 21 25 32 32 23 21 38
49 50 49 49 50 49 49 49 49 50 51 50 51 52 47 42 45 48 47 43 43 40 36 39 37 36 32 27 24 26 23 29 28 30 30 29 28 24 25 17 17 30 32 28 31 34 39
49 49 49 49 49 50 47 47 48 50 50 51 49 53 52 46 46 48 48 48 47 42 43 40 37 37 37 32 28 30 25 33 27 25 32 26 27 27 27 27 30 33 33 34 37 38 39

GFSGBSN_sfc_dewp_024.txt.gz
Dewpoint
58 58 57 57 57 56 56 56 57 56 54 54 53 53 53 53 53 54 54 54 54 52 52 51 51 51 50 47 38 48 62 60 47 34 31 30 29 28 24 23 20 16 11 10 9 9 16
58 58 57 57 56 56 55 56 56 56 53 53 53 53 53 52 53 53 53 55 53 52 51 51 51 52 48 35 33 48 52 44 39 35 33 31 30 30 29 22 16 16 8 10 13 7 7
58 58 57 56 56 56 56 56 56 56 55 54 53 53 52 52 53 54 54 55 52 51 51 50 51 51 50 38 37 41 44 38 40 36 34 34 31 27 26 22 21 11 6 9 12 13 15
58 58 57 56 55 55 56 56 55 55 56 54 53 53 53 53 55 55 55 54 51 52 51 51 52 51 43 39 42 40 34 27 36 36 34 31 35 32 25 21 18 13 14 7 11 16 17
58 58 57 56 56 56 56 55 54 55 56 56 56 55 55 54 54 54 54 52 51 51 51 53 50 50 34 38 34 26 24 23 29 34 33 26 29 23 18 15 12 15 11 14 16 18 16
58 57 57 56 56 56 55 54 54 55 55 55 55 55 54 54 54 54 52 52 52 53 52 52 52 44 36 26 32 22 23 26 29 31 29 27 25 20 20 9 5 9 13 21 13 22 18
58 57 56 56 56 56 56 54 55 55 55 54 54 54 54 54 54 53 52 51 46 44 49 31 32 31 35 34 23 21 23 27 27 27 24 26 21 18 19 19 15 16 16 15 17 18 28
57 56 56 56 56 56 56 54 55 55 54 54 54 54 54 54 54 53 49 46 37 43 37 42 41 40 39 36 26 22 29 25 26 23 27 23 20 22 28 26 23 21 18 18 22 23 29
56 56 56 56 56 56 55 54 55 54 53 53 53 53 54 54 54 53 49 44 47 47 39 32 38 30 29 30 24 25 28 28 24 22 24 22 22 27 27 27 25 26 21 22 21 26 27
56 55 55 55 56 55 54 54 55 54 53 53 53 53 53 53 49 47 44 43 53 44 26 24 26 25 28 28 26 26 28 27 26 23 26 28 30 26 25 24 26 24 29 25 22 23 21
55 54 54 54 55 54 53 53 54 53 53 53 52 53 53 52 47 51 50 56 54 39 18 23 25 27 26 28 24 23 32 26 24 25 26 27 27 25 24 25 28 28 29 26 26 24 22
55 54 54 54 54 53 52 53 53 53 52 53 52 53 53 51 49 49 54 51 40 33 19 25 27 25 25 28 27 27 31 32 30 29 29 28 29 28 27 29 27 29 31 30 31 27 22
54 54 54 53 53 52 52 53 53 52 52 52 52 53 52 51 50 56 51 37 30 27 27 23 25 25 26 28 29 29 29 29 25 25 26 27 27 28 29 28 29 31 28 25 25 24 23
54 54 53 53 52 51 52 53 52 52 52 52 52 52 51 51 54 54 39 29 24 30 25 26 27 27 26 29 29 29 28 26 28 28 27 24 20 25 27 27 26 27 28 26 21 23 23
52 53 53 52 52 51 52 52 52 51 52 52 52 50 52 55 54 48 34 26 28 31 25 27 27 26 27 28 28 29 28 26 28 29 27 25 25 28 27 28 29 28 25 28 27 26 24
51 53 52 52 51 52 52 52 50 50 52 52 50 49 47 54 52 45 33 29 35 37 30 27 25 28 25 27 27 29 29 32 30 32 31 29 23 26 26 30 29 27 29 24 25 17 17
53 52 52 51 51 51 52 51 50 51 52 52 42 36 40 54 41 36 26 30 39 34 34 27 27 28 27 27 29 30 30 33 35 34 32 29 25 23 27 26 26 27 26 27 27 25 19
53 51 51 51 51 52 51 50 50 51 51 51 39 29 49 39 31 37 35 39 39 31 35 35 34 31 29 33 33 33 31 33 36 37 28 32 28 26 24 28 31 27 27 25 20 19 24
52 51 50 51 51 51 49 49 51 51 51 48 44 47 52 37 27 32 34 37 35 31 33 33 33 35 36 35 32 35 35 37 33 33 30 29 27 24 23 24 26 26 30 29 27 26 23
51 50 50 51 51 50 49 50 51 51 52 47 43 40 42 41 36 31 32 34 33 36 35 34 35 35 35 36 37 35 35 36 33 33 40 35 29 23 20 20 24 20 26 28 26 23 22
50 50 50 50 50 49 49 50 51 51 51 50 42 38 40 36 39 32 35 34 33 32 35 34 33 33 33 33 34 34 36 34 31 38 37 30 26 27 28 29 26 22 22 27 25 24 22
50 50 50 49 49 49 49 51 51 51 51 47 46 38 36 33 40 37 37 35 33 34 34 33 32 36 34 33 32 34 33 29 21 35 35 34 27 24 28 30 29 26 23 24 25 25 27
50 50 49 49 48 49 51 50 50 50 49 44 47 46 37 37 37 36 37 37 35 36 38 37 35 34 33 35 37 37 37 36 34 34 34 30 27 20 16 26 22 17 23 26 26 27 25
49 49 49 49 49 51 50 50 50 50 49 48 50 46 40 31 33 36 38 37 36 35 35 38 37 34 37 38 35 33 33 37 39 39 35 29 26 21 17 18 7 19 27 28 27 27 28
48 48 49 49 51 50 49 49 50 50 51 51 51 45 40 31 33 35 39 40 40 41 40 41 42 40 38 30 30 28 26 27 30 36 33 31 26 23 15 17 16 15 23 28 27 25 33
48 49 49 50 49 49 49 49 49 49 51 53 51 47 44 38 37 39 40 39 37 37 37 40 44 41 35 29 25 20 19 22 25 32 35 30 27 22 20 9 4 16 26 31 29 25 32
49 50 50 50 49 49 49 49 50 50 51 52 51 49 45 41 43 41 38 38 39 38 37 39 40 37 34 26 21 21 21 25 24 24 26 26 25 18 14 12 20 22 31 31 22 23 36
49 49 49 49 49 49 48 49 50 51 51 52 50 51 45 42 44 47 45 41 41 39 35 39 36 36 31 27 24 25 22 28 27 28 31 28 27 22 22 13 18 28 32 27 30 32 37
49 49 49 50 47 47 48 48 50 51 51 51 51 52 50 46 45 47 48 47 46 41 42 39 37 37 37 31 26 26 25 29 26 24 32 26 27 26 26 26 28 30 33 34 33 33 37

GFSGBSN_sfc_dewp_027.txt.gz
Dewpoint
59 59 58 58 58 57 56 57 56 57 56 55 53 54 53 53 53 54 53 53 53 55 53 51 51 51 50 46 39 47 61 60 50 34 31 30 30 28 28 27 23 19 16 12 10 31 33
59 59 58 58 58 57 57 56 56 56 56 56 54 53 53 53 53 52 52 52 53 54 52 51 50 51 48 35 34 52 51 45 39 33 32 31 28 29 28 23 21 21 10 11 10 15 18
59 59 58 57 57 57 57 56 56 56 55 56 54 53 53 52 52 53 53 53 53 52 52 51 50 50 50 39 36 49 44 41 38 34 33 33 31 31 31 23 19 12 11 13 15 13 15
59 59 59 57 57 56 56 55 56 56 55 55 56 53 53 52 53 52 53 53 53 52 51 51 52 50 44 41 43 39 41 35 39 37 34 35 34 30 30 22 19 14 17 10 14 16 16
59 59 58 58 57 56 55 55 55 55 55 55 56 55 55 54 54 53 53 53 52 51 51 53 51 50 39 42 34 31 29 26 34 37 37 32 35 30 19 19 17 19 11 14 14 20 16
59 59 58 57 57 56 56 55 55 55 54 55 55 55 55 54 54 54 52 51 51 52 52 51 52 46 38 27 34 24 26 29 35 33 31 29 26 23 21 14 12 15 14 14 15 20 26
54 59 58 57 57 56 56 56 55 54 54 55 55 54 54 54 54 53 52 51 48 46 50 37 36 36 31 34 32 22 26 32 32 30 27 27 22 19 21 19 13 16 16 15 18 23 34
54 57 57 57 57 56 56 56 55 54 55 55 54 54 54 54 54 53 51 46 40 43 42 45 42 41 39 37 29 23 31 30 33 26 26 25 23 22 28 25 23 21 21 21 25 28 33
53 53 57 57 56 56 56 56 55 53 54 54 53 53 53 54 53 52 49 48 48 49 43 36 41 35 26 34 27 26 31 31 26 25 24 25 23 28 28 26 26 26 24 23 23 29 31
52 52 56 56 56 56 55 55 54 54 54 53 53 53 53 53 50 50 47 48 49 51 29 27 28 28 29 29 29 27 30 30 28 25 29 29 29 26 25 26 26 27 27 25 24 23 21
52 52 54 55 55 55 55 54 53 54 54 53 53 53 53 52 49 48 49 57 53 44 22 26 25 28 29 26 25 26 34 29 26 27 28 28 29 26 27 27 29 29 29 27 25 24 24
51 51 51 55 55 54 54 53 52 53 53 53 53 53 53 52 50 50 54 50 44 35 25 26 28 25 28 29 29 29 32 33 32 31 30 29 29 29 28 30 29 33 31 31 31 28 21
50 51 51 54 54 54 53 52 52 52 52 52 52 53 52 50 49 57 52 42 32 29 30 25 26 27 28 30 30 30 30 31 27 28 28 28 28 28 31 29 30 31 29 27 27 28 25
50 51 52 53 54 53 53 52 52 52 52 52 52 52 52 52 53 53 42 33 27 29 27 27 27 28 28 29 30 29 28 28 30 29 27 24 23 25 28 28 27 29 30 31 21 25 26
50 51 51 54 53 53 52 51 52 52 51 52 52 51 50 54 53 50 37 30 28 30 27 27 28 28 29 30 29 30 29 27 29 30 28 27 24 27 28 29 30 28 26 30 28 27 26
48 50 51 53 53 52 51 51 52 52 52 52 50 49 50 56 55 44 35 29 31 36 31 28 26 30 27 28 29 29 29 32 30 33 32 30 25 27 27 30 31 29 30 27 27 21 16
48 50 50 51 52 51 51 51 52 50 52 52 47 44 46 53 46 38 30 29 38 40 34 29 29 29 29 29 30 30 29 33 35 33 32 28 30 28 28 27 28 29 28 28 27 26 19
48 49 50 50 51 51 51 52 51 49 52 51 42 34 50 43 34 37 33 35 40 33 37 37 33 32 31 34 33 32 32 33 36 37 31 31 32 29 24 28 31 28 28 28 25 20 26
48 48 48 49 51 50 51 51 50 50 52 49 39 48 52 41 32 35 35 37 37 33 35 35 36 37 38 36 33 35 36 38 35 34 34 33 30 26 25 25 27 27 30 28 28 29 25
48 48 48 50 50 50 51 50 49 51 52 49 46 42 44 40 37 33 35 34 34 37 37 35 36 37 38 37 38 36 35 37 37 35 40 37 29 27 23 21 26 25 30 27 27 27 24
48 48 49 50 50 50 50 49 51 51 51 49 43 41 43 37 36 33 34 35 33 34 37 36 35 35 36 35 35 35 36 32 34 39 38 33 29 28 28 28 26 22 24 28 25 25 26
49 48 50 50 50 50 49 49 51 51 51 48 42 39 37 37 39 34 38 35 33 35 36 35 35 37 37 35 34 35 35 30 26 36 36 34 30 28 27 30 28 26 25 24 27 26 26
49 49 50 50 50 49 49 49 51 51 50 46 49 44 38 36 39 33 36 37 35 38 40 38 37 36 35 38 38 38 37 37 34 36 34 32 30 26 22 25 23 23 25 25 25 27 27
48 50 50 50 49 49 49 50 50 50 49 48 49 44 38 32 37 33 37 38 37 37 37 39 38 37 39 40 38 37 36 38 37 35 34 30 26 24 26 23 19 22 28 27 27 27 27
49 50 49 49 48 49 50 50 50 50 50 52 51 45 38 33 34 36 39 40 41 42 41 41 42 40 40 35 35 31 31 32 33 34 31 31 28 25 27 21 18 16 20 27 29 24 29
49 48 49 48 50 50 49 50 50 50 51 52 52 48 42 37 35 38 40 40 38 39 39 42 43 41 36 32 31 29 28 27 25 32 34 30 29 30 24 22 19 22 21 32 30 28 30
48 49 49 50 49 49 49 49 50 50 51 52 52 49 46 42 44 42 40 39 40 39 39 40 39 40 37 32 31 29 27 25 24 25 30 33 31 29 21 27 24 24 27 32 25 27 32
49 49 49 49 49 49 49 49 49 49 50 53 51 52 47 44 46 48 45 41 41 41 39 41 39 39 35 34 34 30 32 30 28 28 31 30 30 30 25 24 24 28 32 32 35 34 34
49 49 48 47 47 48 49 50 49 49 50 52 51 53 50 47 46 49 49 49 48 43 43 41 40 39 39 35 32 31 33 32 29 30 32 29 31 31 28 30 32 31 36 35 35 34 35

GFSGBSN_sfc_dewp_030.txt.gz
Dewpoint
60 60 59 59 58 58 58 58 57 57 56 56 56 55 54 54 54 53 54 54 54 54 55 51 51 51 50 44 33 45 60 58 45 31 31 27 24 21 15 18 22 20 17 15 24 32 28
58 60 59 59 58 58 58 57 57 56 56 56 56 55 55 54 53 53 53 53 53 53 53 51 50 51 48 34 30 46 48 41 33 29 32 29 23 24 25 25 23 21 15 11 13 26 33
57 60 59 58 58 58 58 57 57 56 56 56 55 55 54 54 52 52 53 54 53 53 51 51 50 49 47 36 34 44 40 37 33 29 29 31 28 25 27 26 20 15 11 11 11 18 30
56 57 59 58 57 57 57 57 56 56 56 56 55 56 55 53 53 53 54 53 53 52 51 51 51 50 41 37 37 39 36 38 38 33 31 33 33 29 28 21 15 10 12 9 14 18 18
56 57 59 58 57 57 56 56 56 56 56 55 55 56 55 55 54 54 53 53 52 51 51 52 51 50 35 42 33 29 35 25 35 36 36 33 33 29 25 19 14 14 9 10 13 20 19
56 56 56 59 58 57 56 56 55 55 55 55 54 55 55 54 54 54 53 51 51 52 52 51 51 48 41 26 30 25 26 29 33 34 32 31 28 23 19 15 15 13 12 7 10 19 15
54 54 55 57 58 57 57 56 55 55 54 54 55 55 54 54 54 53 51 51 48 48 49 37 32 37 28 30 31 21 23 31 29 28 25 28 23 17 15 17 12 12 13 13 17 29 23
52 53 54 54 58 57 57 57 55 55 54 54 55 54 54 54 54 53 51 47 41 47 39 42 39 37 35 34 28 21 28 25 29 21 25 24 20 24 26 20 17 15 14 20 23 28 29
51 52 54 53 57 57 57 56 55 55 54 54 54 54 54 54 53 52 49 46 49 48 44 35 38 30 23 31 24 19 25 25 23 20 23 22 25 27 24 22 20 22 20 22 21 28 30
50 51 53 53 54 57 56 56 55 55 53 53 53 53 53 53 50 49 46 44 47 51 30 24 28 29 29 29 23 26 29 25 25 21 27 26 27 25 24 23 23 21 25 24 25 22 16
50 51 52 53 53 56 55 55 55 54 53 53 53 53 53 52 50 44 49 48 57 50 20 23 25 26 28 24 23 27 32 27 20 25 27 26 25 24 23 26 28 26 27 24 23 22 23
49 50 51 52 52 55 55 54 54 53 53 53 53 53 53 52 52 51 53 56 52 35 20 23 24 24 26 25 25 29 30 31 30 28 28 28 29 28 28 30 28 31 29 28 27 25 21
49 50 50 51 51 54 55 54 53 53 52 53 52 53 53 51 44 59 59 50 32 28 26 22 23 24 23 24 26 28 28 28 22 26 27 27 27 28 30 28 31 31 27 23 25 24 21
48 49 50 51 51 53 54 54 53 52 52 52 52 52 53 51 52 56 51 39 26 22 23 24 23 25 23 25 28 29 28 25 29 26 24 22 24 25 29 28 24 27 25 23 11 19 20
48 48 50 50 52 51 54 53 52 51 52 52 52 51 52 52 55 54 44 33 26 27 26 24 24 22 25 26 26 28 28 26 28 30 21 23 22 27 29 30 29 28 25 30 28 30 29
48 48 48 49 50 52 53 53 51 52 52 52 49 49 46 54 57 50 41 31 28 33 29 25 21 22 24 24 24 27 28 30 30 31 33 29 24 27 28 30 31 29 29 26 29 23 14
47 47 48 49 51 50 53 52 51 52 52 52 48 42 53 59 55 47 35 31 30 37 34 26 23 25 24 27 22 25 27 31 32 31 31 28 27 28 29 27 26 29 27 26 25 27 17
47 47 47 48 50 50 53 51 51 51 51 51 47 39 56 53 42 40 34 30 39 32 35 32 30 29 28 30 29 24 27 29 35 33 30 31 31 30 26 29 30 28 27 24 23 20 28
47 47 47 48 50 49 52 51 51 51 51 48 41 47 53 47 38 40 35 31 38 31 33 34 31 32 35 33 31 33 34 35 34 33 33 33 31 28 26 27 28 27 28 25 28 30 25
46 47 47 48 49 49 51 51 50 50 51 49 42 45 49 44 38 35 32 31 33 36 34 35 36 37 37 35 37 36 35 35 35 34 40 36 32 28 26 22 25 25 27 26 23 26 19
46 47 47 48 49 48 51 50 50 51 51 50 45 41 43 39 36 35 33 30 31 33 35 36 35 34 34 35 35 35 35 32 35 39 38 35 30 29 26 26 25 23 24 26 22 22 24
46 46 47 47 47 48 51 50 50 50 51 49 42 41 42 38 36 33 34 32 30 33 34 33 34 36 37 35 33 35 35 32 31 36 36 34 32 30 28 28 26 26 24 23 25 24 24
46 46 47 47 48 49 50 49 49 50 51 47 51 44 39 40 36 34 32 30 30 38 39 36 37 37 37 37 39 39 38 35 33 36 37 34 34 29 24 25 25 32 28 24 23 26 26
46 47 47 48 49 50 50 49 49 50 50 48 51 44 43 39 36 29 31 34 35 37 38 38 38 38 40 41 39 39 38 36 36 36 35 34 31 32 32 28 30 17 24 24 24 24 22
44 47 48 48 49 49 48 49 49 50 50 53 53 46 44 41 37 32 34 36 40 41 41 40 42 41 42 39 38 35 38 40 37 34 32 31 32 32 36 23 19 9 18 21 25 19 23
47 48 49 50 49 48 48 49 50 50 50 55 55 51 47 46 40 33 37 41 40 41 42 42 41 42 37 40 40 37 33 29 30 33 34 30 32 34 31 34 32 22 25 30 30 23 25
48 49 49 49 48 48 49 49 50 50 50 56 56 54 47 48 40 43 38 41 42 42 42 41 40 41 39 42 43 40 34 27 26 30 34 37 37 36 32 36 28 23 23 32 24 24 32
49 49 48 48 49 49 49 49 49 49 51 55 55 56 51 49 46 48 44 43 42 43 44 42 40 42 42 44 44 38 41 32 29 27 31 32 35 36 32 35 31 27 31 30 33 34 34
48 49 48 48 48 48 49 49 49 49 51 53 53 54 53 49 49 51 50 49 48 44 45 44 43 41 42 43 43 42 38 37 35 33 32 30 33 34 31 31 30 32 34 35 37 37 36

GFSGBSN_sfc_dewp_033.txt.gz
Dewpoint
57 57 61 60 59 59 59 58 58 57 57 57 57 57 56 55 54 54 54 54 54 54 54 53 52 52 50 44 33 47 60 59 41 37 29 24 18 18 15 12 15 19 17 18 32 32 32
55 57 58 60 59 59 59 58 58 57 57 56 56 56 56 55 54 54 54 54 54 54 54 52 51 51 49 36 28 39 40 37 30 32 26 21 18 17 19 16 19 19 18 23 27 30 28
55 56 57 59 59 59 58 58 57 57 56 56 56 55 55 55 54 54 53 53 54 54 52 51 50 48 46 37 31 40 37 33 28 28 25 27 25 24 26 25 22 17 17 20 23 24 29
54 55 56 56 58 58 57 57 57 57 56 56 56 55 55 55 54 54 54 54 54 52 51 50 50 49 41 33 33 32 37 34 34 31 28 31 30 28 28 25 21 14 15 15 18 19 27
53 55 55 56 57 58 57 57 57 57 56 56 55 55 55 55 55 54 54 54 51 51 50 51 51 49 36 41 30 29 31 28 33 33 32 31 32 30 27 24 18 15 14 14 14 16 21
52 54 55 56 56 58 57 57 56 56 56 55 55 54 55 55 54 54 54 52 51 51 51 50 48 48 42 28 28 25 29 30 33 34 33 31 29 28 25 20 13 15 14 13 12 16 20
50 53 54 54 55 56 58 57 56 55 55 55 55 54 55 54 54 53 51 50 45 47 47 39 34 32 27 27 27 25 24 28 31 32 27 30 24 21 19 19 22 17 14 9 13 18 15
49 51 53 53 54 54 57 58 56 55 55 55 54 55 54 54 54 53 52 42 43 48 42 39 34 32 32 29 25 21 23 26 28 25 24 25 23 23 21 19 16 14 12 16 16 19 21
50 50 50 53 53 54 54 58 56 55 55 54 54 55 54 54 54 52 48 43 48 49 45 33 32 31 26 28 21 21 23 22 24 26 26 26 30 26 22 16 14 14 14 17 16 20 21
49 50 50 51 52 53 54 56 57 55 54 54 53 54 54 53 50 47 45 43 45 49 40 26 26 25 26 27 24 22 23 22 27 26 22 28 26 22 21 17 17 18 22 19 20 21 16
49 49 49 50 51 52 53 54 56 55 54 54 53 53 53 53 53 44 49 47 51 55 26 22 23 27 25 23 21 22 27 23 22 23 25 26 24 21 20 23 24 26 25 23 22 18 23
49 49 49 50 51 52 52 54 55 55 54 53 53 53 53 52 52 51 52 57 55 42 25 21 24 23 23 23 19 24 23 24 26 24 23 26 27 26 26 27 26 27 25 25 25 21 21
48 48 49 50 50 51 52 53 54 54 53 53 53 53 53 51 45 53 57 53 37 31 23 19 20 21 21 21 21 21 21 22 18 20 20 21 24 27 27 26 28 25 24 24 24 22 21
46 48 48 49 50 50 52 52 54 54 53 52 52 52 53 50 51 57 57 44 33 22 22 19 20 21 19 20 20 21 20 17 19 21 18 21 23 25 27 26 23 24 21 25 17 17 16
44 45 48 48 50 50 51 52 54 53 52 52 52 52 52 53 55 56 51 38 31 21 21 20 21 20 19 21 21 21 21 15 18 21 21 21 21 26 27 28 24 23 23 26 24 33 26
44 44 47 48 48 49 51 51 53 53 52 52 49 50 48 54 56 54 46 35 30 25 25 22 19 21 21 22 20 21 22 22 25 29 30 24 22 24 27 28 28 28 26 23 24 21 16
44 44 46 47 48 49 50 51 52 53 52 51 49 44 48 55 54 48 40 35 31 27 29 24 21 20 21 21 19 21 22 28 29 30 31 24 23 28 27 26 21 28 25 23 23 25 20
44 43 45 46 47 48 50 51 52 52 51 50 50 40 54 58 41 44 38 34 32 27 34 28 28 24 23 24 23 20 22 23 30 30 27 29 26 28 26 28 28 28 25 25 26 19 25
43 42 46 46 46 47 49 49 52 52 51 47 46 46 57 53 41 44 38 32 30 29 31 30 26 27 25 26 25 23 23 37 36 34 28 32 26 26 25 27 27 23 23 24 22 27 23
44 43 46 46 46 47 48 49 51 51 51 50 44 44 50 51 42 40 36 32 31 32 30 29 24 32 30 28 30 28 28 35 37 34 40 37 28 26 25 22 23 26 22 22 24 26 23
43 45 45 46 46 47 49 48 51 51 50 50 46 40 43 42 43 41 36 32 29 31 33 34 31 31 31 31 31 32 33 34 36 39 35 35 29 27 25 25 23 21 20 21 20 20 23
45 45 45 46 47 47 47 48 50 51 50 49 42 38 41 41 42 38 36 31 27 30 33 32 30 29 29 30 32 30 34 33 32 37 36 34 31 31 31 28 26 24 23 20 19 19 16
45 45 46 46 47 48 47 48 49 50 50 46 52 46 41 43 43 37 36 31 28 35 39 32 31 31 34 36 40 39 38 35 34 37 37 35 33 31 23 25 25 31 28 24 21 20 21
45 45 46 47 48 47 46 47 49 50 50 47 50 47 44 42 41 34 32 31 30 35 36 36 36 36 42 41 40 39 37 35 35 36 37 36 35 35 31 30 28 16 20 19 22 20 18
45 45 46 47 47 46 45 46 49 50 50 54 56 49 43 46 36 32 31 32 32 39 38 39 41 41 43 40 38 37 39 39 33 31 30 32 33 33 37 23 19 14 13 18 20 16 20
45 46 46 47 46 47 47 48 49 49 50 54 58 54 46 48 39 30 31 31 36 40 43 42 43 43 42 43 42 33 31 28 31 33 31 30 33 33 30 33 30 27 23 26 26 23 24
45 45 45 47 46 48 48 49 49 49 50 54 57 58 42 39 34 35 33 34 36 38 39 43 43 42 42 46 43 40 35 30 29 32 36 37 38 36 33 35 30 24 23 29 25 30 31
45 45 46 46 48 48 48 49 49 49 50 52 56 57 49 46 45 45 38 36 39 39 44 43 42 43 43 43 46 41 42 35 32 28 33 33 37 37 37 36 31 26 28 27 35 32 31
44 45 48 48 48 48 48 48 49 49 50 51 56 55 55 48 49 52 51 50 48 46 42 45 39 43 42 41 47 48 42 41 39 32 31 31 33 36 31 32 30 29 28 30 32 34 34

GFSGBSN_sfc_dewp_036.txt.gz
Dewpoint
55 56 57 58 60 60 59 59 58 58 57 57 57 57 56 56 55 55 54 53 54 54 54 54 53 52 50 43 36 49 61 58 41 32 31 26 23 16 14 14 14 14 16 18 33 33 34
54 52 55 57 57 60 60 59 59 58 57 57 56 56 56 56 56 55 54 54 54 54 54 53 52 52 49 35 28 39 41 44 28 28 30 24 16 16 16 15 12 17 20 29 31 26 30
52 54 54 56 57 58 59 59 58 58 57 57 56 56 56 56 56 56 55 54 54 55 54 52 51 49 44 34 33 37 35 30 26 29 24 25 21 22 22 24 21 21 17 24 24 26 31
52 53 54 55 56 56 58 58 58 58 57 57 56 56 55 55 55 55 54 54 54 54 52 51 51 49 41 36 34 32 34 34 32 27 26 28 29 27 27 29 22 19 20 19 23 21 30
52 52 53 54 55 56 56 58 57 58 57 57 56 55 55 54 55 55 54 54 54 52 52 51 50 49 40 42 31 29 29 29 31 32 31 28 31 29 27 26 20 19 16 14 19 18 25
51 52 52 53 55 56 56 57 57 57 57 56 56 55 54 54 55 54 54 54 53 51 51 49 47 44 45 31 26 27 27 27 31 32 32 31 29 27 26 22 23 19 16 18 14 13 17
51 51 51 52 54 55 55 56 58 56 56 56 56 55 54 55 55 54 52 49 47 48 47 36 35 35 27 26 27 26 25 26 31 31 29 31 26 23 24 29 24 20 19 14 13 14 16
51 51 51 50 53 53 54 54 56 56 56 56 55 55 55 54 54 53 52 46 43 47 44 42 28 34 32 31 25 22 22 25 29 27 35 31 23 30 28 24 23 20 17 20 14 14 14
50 51 51 50 51 52 53 54 54 56 56 55 55 54 55 54 54 52 48 43 44 46 43 36 31 28 29 28 24 20 21 22 28 31 30 31 28 32 24 19 20 18 16 21 18 14 13
49 50 50 51 50 50 52 53 54 56 56 55 54 54 53 53 50 49 46 45 45 50 38 30 27 27 28 25 23 20 20 20 35 30 31 34 31 27 22 19 17 17 25 22 18 18 15
47 49 49 50 50 50 51 52 53 54 56 55 54 54 53 53 52 45 49 45 53 55 32 25 26 26 24 23 21 20 22 22 23 24 25 35 34 29 19 23 26 23 28 25 18 18 26
47 47 49 50 50 50 51 52 53 53 55 54 53 53 53 52 51 51 53 58 54 42 28 21 22 23 23 23 19 19 21 24 25 23 22 31 38 37 29 27 26 28 25 23 24 23 29
46 47 48 49 49 49 50 51 52 53 54 54 53 53 53 50 46 50 55 55 39 30 22 20 21 23 22 21 19 19 23 20 19 23 22 20 22 27 29 29 24 22 21 27 31 31 27
45 47 47 49 49 49 50 51 52 53 54 54 52 52 52 50 52 57 56 50 32 24 26 17 19 21 19 20 19 18 18 17 17 17 18 17 26 23 25 23 32 33 18 30 27 29 26
44 46 47 48 49 49 50 50 52 52 53 53 52 52 50 52 55 57 53 43 32 28 22 20 18 19 19 18 18 18 19 17 17 17 20 30 28 30 26 22 23 21 21 24 27 35 34
43 45 46 46 47 49 49 50 51 52 53 52 50 47 47 54 57 54 49 40 33 29 25 21 18 19 18 17 19 20 18 18 16 18 34 36 35 34 27 26 25 25 23 26 26 25 21
43 45 44 44 46 48 48 50 51 52 53 52 49 42 49 55 56 49 42 39 37 30 26 25 20 19 19 19 20 19 18 18 21 24 27 32 34 29 27 24 16 26 23 22 18 28 29
44 43 43 44 44 47 48 48 50 52 52 51 47 38 51 56 45 39 41 38 35 32 27 28 26 21 21 23 21 19 19 23 24 26 26 26 27 31 24 25 25 25 27 24 35 24 30
43 43 43 44 44 46 47 48 50 51 52 50 42 44 56 53 36 39 41 38 33 31 29 29 27 26 24 23 22 22 22 36 35 30 30 32 29 29 22 25 27 24 21 20 25 32 29
43 42 43 44 44 44 47 47 50 51 52 51 42 43 51 52 39 38 40 36 32 33 27 29 27 26 26 24 26 25 24 35 36 34 40 40 27 22 27 22 25 27 24 19 22 35 29
42 42 43 44 44 43 46 47 48 51 51 51 47 41 45 43 44 40 41 35 31 30 29 29 27 24 29 27 25 28 26 35 35 38 34 34 25 24 21 22 24 25 22 20 18 23 26
42 43 44 44 43 46 46 46 48 51 51 48 43 40 44 41 43 40 40 38 30 27 29 31 28 27 30 29 29 28 29 35 32 37 34 34 33 32 30 28 26 25 22 22 21 18 18
42 44 45 44 46 46 45 46 48 49 50 47 45 48 44 42 41 40 41 38 34 33 33 31 31 31 31 33 39 39 39 40 34 37 37 36 38 36 33 27 26 29 28 25 23 21 21
44 43 45 46 45 45 46 46 45 47 50 49 46 49 46 41 39 39 40 37 32 33 37 33 34 35 40 40 40 39 37 36 37 37 37 37 39 41 37 32 28 20 20 17 20 18 17
44 43 45 45 45 45 47 47 47 46 48 50 54 55 49 43 39 38 40 37 33 34 37 37 42 42 44 42 41 38 41 39 36 32 32 35 39 38 36 29 23 19 16 18 18 18 21
44 44 45 46 46 46 47 47 47 47 47 50 51 56 54 47 42 37 35 37 36 43 43 42 44 47 45 45 46 37 35 30 29 31 28 29 38 41 36 35 30 29 23 23 23 29 27
44 44 45 46 47 47 46 46 47 47 46 50 52 54 56 47 42 41 36 38 42 45 43 44 43 43 45 50 41 44 38 29 33 34 36 38 41 37 35 37 34 26 25 27 28 33 32
44 45 45 45 47 47 46 46 46 46 47 50 50 53 55 51 43 43 39 38 40 44 45 45 43 43 48 45 47 45 43 40 35 29 36 36 39 37 40 35 31 26 27 27 37 37 35
44 45 45 46 46 46 47 47 47 48 49 50 48 52 55 55 50 53 51 50 49 49 48 47 44 43 44 44 48 50 40 41 42 37 30 35 36 39 36 37 35 30 31 32 36 35 36

GFSGBSN_sfc_dewp_039.txt.gz
Dewpoint
54 55 56 56 57 57 60 60 59 58 57 57 57 57 57 56 56 56 55 55 54 54 55 54 54 54 50 46 44 46 60 58 45 35 30 31 30 26 17 15 15 15 14 35 43 44 43
53 54 54 55 56 57 57 60 59 58 57 57 56 56 56 56 56 56 56 55 54 54 55 55 53 53 49 41 34 54 49 45 37 31 31 31 27 21 18 18 21 17 17 31 39 40 41
52 53 53 55 55 57 57 57 59 58 58 57 57 56 56 55 55 55 56 55 54 54 55 54 53 49 46 41 35 32 41 37 30 27 27 31 27 27 28 27 29 25 21 30 34 38 39
53 53 53 53 55 55 56 56 58 58 58 57 57 56 55 55 54 55 55 55 54 55 55 54 52 49 46 43 39 36 33 33 29 28 30 29 32 31 29 28 29 21 21 21 22 37 40
52 52 52 53 53 55 55 55 56 58 58 57 57 56 55 54 54 54 54 54 54 55 54 53 49 49 46 47 38 34 32 32 34 33 32 27 32 31 30 26 26 23 17 20 21 34 34
49 51 52 52 52 54 55 55 55 57 57 57 56 56 55 54 54 54 53 54 54 53 51 49 48 45 44 37 35 31 30 30 34 35 36 35 31 30 28 26 21 22 19 18 19 29 32
49 49 52 51 52 53 55 56 55 56 57 57 56 56 55 54 54 54 52 50 47 48 47 44 40 38 31 33 30 28 28 27 31 32 34 41 28 29 30 28 27 27 25 20 19 17 30
47 48 51 52 51 52 54 54 55 54 57 57 56 55 55 54 54 53 51 48 46 45 45 46 44 39 34 35 31 28 26 25 31 35 40 39 33 34 31 28 27 29 26 20 21 17 23
49 49 51 50 50 51 51 53 53 54 55 56 56 55 54 54 53 52 50 47 45 46 45 42 41 41 30 32 30 28 24 25 33 36 36 33 33 32 29 28 25 26 24 21 22 17 14
49 49 47 50 51 50 50 51 53 54 54 56 55 54 53 53 49 50 49 49 48 47 42 35 37 33 28 30 29 28 24 24 36 31 34 34 36 34 31 28 22 21 25 26 26 22 16
47 49 48 49 49 50 50 50 51 54 53 55 55 54 53 52 50 49 49 53 47 51 31 33 30 30 28 28 27 26 25 23 31 33 34 34 33 33 32 30 28 26 29 28 28 22 25
47 48 49 48 49 49 50 50 51 53 53 55 55 53 53 52 51 49 49 50 54 43 32 30 29 26 26 26 25 23 23 29 28 28 33 33 36 36 30 30 28 30 30 29 32 29 25
47 46 47 48 47 49 49 50 50 52 52 54 54 53 53 50 47 51 50 52 42 35 28 24 24 26 25 25 24 24 22 23 22 24 28 29 27 32 35 28 29 30 25 27 27 29 27
45 46 45 46 48 48 48 50 49 51 52 53 53 52 52 50 51 53 55 48 37 30 30 26 25 26 25 24 24 23 23 22 23 21 25 23 27 31 32 32 31 27 29 29 25 28 28
44 44 44 45 45 48 48 49 49 51 52 53 53 52 50 50 51 52 51 41 34 33 25 28 22 23 23 22 23 22 20 20 19 18 19 30 31 36 34 35 28 30 26 30 33 33 29
44 44 44 44 46 47 48 48 48 50 52 53 51 50 48 50 54 51 47 38 39 35 33 30 23 23 22 20 21 21 22 21 23 21 34 37 30 35 35 34 28 27 27 26 28 21 21
44 43 43 43 44 45 48 49 49 50 52 53 51 47 47 51 53 48 40 39 40 38 35 31 25 23 23 23 22 21 22 21 23 34 37 37 34 35 36 32 25 27 26 25 25 30 24
43 42 43 43 44 45 47 48 48 50 51 51 49 42 48 52 43 42 39 40 40 36 39 37 31 34 26 26 27 22 24 35 25 30 28 37 35 35 31 33 27 25 30 33 27 21 27
42 42 42 43 44 45 46 47 48 49 51 49 46 45 50 49 33 37 37 39 41 39 37 35 33 34 33 26 29 28 36 40 39 33 31 34 29 26 24 29 30 26 25 25 30 32 26
42 42 42 42 42 46 45 46 48 48 50 50 46 40 48 49 35 36 34 35 38 41 39 36 31 33 31 29 31 28 37 40 40 38 40 39 30 27 23 24 28 28 30 25 26 27 25
41 40 39 39 44 45 44 45 46 48 49 49 47 39 44 41 41 36 35 34 38 38 38 36 32 31 30 29 30 28 37 37 39 40 37 35 27 27 25 27 28 27 27 26 21 27 24
40 40 39 39 43 42 44 45 44 47 48 47 44 40 45 45 42 41 36 36 36 36 36 32 33 31 30 31 32 29 34 36 35 38 34 35 31 30 30 31 28 26 27 26 24 25 24
41 41 42 43 43 44 45 44 44 47 48 45 44 45 44 42 42 40 35 36 38 38 37 33 33 34 34 36 40 38 39 39 37 37 35 35 34 31 28 27 25 21 24 25 27 27 26
42 43 43 43 43 44 44 44 44 47 47 48 42 45 45 38 42 39 36 35 39 37 38 34 35 35 41 42 42 42 39 39 43 42 39 37 35 32 27 26 12 24 23 21 21 22 22
42 43 43 44 44 44 44 44 44 47 47 47 47 47 48 36 40 38 35 37 39 40 38 40 43 41 44 44 40 35 34 28 33 35 34 40 36 31 24 25 26 23 23 25 22 24 27
42 43 44 44 44 44 44 45 45 47 48 49 47 49 50 45 41 38 33 38 39 40 43 46 47 47 44 44 35 30 29 31 31 30 37 35 38 27 29 23 16 28 25 28 26 26 32
42 44 43 45 45 45 45 45 46 46 47 46 46 48 49 47 45 42 35 37 41 45 44 47 46 44 46 35 35 29 28 33 31 30 29 30 30 26 25 23 28 31 28 31 21 27 34
44 44 44 45 45 46 45 45 46 46 46 45 44 48 50 48 48 46 41 41 45 45 41 46 46 42 41 35 35 32 31 32 32 37 33 30 31 26 32 28 24 29 29 27 36 35 35
44 43 45 45 45 45 46 47 47 46 47 46 43 49 52 48 49 54 51 52 47 48 48 47 46 43 45 41 40 37 36 34 32 28 36 31 37 33 33 32 37 32 34 38 39 38 38

GFSGBSN_sfc_dewp_042.txt.gz
Dewpoint
53 53 55 55 56 56 57 58 60 58 57 57 57 56 57 56 56 56 56 55 55 55 54 54 55 55 50 45 43 47 59 59 42 33 29 30 32 32 25 18 17 15 16 32 43 44 42
53 53 54 54 55 55 56 57 57 59 58 57 56 56 56 56 56 56 55 55 55 55 54 54 55 53 49 36 38 52 46 41 37 32 29 30 31 29 22 21 24 26 27 38 41 41 40
53 53 53 54 55 55 56 56 56 58 58 57 57 56 56 56 55 55 55 55 55 55 55 54 53 50 47 29 39 38 43 37 36 29 27 30 32 30 29 26 30 29 31 38 40 42 35
53 53 53 53 54 54 54 54 56 56 58 58 57 56 55 55 54 54 54 54 54 54 54 54 53 49 42 44 45 42 36 34 32 29 28 31 31 31 31 28 28 23 29 30 35 37 36
50 52 53 53 53 54 54 55 55 56 57 58 57 56 55 54 54 53 54 54 54 55 55 54 49 48 43 48 42 42 35 32 33 30 30 28 33 32 29 28 25 23 17 21 32 34 33
49 50 50 53 52 53 53 54 55 55 56 57 57 56 55 54 53 53 53 53 53 53 51 49 48 42 42 35 39 33 32 32 35 34 35 33 31 29 29 26 23 21 21 19 19 32 33
51 49 49 49 52 52 53 53 55 55 55 56 57 57 55 54 53 53 51 49 46 47 47 41 35 33 34 37 35 32 29 30 33 37 31 40 31 28 30 29 27 27 26 26 25 27 31
51 51 48 49 52 52 52 53 54 55 54 56 57 56 55 54 53 53 50 45 46 42 41 46 44 42 42 40 33 32 28 25 33 33 39 37 32 33 34 31 29 30 28 26 23 23 29
50 50 51 50 51 53 52 51 53 53 53 54 56 56 55 53 53 51 48 47 46 45 43 44 46 44 44 40 32 31 26 31 34 34 34 31 31 35 33 29 27 27 28 26 23 22 17
49 49 50 50 49 51 52 51 51 53 53 53 55 56 54 53 48 49 49 50 50 46 40 38 39 41 33 27 30 31 27 33 35 32 35 32 34 35 33 31 30 23 27 26 24 24 18
48 48 49 49 48 47 50 50 51 52 53 53 54 55 53 51 49 48 49 48 48 49 25 33 39 37 29 29 28 26 28 28 30 33 33 29 33 32 32 30 32 26 31 28 28 26 24
49 48 48 49 49 47 48 50 49 50 52 53 53 55 53 52 51 49 49 49 54 41 29 35 31 27 27 29 29 26 24 25 32 33 33 31 36 34 31 31 31 30 30 31 33 29 22
47 49 47 47 48 49 48 46 50 49 51 52 53 54 52 51 46 51 52 51 39 34 34 29 27 27 26 27 27 25 25 21 20 26 29 30 31 33 35 30 31 29 26 24 23 26 22
45 46 48 46 47 48 48 47 48 49 50 52 52 53 53 50 50 51 53 47 35 33 33 32 28 26 24 26 25 25 22 20 24 25 26 26 25 30 33 32 32 31 27 26 19 24 25
44 45 47 46 46 47 48 48 46 48 50 51 52 53 52 51 50 51 49 39 32 36 28 28 26 26 25 25 24 24 23 22 21 22 20 27 29 35 35 35 32 30 26 29 31 30 26
44 46 48 46 45 46 47 47 47 48 49 51 49 50 50 51 50 49 46 36 37 38 35 33 26 26 24 24 23 23 22 23 22 23 28 31 29 33 35 34 31 28 27 25 28 21 22
44 45 47 46 44 44 45 46 48 46 49 51 48 44 49 52 50 45 38 36 38 37 40 37 32 26 25 24 22 23 22 22 24 28 33 35 28 29 35 29 26 27 25 26 26 28 22
43 44 46 46 45 45 46 46 46 46 48 48 46 40 50 52 42 40 38 38 39 37 40 40 39 33 27 27 25 23 23 23 32 36 30 35 34 28 29 31 33 30 29 28 25 19 27
43 44 45 45 44 44 45 46 45 47 47 45 42 43 50 48 37 34 37 38 38 36 38 38 36 36 31 27 27 30 33 38 39 32 31 34 31 27 24 27 32 28 26 29 33 30 25
43 44 45 45 44 44 44 45 45 47 47 46 43 38 46 46 39 32 34 35 37 38 37 40 40 39 33 29 31 30 35 38 41 36 40 36 31 28 23 22 27 28 30 31 27 26 24
43 44 44 43 43 44 44 44 45 46 47 46 44 37 40 38 39 34 33 35 36 35 39 40 37 37 37 29 27 33 37 36 39 38 36 32 27 26 25 27 29 27 26 28 24 25 23
44 44 43 42 42 43 44 45 46 46 48 43 40 40 42 41 40 38 34 33 31 32 34 32 37 37 34 29 28 29 35 34 31 36 32 34 26 27 26 29 27 26 25 25 25 25 26
44 44 43 42 43 43 43 45 45 46 48 42 44 44 44 38 39 38 36 33 31 32 35 34 37 36 35 33 34 33 37 37 36 33 34 33 33 28 26 26 25 23 24 24 25 27 26
44 43 42 42 42 42 43 46 45 45 47 47 42 43 43 37 40 39 37 34 33 33 31 37 36 37 38 42 40 38 37 42 41 40 38 34 33 29 25 23 16 27 26 25 25 25 23
43 42 42 41 41 42 44 44 45 45 46 45 47 44 45 35 38 41 38 35 33 35 39 34 40 38 42 42 38 33 33 31 33 35 36 39 33 29 23 23 25 25 21 21 24 26 29
41 41 41 41 42 43 43 43 44 45 45 46 44 49 46 42 38 39 40 37 34 38 37 42 46 47 47 42 34 29 28 30 30 29 35 36 36 30 28 20 16 25 25 27 29 26 31
41 41 42 42 43 43 43 43 44 45 44 46 44 48 45 44 46 41 38 37 37 39 41 45 44 42 44 34 32 29 29 32 29 27 26 29 29 25 22 21 24 29 27 30 18 22 33
42 42 42 43 43 43 43 44 44 44 45 45 45 49 44 43 46 49 41 37 37 41 40 43 43 42 40 34 33 31 27 31 31 33 30 28 28 24 28 22 19 33 29 25 30 35 36
42 43 44 44 43 44 44 44 44 45 45 46 43 48 49 44 46 48 48 49 45 43 46 45 42 42 44 40 37 36 31 29 30 29 36 28 30 29 30 29 34 36 34 37 38 38 40

GFSGBSN_sfc_dewp_045.txt.gz
Dewpoint
53 53 54 55 56 56 55 57 57 59 58 58 57 57 57 57 57 56 56 55 55 55 55 54 55 54 49 42 33 43 58 60 51 34 27 26 30 30 27 21 17 15 15 35 41 44 43
53 54 54 54 55 54 53 55 57 57 58 58 57 56 56 56 56 56 55 55 55 55 55 54 54 53 47 30 31 48 45 41 37 33 29 29 30 30 28 23 24 27 37 42 42 41 40
51 53 54 54 54 54 54 55 56 56 56 58 58 57 56 56 56 55 55 54 54 54 55 54 54 50 46 28 43 37 40 37 37 33 26 31 32 30 31 25 29 30 36 39 40 39 33
50 53 53 53 53 54 54 54 54 56 56 57 58 57 56 56 55 54 54 53 54 54 54 54 52 48 42 42 45 46 40 35 36 34 28 31 31 31 31 28 28 22 33 35 37 38 35
51 51 52 52 53 53 53 54 54 55 56 56 57 57 56 55 54 54 53 54 54 54 54 54 47 47 41 45 43 43 37 33 34 32 31 28 33 31 30 28 25 23 24 26 33 36 33
50 52 52 51 52 52 53 53 54 54 55 55 56 57 56 55 54 53 53 53 53 53 52 50 48 36 36 32 38 35 37 33 34 34 34 34 31 29 29 26 23 23 21 27 30 31 34
51 52 50 52 52 52 53 52 53 54 54 55 56 56 57 55 54 53 51 48 43 46 47 38 31 27 30 37 37 33 32 31 37 34 30 38 30 28 29 30 27 26 25 24 25 25 32
51 51 51 52 51 51 51 52 52 53 54 54 54 56 56 55 54 53 50 43 41 43 38 44 43 41 40 42 39 33 28 25 33 30 38 34 30 32 33 34 29 29 27 24 25 25 32
51 50 50 51 52 51 51 52 51 52 53 54 53 55 56 55 53 51 48 45 45 45 36 41 45 43 43 43 40 35 27 32 32 34 34 30 29 34 33 31 28 28 27 26 25 24 27
48 50 49 50 50 51 50 51 52 51 52 53 52 53 55 53 49 48 48 49 48 46 36 36 43 43 42 38 28 32 28 33 34 30 33 31 32 34 31 30 29 26 27 28 27 25 20
46 47 50 50 49 49 49 49 51 51 51 52 52 53 54 52 47 47 49 48 48 48 14 25 40 40 34 26 28 28 28 31 30 32 32 28 32 31 30 29 30 27 30 28 28 25 24
46 46 48 50 49 49 49 49 50 51 51 51 52 52 54 52 50 48 49 51 51 35 20 31 36 34 26 27 28 25 26 28 33 34 32 28 35 32 29 30 30 30 29 29 31 27 22
46 45 46 48 50 48 48 49 48 49 50 50 52 52 53 51 45 51 51 52 40 31 28 30 30 29 25 25 26 27 23 22 26 26 27 29 30 33 35 30 32 28 27 24 22 23 21
46 45 45 45 47 49 48 48 48 48 50 49 50 51 53 51 50 49 53 47 33 32 32 36 29 27 23 26 26 25 22 21 22 26 27 25 22 29 32 30 29 30 26 25 17 21 20
47 46 45 45 47 49 47 48 49 47 49 49 50 50 51 53 51 48 49 39 31 34 34 25 27 25 25 25 25 24 23 21 21 23 21 26 25 34 34 34 29 30 27 28 29 29 25
47 47 45 45 46 47 48 47 48 48 47 49 45 46 47 52 52 47 43 36 36 37 38 37 25 27 24 24 24 24 23 23 22 24 25 28 24 32 34 34 32 29 28 24 27 18 20
47 47 46 45 44 46 48 47 48 48 48 49 45 41 45 51 51 42 35 36 37 37 38 39 35 31 27 25 24 24 23 23 25 25 26 33 26 27 33 30 26 27 25 26 26 26 21
47 46 46 45 44 45 47 47 46 48 47 47 41 36 49 51 42 40 33 37 38 36 40 40 40 38 34 27 25 24 24 23 25 33 27 33 29 25 26 31 33 29 28 26 25 20 26
48 46 46 45 45 46 46 46 46 47 47 45 38 39 50 47 37 36 36 34 37 36 36 37 38 38 36 29 24 27 27 33 38 31 32 34 29 24 23 26 31 28 29 31 31 28 25
48 46 45 45 45 47 46 46 45 45 47 46 40 35 44 45 39 35 34 35 36 38 37 38 39 41 37 32 30 29 32 36 38 34 40 36 31 26 22 23 28 27 28 28 29 26 24
48 46 45 44 45 47 45 45 45 45 46 46 40 33 39 38 38 38 35 34 35 34 37 37 34 38 38 34 29 31 36 36 37 37 37 32 26 27 26 24 27 26 27 29 25 25 24
48 46 45 44 46 46 45 45 45 44 45 43 36 39 40 38 38 37 36 32 33 35 36 34 33 37 34 35 32 30 34 34 33 34 32 33 27 25 29 28 26 25 25 26 26 25 25
47 46 45 45 45 45 45 44 44 44 45 42 40 43 41 37 36 35 33 32 32 35 36 35 35 37 37 37 37 33 36 36 34 33 32 31 31 26 21 26 25 23 25 25 25 26 26
46 46 45 44 45 45 44 43 44 44 43 44 39 43 42 33 37 34 33 34 33 34 32 35 34 33 38 41 40 38 38 40 39 38 36 33 30 27 24 24 17 24 28 26 25 25 24
45 45 45 44 44 44 43 43 44 44 44 42 42 44 43 33 36 36 36 34 34 34 33 32 35 31 43 41 36 33 32 32 31 37 38 36 32 27 24 24 24 25 25 24 23 23 28
45 44 44 44 43 43 43 43 44 45 44 44 44 47 45 40 37 38 37 36 34 33 33 34 38 43 44 40 33 29 30 31 29 30 35 33 34 30 25 21 18 27 27 26 28 24 29
45 44 44 43 43 43 43 43 43 45 45 44 45 47 45 39 42 41 39 37 36 35 35 38 40 43 44 35 31 29 28 33 28 27 26 29 29 27 23 21 25 27 28 28 18 21 33
44 43 43 42 42 41 42 43 45 45 45 44 44 47 44 40 42 45 45 40 39 36 35 41 42 42 37 34 33 32 28 32 29 30 28 30 28 24 25 18 21 30 28 22 27 34 35
42 42 42 41 41 42 43 43 44 44 45 45 42 47 49 43 43 45 44 44 44 43 38 44 40 42 42 38 36 35 31 29 30 28 34 26 31 30 29 28 32 36 31 36 36 36 37

GFSGBSN_sfc_dewp_048.txt.gz
Dewpoint
53 52 54 54 53 54 54 55 56 57 57 58 58 57 57 57 57 57 56 55 55 55 55 55 55 55 49 37 27 40 60 59 50 38 26 28 28 29 26 24 20 17 16 31 38 43 43
52 53 54 53 54 53 52 54 55 55 56 57 58 57 57 57 57 56 55 55 54 54 55 55 55 54 46 25 26 45 48 40 35 32 30 28 30 30 29 27 24 32 40 40 41 42 41
52 52 53 52 54 53 54 54 55 54 55 56 57 58 57 57 57 56 55 54 54 54 54 54 54 50 45 24 45 38 40 37 36 33 27 29 31 29 30 27 29 31 37 39 40 39 37
51 52 52 52 52 53 53 53 54 54 54 55 56 57 57 57 56 55 54 54 53 54 54 54 52 48 40 39 44 45 43 40 37 35 29 27 32 31 30 28 28 28 33 33 38 38 35
51 52 52 51 52 52 52 53 53 54 54 54 55 55 56 56 55 55 54 53 54 54 54 54 48 46 35 42 37 39 41 35 35 34 30 28 32 30 30 27 25 23 22 27 33 36 34
52 51 52 51 51 52 51 52 51 52 53 53 54 55 55 56 55 54 53 53 53 52 52 51 48 39 28 31 37 37 40 35 34 34 32 34 32 29 30 26 21 23 22 21 31 31 34
49 52 51 52 51 52 51 51 51 50 52 54 54 55 55 56 55 53 51 46 39 44 47 40 35 25 25 37 41 34 34 32 36 32 29 37 30 27 28 29 27 26 25 22 25 26 33
49 49 50 51 51 52 51 51 51 52 52 53 54 54 54 56 55 53 49 42 41 43 40 42 42 39 38 42 41 38 31 28 31 28 36 33 29 30 31 33 31 28 26 24 25 26 29
48 48 49 49 51 50 51 51 51 51 51 51 53 53 53 55 54 51 47 44 46 48 39 36 42 42 41 43 39 38 27 30 31 32 34 29 28 34 33 30 28 26 25 25 25 26 28
47 47 46 48 49 51 50 50 50 50 51 48 51 52 52 54 50 48 46 49 49 48 32 32 41 43 43 43 34 38 28 31 33 28 33 31 32 32 32 29 27 25 27 27 25 25 21
48 47 46 47 49 50 49 48 50 50 51 50 50 52 52 53 47 47 48 48 50 46 14 23 41 42 42 29 28 29 29 31 29 31 30 27 31 32 30 28 29 26 29 28 28 25 24
48 47 47 46 46 48 50 48 49 49 50 51 50 51 52 53 51 48 49 51 50 34 18 23 37 34 30 27 27 26 26 32 33 34 32 28 34 31 29 30 30 30 29 28 30 26 21
48 48 47 47 46 46 49 49 48 48 49 50 50 51 52 52 48 49 50 50 40 29 26 27 34 30 25 25 25 24 24 27 26 24 26 28 29 32 35 30 31 28 26 23 21 23 21
47 48 48 47 46 46 48 50 48 48 48 49 49 49 51 51 51 48 50 46 33 32 30 34 30 28 23 25 24 26 22 21 23 26 26 24 21 29 32 29 27 28 26 24 17 20 19
48 47 48 47 47 46 47 48 49 48 48 49 49 47 46 48 52 48 46 37 32 32 34 28 27 25 23 24 24 23 23 22 22 26 21 25 23 32 34 33 28 29 26 28 28 28 25
48 48 48 47 47 46 46 47 49 48 48 48 47 45 42 50 53 48 41 35 35 35 38 38 24 26 24 24 23 23 23 24 22 25 26 26 22 31 32 33 32 28 29 23 26 19 19
47 47 48 48 47 46 45 46 48 48 47 48 45 39 40 51 52 45 36 34 36 37 38 37 37 34 27 25 24 24 24 24 25 25 25 30 23 23 32 29 27 28 26 26 25 25 20
47 47 47 48 47 46 45 46 47 47 47 46 43 33 45 51 40 41 35 35 37 37 38 37 40 38 36 28 26 24 24 23 25 29 23 31 27 21 24 29 31 27 27 27 25 20 25
48 47 47 47 47 46 45 46 47 48 46 43 38 35 48 45 32 33 36 35 36 36 36 37 37 38 38 31 24 27 27 28 32 28 29 32 25 20 20 25 30 28 29 29 29 27 24
48 47 47 48 47 46 45 45 46 47 46 44 39 31 42 43 35 33 33 35 32 37 36 37 38 40 37 32 31 27 27 33 38 32 39 34 29 22 19 20 26 28 27 31 29 26 25
46 47 47 48 47 46 45 46 46 46 47 45 40 31 37 34 34 34 33 34 32 31 36 37 36 37 36 32 30 28 34 36 36 39 35 31 25 27 25 24 27 26 27 28 26 26 24
46 46 47 48 47 46 45 45 46 45 46 42 36 36 39 36 33 34 35 32 32 32 35 33 34 35 37 36 34 29 35 34 32 33 33 32 26 24 28 27 26 25 26 28 27 26 25
46 46 47 48 47 46 45 45 45 45 46 41 42 40 39 35 34 32 31 32 32 34 34 37 34 34 35 35 35 35 36 36 35 33 32 30 29 25 22 25 24 23 25 25 25 27 26
46 46 48 48 47 46 45 45 45 44 44 43 43 39 37 32 35 32 31 33 32 34 33 34 37 35 36 41 40 39 38 37 36 38 36 31 28 26 23 23 16 24 28 27 27 26 25
46 46 47 47 46 46 45 45 44 43 44 41 44 41 40 31 35 34 33 32 34 34 34 34 35 36 37 38 36 33 32 32 32 37 37 35 30 27 23 23 23 24 25 25 23 21 26
45 46 47 46 46 45 45 45 43 44 44 41 42 43 43 39 34 35 35 34 32 33 33 35 37 38 41 39 34 30 30 31 30 30 34 32 32 28 23 20 17 25 27 26 25 21 29
45 47 46 46 46 45 45 45 43 44 44 41 41 45 43 39 42 38 36 34 35 34 33 34 36 41 40 31 29 31 30 34 28 29 29 29 28 24 21 21 26 30 27 27 19 23 31
46 46 46 45 45 44 44 43 43 44 45 42 40 43 43 39 41 45 43 38 36 35 33 36 35 38 37 33 34 33 27 32 30 31 31 31 28 24 24 20 24 29 27 23 28 33 33
45 45 44 45 44 44 44 43 43 44 44 43 39 42 43 43 42 44 44 43 42 41 37 39 37 39 38 38 34 32 28 27 30 28 32 29 32 30 30 30 32 32 29 31 33 34 34

GFSGBSN_sfc_dewp_051.txt.gz
Dewpoint
52 51 52 51 53 52 52 51 53 55 55 55 56 58 59 58 58 57 56 55 55 55 55 55 55 55 49 32 26 45 61 59 50 41 26 27 26 28 25 25 22 19 18 27 32 42 43
52 51 52 51 51 51 52 53 53 54 55 55 55 56 58 58 58 57 56 55 55 54 54 55 55 54 44 23 31 49 51 43 37 31 28 28 29 30 28 27 24 26 40 40 42 42 42
52 52 52 53 51 50 51 52 53 53 54 54 55 56 56 57 58 57 56 55 55 54 54 54 54 50 44 27 42 39 39 37 34 32 27 28 30 29 29 28 28 29 36 39 40 39 37
52 52 52 52 53 52 52 50 52 51 53 54 54 55 55 55 56 56 56 55 54 54 54 54 53 49 38 37 42 44 44 41 38 35 27 28 32 30 30 31 28 29 32 32 37 38 35
50 50 52 52 51 52 51 51 52 51 52 53 53 53 54 54 55 55 55 54 54 54 54 54 49 47 33 39 32 34 41 36 36 35 33 28 32 31 31 28 26 25 23 27 33 37 34
47 49 51 52 51 51 51 52 51 51 52 52 52 53 53 54 54 55 54 53 53 52 52 51 48 40 34 27 36 39 43 36 34 34 32 34 33 30 31 27 21 24 22 22 27 33 35
46 46 49 50 51 52 49 51 51 51 51 52 52 53 54 54 54 55 52 47 38 43 48 42 38 33 21 34 42 36 36 35 35 33 31 37 31 28 30 30 27 25 25 22 24 30 28
48 49 49 49 50 50 52 48 51 51 51 51 51 52 53 54 55 54 51 45 40 45 42 43 42 41 38 41 39 39 34 32 33 28 35 34 32 32 30 32 30 28 26 25 25 26 29
49 48 49 48 48 49 50 51 50 51 50 51 50 50 52 52 54 52 49 45 47 48 43 39 41 40 39 40 38 38 31 32 30 32 34 31 29 33 32 30 28 27 26 25 24 26 28
49 49 48 48 48 48 49 50 50 50 50 50 50 48 51 52 50 49 46 48 50 50 35 31 37 40 43 42 36 39 30 33 33 29 34 32 32 32 32 30 29 26 27 27 25 25 21
48 49 49 48 48 47 46 48 51 49 50 49 50 48 51 53 48 47 47 50 51 48 21 26 41 42 43 34 30 34 31 33 32 32 32 30 32 32 31 30 30 28 28 28 27 26 25
48 48 48 49 48 47 47 47 49 50 49 49 50 49 50 51 52 50 51 52 51 38 24 21 38 38 38 32 27 28 28 35 34 34 32 29 33 32 31 30 31 30 29 29 29 27 24
48 48 48 48 48 48 47 47 48 49 49 49 49 50 50 52 47 50 51 50 39 31 29 23 34 32 31 27 27 27 27 31 28 28 30 28 29 32 34 30 30 28 26 25 24 25 24
48 48 48 48 48 48 47 47 47 48 49 49 48 50 49 48 51 50 51 43 32 31 29 31 30 30 26 25 26 26 26 26 26 25 25 22 21 29 33 30 29 29 27 28 18 21 21
49 48 48 48 48 48 48 47 46 47 48 48 48 48 48 48 51 52 46 36 30 32 32 30 27 26 25 25 26 26 27 25 25 29 24 27 24 29 33 33 30 29 28 29 28 29 28
48 49 48 48 48 48 48 47 46 47 49 48 45 45 43 48 51 49 41 33 36 34 37 38 28 28 25 24 25 25 26 26 25 29 31 30 24 31 32 33 32 29 30 27 28 22 20
47 48 48 48 47 47 48 47 46 48 48 48 44 39 40 47 50 44 34 32 35 36 38 36 36 36 28 26 26 26 25 25 26 26 28 30 28 26 32 30 28 29 28 28 27 26 21
45 46 47 48 48 47 48 48 47 48 48 47 41 32 42 46 38 37 33 34 36 34 39 37 39 39 37 30 27 27 26 26 26 29 26 33 32 27 27 29 30 30 30 30 30 24 27
45 45 45 47 48 48 47 48 46 47 48 44 37 37 44 43 30 32 34 34 35 36 36 37 37 39 39 35 27 29 29 32 32 29 32 33 28 23 21 25 31 29 29 29 30 30 26
45 45 45 46 47 48 48 48 46 46 47 45 38 32 40 41 34 29 32 32 33 35 35 37 38 39 38 35 34 30 30 33 35 32 40 35 30 27 21 22 28 30 29 30 30 29 28
45 45 45 45 47 48 48 48 46 46 46 44 39 33 37 32 32 30 32 31 31 32 34 37 36 35 37 32 33 30 34 37 37 41 36 36 28 29 25 22 27 28 28 30 27 29 29
45 45 45 45 46 48 48 47 46 46 46 41 36 35 37 35 32 31 32 31 31 31 32 32 34 37 36 35 35 33 34 35 35 36 36 34 30 30 27 27 26 26 27 28 28 27 27
45 45 45 45 46 47 48 47 46 46 46 40 42 39 34 35 33 30 30 30 32 34 33 33 34 35 37 37 37 38 38 38 38 36 34 33 32 29 25 26 26 28 28 28 29 29 29
45 46 45 45 46 48 48 46 46 46 46 43 43 39 36 30 34 30 28 32 32 33 32 34 36 33 37 42 42 41 38 38 38 38 37 33 32 30 29 27 25 27 28 28 29 28 28
46 45 46 46 46 48 47 46 46 45 45 44 43 41 38 30 33 32 31 29 34 36 34 33 37 39 39 38 37 33 35 35 35 37 36 35 32 29 30 26 26 24 26 28 27 23 28
43 44 46 45 46 47 46 46 45 45 45 44 43 44 42 34 32 34 33 31 31 33 34 36 40 41 42 38 33 29 31 33 32 32 34 32 33 34 27 27 25 30 27 28 26 24 29
45 46 45 46 47 46 46 45 45 45 45 42 43 46 42 38 40 38 35 33 33 35 34 37 36 38 40 34 33 31 31 35 32 31 32 31 31 30 27 31 29 30 28 30 26 28 32
46 45 45 46 46 46 45 45 45 45 45 41 42 45 42 38 39 41 42 38 36 34 33 36 37 38 38 33 34 34 33 35 34 33 33 32 31 31 29 31 27 32 27 28 35 32 34
45 45 46 46 46 45 45 44 45 44 44 42 39 44 44 40 41 44 44 44 41 37 36 39 36 37 38 38 37 36 35 34 34 31 33 32 34 33 32 34 37 33 35 33 34 35 36

GFSGBSN_sfc_dewp_057.txt.gz
Dewpoint
52 53 53 52 53 52 52 52 53 54 53 53 54 54 53 54 56 58 57 57 57 57 57 56 56 56 49 35 28 42 60 58 39 36 28 21 21 22 20 18 20 19 17 20 25 24 29
51 52 52 54 53 52 50 52 53 52 52 52 53 54 54 53 55 57 57 57 57 57 57 56 56 55 44 32 24 31 43 45 36 34 26 20 17 22 25 22 21 23 21 27 29 26 30
49 50 51 52 53 53 52 52 52 52 51 52 52 53 53 52 53 55 55 55 56 56 57 56 55 49 40 34 30 31 40 36 33 29 22 21 27 28 27 24 23 24 23 29 33 30 31
48 48 49 50 51 52 53 52 52 52 51 51 52 52 52 52 52 53 54 54 55 56 56 55 54 47 39 33 30 33 36 34 31 27 26 25 28 31 29 26 24 21 23 24 43 41 30
49 48 48 49 50 50 52 53 52 51 51 51 51 51 51 52 52 52 54 54 55 57 54 54 51 46 35 40 30 28 34 33 32 31 31 27 29 29 27 22 18 21 18 26 32 34 30
48 50 50 50 50 50 50 50 52 52 51 50 51 50 50 51 52 52 53 55 55 53 52 49 45 42 37 27 23 21 28 36 33 33 31 31 28 27 23 17 14 14 19 19 28 35 26
47 49 49 51 51 50 50 49 49 51 52 51 50 50 50 50 51 53 54 48 46 47 46 33 31 25 24 25 33 25 26 36 32 32 28 29 25 22 20 21 21 20 19 17 30 35 28
48 48 47 49 50 51 49 49 48 50 52 51 50 50 50 50 51 52 54 41 38 45 34 33 36 34 35 34 31 25 33 31 31 28 27 27 26 23 24 24 23 20 19 18 18 22 24
48 48 48 48 48 49 50 50 49 49 50 51 51 50 50 50 49 50 48 42 45 48 37 26 28 29 30 31 32 25 32 30 28 27 25 25 24 25 26 24 24 23 22 19 19 23 24
49 49 49 49 49 49 49 50 50 49 49 50 51 50 50 50 46 43 43 44 45 50 32 14 31 32 31 30 30 28 29 28 27 26 25 25 24 25 25 25 25 23 22 21 23 21 17
49 49 49 49 49 49 48 49 50 50 49 48 50 50 50 49 45 43 41 47 51 51 10 16 26 34 30 29 18 26 28 27 25 25 25 23 22 26 26 25 25 22 26 24 23 21 22
49 49 49 49 49 49 48 48 49 49 49 48 50 50 50 47 45 46 49 52 52 32 12 16 32 32 34 30 20 21 26 27 25 24 24 23 24 24 24 26 27 25 27 26 27 25 22
49 49 49 50 49 49 49 48 49 49 49 48 49 49 49 44 41 45 50 51 29 17 9 9 26 31 31 29 25 24 25 24 21 23 24 22 24 25 27 25 28 27 25 25 27 23 22
49 49 49 49 50 49 49 49 48 49 49 48 49 49 48 46 45 48 50 43 20 10 11 21 20 30 28 26 26 26 25 21 23 22 21 20 19 23 26 24 24 27 25 26 24 26 23
50 49 49 49 49 49 49 49 48 49 48 48 49 46 47 48 48 49 42 34 23 12 5 10 21 28 27 24 24 24 24 21 22 23 21 20 19 20 21 23 22 24 26 26 26 29 28
49 50 49 49 49 49 49 49 49 49 48 48 44 41 40 49 50 46 38 33 25 15 9 14 13 25 25 24 22 23 24 21 21 22 24 21 21 20 22 24 25 26 28 26 27 25 24
49 49 49 49 49 49 49 49 49 49 48 48 45 40 39 46 49 43 32 30 31 18 12 11 17 16 23 27 21 23 22 21 22 22 23 23 23 24 28 27 24 27 27 27 25 25 27
48 49 49 49 49 49 49 49 49 48 48 47 43 35 41 48 36 37 32 30 32 27 24 19 26 29 16 25 25 23 23 23 25 25 24 25 25 26 25 23 23 27 27 27 27 26 28
48 47 47 46 48 48 48 49 49 48 48 45 39 38 46 44 31 34 30 28 24 27 24 21 28 30 30 30 28 26 25 28 28 27 27 27 24 24 22 25 26 24 28 27 28 28 30
45 45 45 46 46 46 49 48 48 48 48 46 39 32 39 42 36 32 27 25 22 30 28 23 28 28 28 30 32 29 26 30 32 29 38 34 25 24 23 21 22 23 23 24 25 30 26
45 45 45 45 45 45 46 49 48 48 48 45 38 36 37 32 34 32 28 22 19 23 29 28 26 27 28 29 30 32 30 32 32 36 32 32 25 24 21 20 18 18 20 21 21 22 24
45 45 45 45 45 45 46 46 47 48 49 43 35 32 36 32 35 32 29 24 18 20 21 26 29 30 27 26 29 30 32 31 30 32 31 30 28 26 23 21 19 17 15 15 16 18 18
45 45 45 45 45 45 45 45 45 46 48 42 41 34 34 32 34 31 30 25 20 23 23 20 26 28 29 28 36 37 37 37 34 34 32 31 30 27 27 22 21 27 21 18 18 19 20
46 46 46 46 46 46 45 45 45 45 47 44 44 34 36 29 35 29 27 25 21 20 23 23 24 28 32 35 37 36 37 33 37 34 34 35 32 31 32 33 30 25 23 22 22 21 20
45 46 47 47 47 46 45 45 44 45 46 45 41 37 35 36 29 27 26 26 24 24 27 23 25 26 39 36 32 28 29 32 30 34 32 35 36 35 34 29 25 21 25 25 23 21 22
46 45 45 46 46 46 45 45 44 45 45 46 44 41 38 34 28 26 26 26 25 26 27 30 28 32 37 36 31 24 16 15 16 27 31 33 36 39 35 29 27 27 25 26 26 28 25
45 45 45 45 45 45 45 45 44 45 46 45 45 47 40 33 29 30 33 29 28 27 28 30 30 36 39 37 36 30 21 13 16 22 35 37 37 38 36 32 28 25 25 26 28 30 27
45 45 45 45 45 45 45 44 45 45 46 45 46 45 39 35 32 32 33 36 29 29 30 31 31 36 39 37 34 29 33 26 24 24 32 35 34 38 37 36 33 32 29 28 33 35 31
45 45 45 45 44 45 44 44 45 46 46 46 44 44 44 42 40 43 44 44 41 32 29 35 34 34 33 33 36 35 39 41 29 30 25 32 34 36 33 33 35 36 35 34 33 32 35

GFSGBSN_sfc_dewp_060.txt.gz
Dewpoint
50 50 51 52 54 53 51 53 53 52 53 52 50 53 52 52 52 54 57 56 57 57 58 58 57 57 50 38 35 48 60 56 37 33 30 24 20 20 20 18 17 17 18 15 17 21 19
49 50 50 52 52 52 53 53 53 53 52 51 51 50 53 53 52 53 55 55 55 56 57 57 57 56 49 38 34 35 38 46 35 33 30 25 19 17 19 20 20 20 19 18 32 34 33
48 50 50 51 52 52 51 53 53 52 52 51 49 51 50 52 53 53 52 53 54 55 56 57 57 52 47 42 35 32 32 39 35 33 28 24 20 18 26 24 23 21 19 22 35 33 34
49 49 49 50 51 51 52 52 53 53 52 51 51 51 49 49 52 52 52 52 53 55 56 57 55 50 40 35 35 34 32 33 32 30 26 23 21 26 26 28 24 21 20 19 36 31 30
49 49 50 51 50 51 51 51 52 52 53 52 51 50 50 50 50 52 51 52 53 55 56 56 51 48 34 39 35 32 28 29 30 28 26 24 26 28 27 24 21 19 16 18 31 35 35
47 49 50 50 52 51 51 51 51 52 52 53 52 50 50 50 50 51 51 52 52 55 53 50 47 39 37 23 27 30 27 28 30 30 26 28 26 25 24 22 16 16 14 18 24 34 34
47 47 49 49 50 50 51 51 50 50 51 51 52 51 50 50 50 51 48 47 44 50 49 40 32 29 23 29 27 21 24 27 32 30 26 27 24 22 23 23 21 20 18 17 27 28 27
48 49 48 48 49 49 48 50 50 50 50 52 52 52 51 50 50 50 46 44 30 44 37 31 38 37 34 32 31 29 20 28 32 27 28 26 26 23 22 21 23 22 15 15 19 26 28
50 50 50 49 49 49 48 48 48 50 50 50 51 51 51 50 50 47 42 43 42 43 38 28 21 18 20 28 30 29 22 27 29 26 27 26 24 26 21 22 22 21 19 18 19 27 24
49 49 50 50 50 50 49 49 50 49 50 50 51 51 50 50 45 42 39 43 43 47 35 13 11 22 17 21 26 29 26 27 26 25 25 24 24 24 24 23 21 23 21 20 17 23 16
50 50 50 50 50 50 50 49 49 49 50 50 50 51 50 49 43 43 46 48 46 50 11 7 13 29 26 22 23 25 28 28 26 25 25 25 23 22 24 21 23 23 25 25 23 19 21
49 50 50 50 50 50 50 50 49 49 49 50 50 50 50 48 46 44 46 48 50 35 12 12 30 28 27 26 23 23 26 26 27 25 25 23 23 21 21 25 23 25 24 25 25 22 23
49 50 50 50 50 50 50 50 49 49 49 49 49 50 48 45 43 43 51 48 32 19 4 5 25 29 26 27 25 24 25 25 24 24 25 22 21 21 23 22 26 25 24 24 29 26 25
49 50 50 50 50 50 50 50 50 49 49 49 49 49 47 41 46 46 49 42 24 14 15 13 14 25 27 28 27 26 22 21 25 21 22 21 21 20 24 25 23 25 25 27 23 30 29
49 49 49 50 50 50 50 50 50 49 49 49 49 46 45 44 46 50 43 32 24 17 11 12 12 17 26 26 26 26 23 23 22 24 22 23 21 20 23 24 23 23 27 26 27 34 33
49 49 49 49 49 50 49 49 50 50 49 49 47 41 42 45 50 47 38 30 26 20 16 13 10 17 22 26 24 25 23 24 23 24 25 25 23 24 20 23 24 22 21 27 27 27 25
48 49 49 49 49 49 49 49 50 50 49 48 45 40 40 46 50 42 32 29 28 20 20 20 17 13 12 19 24 23 23 24 25 22 24 26 27 25 21 21 20 21 23 29 28 27 28
48 48 48 48 49 49 50 49 49 49 49 48 43 35 42 46 37 38 31 31 30 22 21 24 25 19 19 19 26 29 22 25 24 24 24 27 28 25 22 22 23 23 26 26 29 26 30
47 48 49 48 49 48 49 49 49 49 49 46 39 39 44 43 30 32 33 29 29 26 21 19 23 23 24 24 28 27 32 27 30 26 27 28 27 25 22 25 25 23 25 29 29 29 29
48 46 46 47 48 47 46 48 49 49 49 46 39 33 39 42 34 32 30 29 28 27 24 19 24 23 24 30 33 30 30 29 34 27 40 36 28 26 25 28 25 24 23 26 31 34 30
45 45 45 45 46 46 47 47 50 49 49 46 39 35 36 32 33 32 29 25 26 23 24 23 22 23 24 31 32 32 32 33 30 36 32 34 30 29 25 21 22 22 21 20 19 30 33
45 44 44 44 45 45 46 46 47 49 49 44 33 37 34 29 33 32 31 27 24 23 20 20 23 26 26 31 33 33 35 37 35 30 31 32 29 29 27 23 21 23 23 19 19 19 20
44 44 45 45 45 45 45 45 46 48 48 43 41 39 35 32 33 31 30 29 26 27 24 18 21 26 28 30 36 45 45 43 36 32 34 33 32 30 28 26 23 24 23 20 19 21 21
45 45 46 45 46 46 45 45 45 46 48 42 41 37 37 31 32 32 28 29 27 26 25 20 22 26 27 32 44 43 42 40 39 35 36 34 33 32 32 33 25 26 26 22 22 21 19
46 46 46 46 46 46 45 45 45 45 47 45 44 39 35 35 30 30 29 27 29 29 27 25 22 23 28 41 37 37 37 36 33 35 34 35 36 37 33 29 28 25 25 25 24 23 23
46 46 46 46 46 46 46 45 45 45 45 45 44 43 39 35 32 29 28 28 28 28 28 28 28 30 35 38 37 32 30 26 30 26 35 36 37 37 37 29 27 31 29 26 28 26 26
45 46 46 45 45 45 46 46 45 45 45 45 43 46 43 36 35 32 30 30 30 29 29 29 29 37 42 37 34 31 27 21 19 25 32 35 37 35 35 34 33 29 29 29 27 30 34
45 45 45 45 45 46 46 46 46 45 45 44 42 46 44 39 36 38 37 36 32 31 30 30 30 35 39 36 35 32 34 26 20 17 33 35 35 35 36 35 32 34 30 27 34 38 39
45 44 44 45 45 45 46 46 46 45 45 44 41 46 47 44 41 43 43 44 39 40 37 33 33 37 38 37 35 35 40 38 28 28 22 29 33 36 36 35 40 41 37 39 41 41 40

GFSGBSN_sfc_dewp_063.txt.gz
Dewpoint
50 50 51 51 51 52 52 53 53 53 50 49 49 49 50 52 52 53 53 53 54 55 55 56 57 58 53 45 41 49 58 56 43 35 32 28 26 23 19 21 21 20 19 18 26 29 32
49 50 51 51 50 50 51 52 53 54 53 52 51 48 49 49 52 53 53 52 52 53 54 55 57 57 52 43 41 46 49 46 37 32 31 30 26 22 19 20 23 22 22 20 27 31 34
52 51 51 51 51 51 51 52 53 52 53 53 52 51 49 48 49 51 52 52 52 52 54 55 56 55 49 44 40 38 38 39 43 36 32 32 28 23 21 26 28 27 23 23 30 30 28
48 49 50 52 51 51 51 52 52 52 52 53 53 52 51 50 50 49 51 51 51 52 54 55 56 52 45 42 41 42 39 38 37 38 34 33 28 23 29 28 26 25 23 20 25 33 32
48 48 49 50 50 52 51 51 52 52 52 52 52 52 51 50 50 50 50 51 51 52 53 55 53 50 44 43 39 37 34 33 32 34 32 26 26 28 29 27 25 25 20 19 26 34 33
47 47 49 50 50 50 51 52 51 52 52 52 52 52 52 51 50 50 50 50 49 51 52 53 50 44 45 34 32 33 35 32 31 31 30 26 26 26 26 25 21 22 21 17 27 32 33
46 48 47 49 49 50 48 50 50 51 52 51 52 52 52 52 51 50 48 44 44 48 49 45 43 36 30 31 33 28 32 28 29 31 28 27 25 23 24 25 24 23 20 19 26 31 33
48 48 48 48 49 48 48 48 49 49 51 51 51 52 52 51 51 50 47 41 43 42 40 44 46 43 41 39 34 32 26 26 28 26 29 27 24 25 25 24 24 24 22 18 23 30 28
49 49 49 49 49 49 49 49 49 49 49 51 50 51 51 51 50 47 42 41 42 40 40 36 35 31 28 32 35 32 29 24 27 29 29 26 26 27 26 24 23 23 21 21 21 27 26
49 49 50 49 49 50 50 50 50 49 49 49 51 50 50 50 45 42 40 46 46 43 38 27 19 26 24 18 27 30 30 21 28 29 29 27 28 27 25 24 23 21 24 25 23 24 22
49 49 49 50 50 50 50 50 50 50 50 50 50 50 50 50 44 42 43 45 45 48 12 11 13 22 20 17 23 26 28 27 22 28 28 26 27 26 25 24 25 23 29 29 28 25 23
48 49 49 50 50 50 50 50 50 50 50 50 50 50 50 47 46 44 44 44 49 36 24 16 27 27 24 17 17 24 25 27 29 26 26 26 26 25 24 24 26 26 27 27 27 26 22
48 49 49 49 50 50 50 50 50 50 50 50 50 49 48 43 41 44 48 47 35 27 5 2 29 28 27 23 17 19 25 23 23 25 25 25 24 25 24 23 27 26 26 25 26 26 23
49 49 49 49 50 50 50 50 50 50 50 50 49 49 48 44 42 44 47 41 28 18 14 13 19 25 28 27 26 24 23 24 24 25 25 24 23 23 25 23 24 26 26 28 22 26 28
48 49 49 49 49 50 50 50 50 50 50 49 49 48 45 44 43 46 42 31 25 19 15 14 10 13 25 27 28 26 25 24 23 24 23 24 22 23 22 25 24 28 25 27 28 34 30
48 49 49 49 49 49 49 50 50 50 50 49 46 45 42 44 45 44 37 31 30 26 22 18 13 19 17 25 27 27 27 27 26 24 26 27 24 25 24 22 26 24 25 28 30 28 27
47 48 48 48 48 49 49 50 50 50 50 49 45 39 41 44 47 40 30 28 27 30 26 21 17 17 19 20 20 24 28 27 26 24 25 24 26 28 25 24 22 25 23 25 30 31 26
46 47 47 48 48 48 49 49 50 50 50 48 43 34 41 43 36 35 30 30 31 24 27 27 25 22 21 24 23 23 30 33 29 26 24 25 28 24 24 25 24 24 24 25 28 28 32
46 47 47 47 48 48 48 49 49 49 50 46 39 38 45 41 29 31 30 31 30 29 27 24 23 23 23 23 23 27 34 34 35 30 26 25 23 24 25 24 25 22 24 26 28 32 30
46 46 47 47 48 48 48 49 49 49 50 47 38 32 39 41 34 28 28 29 29 31 29 28 25 25 24 23 24 28 34 37 40 33 37 31 26 23 22 25 28 25 24 25 28 30 30
46 46 46 47 48 47 46 47 49 49 49 46 37 34 35 32 33 31 28 28 27 28 27 28 27 27 23 21 24 30 35 38 39 40 34 31 23 25 27 25 27 27 26 24 24 29 32
46 46 47 47 46 46 46 47 48 49 50 44 32 35 35 29 33 33 31 28 27 27 26 27 25 24 25 23 23 31 39 38 40 41 40 34 28 26 25 27 26 25 26 27 25 23 32
46 45 45 45 45 46 46 46 46 46 47 44 42 38 34 32 33 33 31 29 29 29 28 26 26 24 25 25 31 42 44 45 44 42 39 38 32 30 25 27 27 25 26 25 26 27 25
45 45 45 45 45 45 45 45 45 46 46 45 42 38 35 32 30 31 30 30 29 29 27 26 26 24 24 43 45 44 42 40 41 42 45 39 33 33 29 30 23 27 27 27 27 25 23
44 44 44 45 45 45 45 45 45 45 46 44 43 39 35 33 30 29 32 29 30 30 29 29 28 27 25 24 34 36 36 36 36 41 42 41 38 33 29 27 27 27 26 28 27 26 24
44 45 45 46 46 46 46 45 45 45 46 44 44 44 40 33 32 28 30 30 28 28 28 30 31 31 31 30 31 28 29 33 34 33 41 41 39 34 32 27 24 30 31 33 30 25 28
45 46 46 46 46 46 46 46 46 45 45 44 42 44 42 36 34 34 29 30 32 30 29 30 30 31 39 29 27 27 29 33 30 31 32 34 34 33 33 32 33 35 32 34 28 28 32
46 46 46 45 45 46 46 46 46 46 45 45 41 44 42 37 35 36 38 36 33 32 29 31 31 32 35 29 28 28 27 30 29 28 33 32 32 32 34 30 29 38 35 29 33 36 35
45 45 45 45 45 45 46 46 46 46 46 45 40 43 45 42 42 42 41 42 42 40 39 34 29 29 38 33 34 32 27 29 26 22 29 31 33 32 32 33 39 42 39 40 41 39 40

GFSGBSN_sfc_dewp_066.txt.gz
Dewpoint
50 50 50 50 50 51 51 51 53 54 54 53 52 51 51 49 49 49 52 53 53 52 52 52 54 57 54 47 43 45 57 56 45 34 30 28 27 26 22 19 20 20 21 21 21 28 35
51 52 51 51 50 50 49 50 52 53 52 53 53 53 52 51 51 50 49 51 52 52 52 52 54 56 51 42 37 40 49 44 35 31 31 31 27 26 22 20 23 26 26 26 23 29 33
48 49 50 51 52 52 51 52 52 52 53 52 53 53 53 52 52 51 51 51 51 51 52 51 53 53 47 43 43 37 38 40 42 34 31 32 31 29 25 22 28 27 25 24 23 29 30
48 48 49 50 51 51 51 52 52 52 52 52 53 53 52 52 51 51 51 50 50 51 51 52 53 53 43 45 45 44 44 42 39 40 35 35 34 29 24 25 26 25 27 21 25 30 30
47 48 48 50 50 50 51 51 52 52 52 52 52 53 52 52 51 51 51 51 51 50 51 53 52 49 43 47 43 42 38 34 36 37 38 35 34 26 27 26 24 26 21 22 23 29 31
47 47 49 49 49 49 50 50 51 52 52 52 52 52 52 52 51 51 50 50 48 50 50 51 51 44 43 30 35 35 36 34 33 34 34 30 25 24 26 24 20 21 22 20 19 27 33
46 45 47 48 50 49 48 49 49 50 51 52 51 51 52 52 52 51 49 42 39 43 48 45 44 39 29 35 38 33 34 33 31 31 27 28 23 21 23 25 25 24 24 23 22 29 32
46 45 46 47 48 49 50 49 50 50 50 50 51 51 51 51 51 51 47 41 39 38 34 39 44 45 42 40 39 37 33 28 28 26 30 28 24 24 26 27 26 25 23 22 21 29 31
46 46 46 47 48 49 49 50 50 50 50 50 50 51 50 51 51 47 44 40 40 42 38 36 37 38 42 41 41 37 32 27 26 26 27 27 27 26 26 25 24 24 23 23 21 22 27
46 47 48 48 48 49 50 50 50 50 50 50 50 50 50 50 45 43 40 44 44 44 32 27 30 29 30 29 30 29 28 26 26 23 26 29 29 27 26 24 25 24 25 25 25 26 22
45 47 48 48 49 49 50 50 50 50 50 50 50 50 50 49 43 42 42 43 45 44 -10 6 22 29 28 19 21 26 27 29 23 27 29 30 28 27 26 26 27 25 27 26 27 25 23
47 48 47 49 49 49 50 50 50 50 50 50 50 50 49 47 45 45 44 45 47 34 16 19 21 22 22 20 20 26 27 30 27 23 28 29 29 27 27 28 28 27 26 28 28 26 23
46 47 48 49 49 49 49 50 50 50 50 50 50 50 48 44 39 43 44 46 35 26 13 5 26 27 22 18 15 20 23 23 24 21 20 26 26 26 26 25 26 26 24 23 24 24 23
46 47 47 48 49 49 49 49 50 50 50 50 49 50 48 45 43 42 45 40 27 18 10 15 18 17 28 21 18 20 22 21 23 26 24 21 24 25 27 25 24 26 26 26 22 23 24
46 46 47 48 49 49 49 50 50 50 50 49 49 48 46 45 44 44 40 30 26 22 18 11 10 10 13 27 28 19 21 20 23 25 24 26 24 26 25 25 24 27 26 28 28 32 27
45 46 47 47 48 49 49 49 50 50 50 49 47 45 42 44 44 43 35 31 29 28 24 23 18 18 19 19 26 28 27 27 25 26 27 27 25 26 25 25 25 25 28 26 30 26 24
45 46 46 46 47 48 49 49 49 50 50 50 45 40 42 45 45 39 29 27 27 29 29 28 24 23 21 22 23 24 29 29 31 25 27 25 27 27 27 24 22 25 25 26 29 32 27
44 45 46 46 46 47 48 49 49 50 50 49 44 34 42 44 33 33 29 28 32 28 29 27 29 26 24 24 23 25 26 28 33 35 27 26 26 24 23 27 25 23 25 26 26 27 31
45 45 45 46 46 47 48 48 49 49 49 47 39 38 44 40 27 28 28 28 29 28 27 27 26 25 25 25 22 27 28 33 40 38 35 31 26 24 22 24 25 24 25 25 29 30 25
44 45 46 46 47 47 48 48 49 49 49 47 36 32 38 39 32 27 26 27 26 30 29 29 28 29 25 23 25 24 26 32 40 39 43 40 32 23 21 23 25 25 25 24 25 27 26
44 45 45 45 46 46 47 47 48 49 49 47 36 33 36 30 32 31 28 27 27 26 29 30 27 27 28 25 23 23 30 38 40 43 42 40 30 27 24 23 24 26 26 23 24 27 28
44 45 45 45 46 47 47 47 48 49 49 45 32 35 37 30 33 32 31 27 25 27 28 27 27 25 25 26 25 25 27 35 39 41 40 41 35 30 27 26 23 22 24 27 26 26 27
44 45 45 45 46 46 48 47 48 47 47 43 42 39 34 32 31 33 29 28 27 28 29 28 27 27 27 27 28 30 38 42 42 41 40 39 38 36 29 27 24 26 27 27 27 28 30
45 45 45 46 46 47 46 46 46 46 47 45 44 40 36 31 29 30 30 30 29 29 28 27 28 28 28 31 37 43 41 40 42 42 43 37 36 37 31 27 24 27 28 27 27 26 25
45 45 45 46 45 45 45 45 45 46 45 43 44 42 37 31 31 28 29 30 31 30 29 30 31 31 30 28 28 29 29 30 35 39 43 40 37 32 31 26 28 29 27 26 26 26 27
44 44 44 44 44 44 44 45 45 45 46 43 44 45 41 34 32 30 28 30 29 30 30 30 31 33 32 29 27 21 21 30 30 35 41 39 39 33 32 29 23 28 29 32 33 27 29
44 45 45 45 44 44 44 44 44 45 45 44 43 43 40 33 35 33 29 29 31 30 29 30 30 30 33 28 25 24 20 29 27 29 31 32 32 31 32 31 32 36 37 35 28 27 35
46 46 46 46 45 45 45 45 45 45 45 45 42 43 39 33 36 37 34 33 32 31 28 30 30 32 32 27 27 25 24 29 29 31 32 31 31 31 32 30 26 38 37 33 35 37 39
47 46 46 46 46 45 46 45 45 46 45 45 40 44 43 39 38 42 40 38 34 34 33 34 32 31 33 31 30 29 25 26 27 25 30 30 33 33 34 31 37 40 41 44 44 42 42

GFSGBSN_sfc_dewp_069.txt.gz
Dewpoint
51 52 52 51 51 50 50 50 52 53 53 52 53 53 53 51 52 52 51 51 51 52 51 51 51 54 52 46 43 44 57 56 46 30 25 26 26 24 23 21 21 20 20 22 23 25 32
48 49 50 50 51 52 52 51 52 53 53 53 53 53 53 53 53 53 52 52 51 51 52 51 51 52 50 41 38 39 47 46 33 32 30 28 23 25 25 23 20 23 25 26 26 24 41
48 48 48 50 50 50 50 50 51 52 52 52 52 53 53 53 52 53 52 52 51 51 51 51 51 49 46 42 43 42 41 39 39 32 29 31 30 28 27 26 27 27 23 24 24 24 28
47 48 48 50 50 51 51 51 50 50 51 52 52 52 53 52 52 52 52 51 51 51 51 51 51 51 42 44 45 45 44 42 41 37 37 35 33 30 28 28 25 23 26 21 24 26 27
48 47 47 49 50 50 51 51 50 50 50 51 52 52 52 52 52 52 52 51 51 51 51 51 50 49 41 46 43 44 42 36 35 38 39 38 34 31 29 25 22 25 17 20 21 25 30
47 46 46 47 49 50 50 50 50 50 50 51 52 52 52 51 52 51 51 50 49 50 48 50 51 41 38 29 34 36 41 36 32 34 36 34 29 25 25 23 18 19 22 25 20 22 31
46 46 46 46 46 48 48 50 50 50 51 51 50 51 51 51 51 51 49 42 36 41 43 41 42 40 36 35 40 36 36 34 32 31 29 29 25 23 23 24 23 24 24 23 22 23 30
46 46 44 44 46 47 48 49 50 51 51 51 50 51 51 51 51 51 47 41 39 39 38 39 36 41 43 43 40 37 35 30 30 27 29 28 25 25 24 26 26 25 24 23 23 24 30
46 46 45 44 45 47 48 49 50 50 51 51 51 50 51 50 50 47 44 41 40 42 39 37 35 32 29 41 39 38 36 30 27 26 28 26 27 27 24 24 23 24 24 23 23 23 30
45 46 44 44 45 47 48 48 50 50 50 50 50 50 50 50 43 43 41 43 42 44 32 23 31 30 30 37 37 35 33 28 26 25 27 27 28 28 25 23 24 21 25 25 24 24 22
44 46 45 45 46 48 49 50 50 50 50 50 50 50 50 50 41 40 42 42 44 43 -7 4 25 30 30 25 20 27 30 27 25 25 26 26 29 27 27 26 26 24 29 27 27 25 23
44 43 44 45 47 48 49 49 50 50 50 50 50 50 50 47 45 45 44 43 46 33 12 11 22 27 27 25 20 27 27 30 26 25 26 25 30 29 28 28 28 28 28 28 29 26 22
44 44 43 44 46 47 48 49 50 50 50 50 50 50 49 44 38 43 42 43 34 25 16 4 23 23 23 21 19 23 23 22 23 22 22 23 26 28 28 26 29 28 25 23 22 21 21
42 43 44 44 46 47 48 49 49 49 50 50 50 50 49 46 43 42 42 37 27 22 16 14 15 16 24 19 18 18 22 17 24 25 22 19 20 24 28 26 25 26 25 25 20 22 22
42 43 44 45 46 46 47 48 49 49 49 49 49 48 46 46 43 43 36 29 24 26 22 23 18 9 14 25 27 19 20 20 15 24 24 22 20 26 25 26 26 26 25 26 25 30 27
42 43 44 45 46 46 47 48 49 49 49 49 47 45 43 45 44 40 33 29 28 31 29 28 20 22 20 20 25 27 28 28 23 19 27 28 25 27 26 26 26 26 28 25 28 23 23
42 43 44 45 45 46 46 47 48 49 49 49 46 40 43 45 45 35 26 27 28 30 30 28 27 24 24 22 22 23 29 28 32 31 25 24 27 26 28 26 24 25 24 27 28 29 24
43 44 44 44 45 46 46 47 48 48 49 48 44 34 44 45 34 31 25 26 31 27 30 29 29 28 26 25 22 25 25 25 35 38 32 28 27 23 23 25 26 25 25 27 25 24 30
43 44 44 44 45 45 46 46 47 48 49 46 39 37 44 41 28 26 25 26 28 28 27 28 27 29 26 23 19 25 28 31 39 35 35 36 30 23 23 25 25 23 25 26 29 29 25
43 44 44 44 45 45 46 46 47 48 49 47 34 32 37 39 33 26 25 23 26 28 28 30 29 29 29 25 26 24 25 28 35 41 44 42 34 32 25 23 24 25 23 25 26 26 24
43 43 43 44 44 45 46 46 47 48 48 46 36 33 35 31 32 28 26 26 24 26 27 31 28 27 26 26 25 22 23 23 34 43 42 42 35 35 35 32 28 24 24 24 23 25 24
43 43 43 43 45 44 46 46 46 48 48 43 32 34 37 33 34 30 30 26 25 25 26 26 27 28 26 25 25 23 23 27 32 39 40 41 36 37 33 31 27 24 23 25 25 25 25
43 44 44 44 44 45 46 46 46 47 48 41 42 39 37 35 33 32 28 27 28 28 29 27 28 28 28 27 28 30 29 28 30 39 38 39 36 35 30 33 32 28 27 23 23 28 27
44 44 44 44 45 45 46 46 46 47 47 44 43 40 36 31 30 30 30 30 28 29 27 29 29 29 30 31 32 37 35 38 41 41 41 37 35 34 32 31 27 32 30 27 26 25 28
45 45 45 45 46 46 46 46 46 46 48 45 44 42 37 32 32 29 30 31 30 29 30 27 29 30 32 29 27 26 28 31 31 38 39 39 35 31 28 28 30 26 30 29 27 26 28
44 45 45 45 45 45 46 46 47 46 48 45 43 44 41 35 33 31 29 31 31 28 29 30 33 34 32 30 27 23 19 24 29 34 41 39 37 32 31 27 23 21 31 29 32 27 30
44 45 45 44 44 44 46 46 46 46 46 45 42 44 39 34 36 33 30 30 31 31 29 31 31 32 33 28 26 23 23 26 25 29 30 32 32 32 31 30 29 34 33 37 32 29 36
45 45 45 45 44 44 44 44 45 45 45 44 42 43 39 34 35 37 35 32 31 31 28 30 31 31 30 26 26 25 22 26 26 30 31 30 30 27 32 29 22 38 39 38 37 40 41
46 46 46 46 45 45 44 44 44 44 44 44 41 44 44 38 37 40 41 42 33 32 32 33 30 32 33 29 28 27 23 24 27 24 31 28 30 29 30 30 35 35 39 41 44 43 42

GFSGBSN_sfc_dewp_075.txt.gz
Dewpoint
47 48 48 48 49 49 50 50 51 51 52 52 52 52 51 50 50 51 52 52 52 52 52 52 51 51 49 35 25 39 53 56 50 35 27 27 28 28 25 22 21 22 20 20 21 22 25
46 46 48 48 49 49 48 49 50 51 51 51 52 52 52 51 50 50 52 51 52 52 52 51 51 50 47 21 27 41 41 43 35 29 27 26 24 27 25 23 21 22 21 21 25 24 25
48 48 48 49 49 49 49 49 49 49 50 50 51 51 52 51 51 51 51 52 51 51 51 51 51 47 41 24 33 39 41 36 38 31 28 28 26 25 26 24 24 24 23 23 22 21 22
46 47 47 48 49 49 48 48 49 49 49 49 49 50 51 51 52 52 52 51 51 50 50 50 50 47 37 42 43 44 42 39 39 37 35 35 32 29 27 28 25 24 23 19 18 26 31
48 46 47 47 47 48 48 48 49 49 50 51 51 51 51 51 50 50 50 51 50 50 50 51 47 45 32 41 39 40 41 33 36 36 36 34 34 32 28 25 22 24 14 18 17 22 32
47 46 46 47 46 46 46 47 48 50 51 51 51 51 51 51 51 50 51 48 48 49 48 47 47 38 28 13 30 39 43 39 32 35 36 35 33 31 28 24 17 18 20 20 18 24 26
45 45 44 45 45 45 45 45 47 49 50 50 50 51 51 51 51 51 47 42 37 36 38 38 37 28 28 40 41 38 40 37 33 31 30 36 29 29 29 27 21 21 20 17 21 23 23
47 47 46 43 44 45 45 45 46 48 49 49 50 51 51 51 51 51 45 39 39 39 36 38 38 36 37 40 36 34 36 32 31 23 30 30 30 31 30 28 25 23 21 20 21 24 24
45 45 45 44 43 43 44 44 45 48 49 50 50 50 51 51 50 44 43 41 41 40 38 35 35 35 32 33 31 28 34 32 28 26 28 26 28 30 28 27 26 25 24 22 19 23 23
44 45 45 44 44 44 43 43 46 47 48 49 50 51 51 50 40 41 41 43 41 43 31 23 33 35 30 32 30 27 25 25 30 26 28 26 27 28 26 25 26 25 25 23 22 21 13
44 46 45 45 42 45 44 44 45 46 47 49 50 50 50 50 40 38 39 44 41 45 3 11 28 28 30 19 20 29 29 25 15 27 29 26 27 27 26 25 25 22 26 24 23 21 22
43 44 45 44 45 45 44 44 44 44 46 47 49 50 49 47 47 44 45 44 44 31 13 14 26 28 26 27 25 32 29 29 24 25 28 26 29 27 24 27 25 27 26 27 29 26 23
42 43 44 44 45 44 43 43 44 44 46 48 49 49 48 45 40 43 42 41 28 22 22 16 18 28 28 26 25 26 28 25 20 16 22 25 24 28 29 25 28 26 26 22 24 25 21
42 42 44 44 44 43 40 43 44 45 47 48 48 49 47 46 43 43 40 34 21 21 23 24 24 24 22 22 22 23 25 21 23 22 12 17 20 25 29 28 27 27 26 24 16 22 22
41 41 42 44 43 42 42 43 43 45 46 47 48 46 46 47 44 45 35 23 19 23 26 27 25 22 21 22 25 22 22 21 20 21 17 18 16 23 28 29 28 28 26 28 25 28 27
40 41 41 43 43 43 43 43 43 43 45 47 45 44 43 47 45 43 32 21 25 29 29 29 24 25 21 21 21 25 27 33 32 25 28 26 21 25 24 27 28 27 29 26 27 20 18
40 40 41 42 43 43 43 42 42 43 44 46 43 38 44 46 46 37 27 25 21 21 25 28 26 25 24 23 22 23 26 30 33 35 28 26 26 25 28 25 23 26 26 27 27 27 21
40 40 40 40 41 42 42 41 42 43 44 44 41 33 45 45 35 34 29 27 28 22 27 28 28 28 25 24 20 20 25 27 25 32 33 35 27 22 20 25 26 27 27 28 26 23 29
39 39 39 40 40 41 42 41 42 44 43 43 37 36 45 43 29 30 33 28 25 24 27 27 26 28 28 24 20 23 25 30 29 24 21 34 32 24 23 25 29 27 26 27 30 28 25
40 40 40 39 40 41 42 41 42 43 43 43 34 30 36 40 36 31 30 26 24 26 25 29 28 29 27 25 25 23 24 26 30 26 36 39 34 34 26 30 34 33 33 33 29 27 25
42 42 42 42 42 41 41 41 43 43 44 42 34 31 35 30 32 32 30 27 24 23 26 28 26 27 26 23 24 23 22 24 25 31 36 35 28 29 31 27 29 30 32 31 30 29 26
43 43 43 42 42 43 43 43 43 43 44 40 32 33 37 35 32 33 32 30 25 24 26 24 26 27 27 24 23 19 23 23 22 27 28 30 32 35 32 30 27 30 31 26 30 30 27
44 44 44 44 43 43 43 43 43 43 43 38 39 39 38 35 32 33 31 29 27 26 26 25 26 25 25 28 29 30 30 30 28 27 26 28 35 33 27 32 32 26 25 29 26 28 29
46 45 45 45 45 45 44 43 43 43 43 41 40 38 34 29 32 32 32 30 27 27 25 26 28 29 31 34 34 33 32 31 30 30 30 27 27 34 29 31 23 23 30 31 29 30 29
44 45 45 46 45 45 45 44 44 44 44 42 42 39 35 30 34 33 31 30 29 29 28 27 30 30 34 30 32 28 26 30 30 30 30 31 29 32 29 27 26 22 21 24 28 25 37
45 46 46 45 45 45 45 45 44 44 44 43 42 43 39 34 31 32 32 31 29 30 31 30 34 35 36 35 31 24 22 23 23 28 33 33 34 34 30 26 22 23 28 36 31 27 37
46 46 46 46 45 44 44 45 45 44 44 43 42 44 40 34 35 35 32 33 32 31 31 31 33 36 36 33 27 25 22 24 20 26 27 30 34 30 29 27 28 32 32 39 26 27 36
45 45 45 45 46 45 44 44 45 44 45 44 41 45 41 34 38 37 37 36 34 34 31 33 34 34 34 30 29 27 26 26 23 26 30 28 27 28 29 27 24 32 36 31 33 39 38
45 45 45 45 46 45 44 43 44 46 45 45 41 45 44 39 38 42 41 40 35 35 34 35 32 32 33 30 30 29 27 28 26 22 32 28 32 31 31 29 33 36 35 35 39 38 38

GFSGBSN_sfc_dewp_078.txt.gz
Dewpoint
47 47 47 48 49 49 48 48 49 51 51 51 51 51 51 51 51 51 52 52 52 51 50 50 51 52 45 27 6 25 55 55 47 38 29 28 25 22 20 19 20 22 16 19 20 20 20
46 47 47 48 48 49 48 49 49 50 51 51 52 51 51 50 50 51 52 52 52 52 51 50 50 51 41 26 9 31 38 40 37 35 29 29 27 26 22 20 20 20 20 18 18 18 21
48 46 47 48 48 48 48 48 49 50 51 50 51 51 51 50 49 49 51 51 51 51 51 50 49 46 40 27 17 32 35 28 37 31 32 32 30 23 21 21 23 21 20 17 17 18 17
48 48 47 47 49 49 47 47 47 48 50 50 50 51 51 51 51 51 51 51 51 50 50 51 49 44 36 31 34 34 31 23 20 33 33 30 30 29 26 25 24 20 21 18 18 16 17
48 48 48 46 48 47 47 47 47 47 48 49 50 52 52 52 52 51 51 51 50 49 51 50 47 43 27 36 35 31 30 23 16 25 36 33 32 26 26 22 20 22 16 19 16 18 23
45 46 47 47 46 46 46 46 47 47 48 49 50 51 52 51 52 51 51 50 46 49 47 45 43 38 31 19 22 36 40 34 27 23 27 33 30 28 26 21 17 18 18 18 17 16 19
47 46 46 46 45 44 45 45 46 48 48 49 49 50 51 51 51 51 46 36 30 34 34 33 34 33 31 37 39 37 41 39 31 21 19 30 26 25 24 24 22 20 19 17 15 17 20
45 45 46 46 46 44 45 45 46 47 47 49 49 50 51 51 51 50 42 35 38 38 34 35 33 31 33 36 33 33 37 35 31 21 22 29 26 22 25 26 25 23 19 18 17 20 21
45 45 45 44 43 44 43 44 45 46 47 48 48 49 50 51 51 44 42 36 40 38 34 31 32 32 32 30 29 28 35 28 29 27 21 25 22 24 26 28 25 24 21 20 18 19 20
44 45 44 44 44 44 42 43 44 44 46 47 49 49 50 50 46 40 39 43 41 42 33 22 29 31 33 27 26 26 25 27 26 24 24 22 22 24 27 25 24 21 21 22 22 20 16
44 44 45 45 45 45 45 45 43 44 45 46 48 48 50 49 44 39 38 43 42 43 8 11 23 29 27 24 18 26 25 19 16 20 28 23 22 20 23 25 23 22 21 22 21 21 21
43 43 43 44 45 45 45 45 44 44 44 44 47 48 49 46 47 43 43 43 41 30 6 11 25 27 25 25 19 30 23 19 19 13 26 27 26 24 22 26 26 24 24 24 24 22 21
42 42 42 43 44 45 45 45 44 43 43 44 46 47 48 46 41 44 43 35 27 15 16 14 20 22 22 23 25 26 27 24 17 17 17 22 24 26 27 21 25 23 24 22 24 23 20
42 42 43 43 43 44 45 44 42 44 43 44 46 47 47 45 44 44 40 29 19 13 18 22 24 23 20 23 24 23 28 22 22 18 17 15 18 24 27 24 24 25 25 23 18 21 21
40 42 41 42 42 42 45 44 44 44 44 45 46 43 46 46 48 47 37 27 15 17 22 27 24 19 20 21 24 22 25 24 19 19 15 11 12 20 22 26 25 28 26 26 23 26 24
40 40 42 41 42 42 43 44 44 43 43 44 43 42 39 46 49 43 35 24 20 27 27 27 23 23 20 20 21 23 26 29 29 30 20 23 15 16 21 24 25 26 26 26 26 23 21
39 38 39 40 42 42 42 43 43 42 42 43 42 38 41 47 48 38 29 26 23 21 23 26 26 25 23 22 19 24 27 23 22 29 28 21 26 26 24 24 23 25 25 26 24 25 22
39 39 40 40 42 41 41 41 43 42 43 42 40 33 45 47 36 36 31 27 27 22 22 24 28 27 25 24 21 18 26 24 23 25 26 30 26 22 23 24 24 25 25 25 24 23 25
40 40 40 40 39 40 41 41 43 43 43 40 35 35 46 45 29 30 35 29 25 23 23 23 25 27 27 24 21 21 22 24 25 22 25 30 26 18 17 20 24 24 25 25 26 26 24
41 40 40 39 38 39 40 40 42 43 43 43 36 32 37 40 37 30 28 29 26 26 24 24 25 28 26 24 24 23 23 22 25 22 38 34 36 31 19 25 30 30 31 31 31 28 25
42 42 42 42 41 40 40 41 42 43 44 43 35 33 33 31 32 34 29 25 25 23 25 25 24 25 24 23 23 23 22 22 22 29 30 32 25 30 30 30 27 28 27 28 27 29 29
43 44 43 43 43 42 42 42 43 43 43 41 33 35 36 32 35 32 34 31 25 23 24 24 24 23 25 25 24 22 21 22 22 23 26 30 23 24 22 24 21 21 22 24 25 24 26
43 45 45 44 44 44 43 43 43 43 43 39 39 38 37 30 29 31 33 29 27 27 27 25 25 26 25 25 26 28 29 30 29 27 25 27 31 28 22 24 22 24 25 23 22 28 29
45 45 45 45 45 45 45 43 43 43 43 37 39 39 33 27 30 27 26 32 31 30 26 26 27 27 30 30 34 33 32 30 30 30 30 26 29 32 27 32 22 21 24 25 27 24 27
45 45 45 45 45 46 45 45 44 43 43 43 41 39 34 29 25 23 25 29 29 30 29 28 29 31 35 35 32 27 27 28 28 30 30 29 28 30 27 22 19 18 20 23 25 21 34
45 45 46 46 45 45 46 45 45 44 43 44 41 43 39 32 27 24 27 33 32 29 30 31 34 38 38 36 32 25 22 20 22 25 29 29 30 29 30 21 20 24 29 33 29 21 31
45 46 46 46 46 46 46 46 45 45 44 43 42 44 39 34 32 29 27 28 34 30 31 32 37 37 39 35 31 25 21 22 20 23 28 28 29 28 27 27 25 26 25 34 24 27 31
46 46 45 45 45 45 46 46 45 45 45 43 41 45 39 35 35 34 34 33 32 34 30 36 35 36 35 31 28 26 26 24 21 23 27 26 27 29 28 26 24 32 30 27 31 33 34
45 45 45 45 45 45 45 46 45 44 45 45 39 44 44 38 38 40 38 38 36 36 36 37 32 34 32 30 30 29 28 31 23 21 24 26 26 26 25 25 32 37 33 36 40 40 40

GFSGBSN_sfc_dewp_081.txt.gz
Dewpoint
47 47 47 47 48 47 49 49 49 50 50 50 50 50 50 50 50 50 51 52 52 51 50 50 51 50 46 28 24 19 51 53 45 41 32 28 28 27 23 19 18 18 17 15 16 15 16
46 47 47 48 48 48 47 48 48 49 50 51 51 50 50 50 50 50 51 51 51 51 51 49 49 50 42 34 26 11 24 27 34 38 32 29 27 24 21 20 19 20 18 19 17 17 16
48 49 49 48 47 47 46 47 48 47 48 50 51 52 52 51 50 51 51 52 51 51 51 49 49 45 37 34 28 25 24 19 23 35 32 28 27 26 26 24 21 20 18 18 19 17 16
47 47 49 49 48 48 48 47 47 46 47 48 49 51 52 52 52 52 52 52 51 51 51 50 51 43 33 32 33 30 27 22 16 15 23 33 32 31 27 24 22 20 21 18 20 18 17
48 46 47 48 48 48 47 47 47 46 46 47 49 50 52 52 52 52 52 52 51 51 50 51 46 40 28 37 30 28 29 24 19 14 17 26 30 30 28 25 22 22 18 19 19 18 15
47 47 46 46 48 47 47 46 47 47 47 47 48 50 51 51 51 51 51 50 48 48 47 43 40 38 33 18 19 25 33 30 21 18 17 26 24 27 26 22 19 18 17 19 19 18 17
46 47 46 48 48 48 45 45 47 47 47 46 48 49 50 51 51 51 48 38 32 37 38 29 27 31 25 31 31 29 39 35 28 25 15 19 18 16 18 22 20 20 19 18 19 18 18
43 45 46 45 46 46 46 45 46 47 45 46 48 48 49 51 51 51 47 34 37 36 32 31 29 27 24 25 26 29 36 32 35 27 20 15 21 19 18 20 22 22 21 20 20 19 20
44 45 45 45 45 45 44 45 45 46 45 46 47 48 49 50 50 48 39 36 39 40 32 26 29 27 27 28 23 25 34 32 32 32 26 18 21 25 21 20 21 24 24 23 21 20 19
44 45 45 45 45 44 45 45 42 43 44 45 46 47 49 50 46 39 37 39 40 43 30 23 23 27 30 28 24 23 26 34 34 31 29 25 25 26 25 22 22 25 25 23 21 21 18
44 44 44 44 45 45 45 45 43 43 42 45 46 46 48 48 43 37 38 41 42 41 15 9 23 28 27 24 18 23 24 34 30 30 26 30 25 25 23 23 24 25 24 22 21 22 23
43 42 43 43 44 45 44 45 46 44 43 44 44 46 48 42 45 44 42 43 40 33 14 9 22 22 24 24 23 25 22 28 32 31 29 24 30 27 25 22 23 25 22 23 23 22 20
42 42 42 43 44 44 44 44 45 45 44 43 44 45 45 42 41 43 45 39 27 15 11 11 17 19 18 20 24 20 23 23 20 20 25 28 23 28 29 23 23 24 23 21 22 22 21
41 41 42 42 43 44 43 44 45 45 44 43 45 46 43 40 44 45 42 31 19 10 12 18 20 19 17 22 24 24 25 16 18 22 22 27 23 21 28 25 22 23 23 21 20 24 23
41 40 42 40 42 42 43 43 44 43 44 43 44 38 39 43 48 48 38 28 12 13 14 20 20 15 16 21 23 21 24 23 22 20 21 27 21 22 25 26 27 27 23 23 27 27 25
40 40 40 41 41 43 43 42 41 43 43 43 35 39 37 43 50 46 36 26 17 18 23 21 16 19 18 20 22 22 23 28 26 25 24 23 23 19 21 26 29 27 27 25 25 24 22
39 39 39 39 40 40 42 41 43 43 43 43 36 37 34 42 49 40 29 23 21 18 23 21 20 21 21 21 21 25 29 26 23 26 30 21 22 30 16 21 24 25 24 30 30 27 25
41 40 40 40 41 40 41 42 42 42 44 40 34 33 42 48 36 37 30 25 27 19 20 22 27 26 24 23 21 20 33 24 26 26 27 25 26 22 22 19 22 24 24 26 28 27 27
40 40 40 40 41 41 40 41 41 42 43 36 34 31 42 45 30 31 30 26 25 22 20 19 21 25 25 24 21 20 24 28 25 24 26 26 23 19 28 25 23 22 22 24 27 27 28
41 41 41 40 39 40 40 41 40 41 42 42 38 33 33 41 38 32 26 26 24 27 23 20 20 23 24 24 24 22 21 23 25 23 36 34 30 27 23 23 26 23 24 23 25 27 25
42 43 43 42 41 41 40 40 41 42 43 41 38 32 31 31 32 32 30 31 21 23 24 23 21 22 23 23 22 21 21 23 21 29 24 28 27 29 30 30 27 27 27 27 26 27 27
44 43 43 43 44 43 42 41 42 42 43 40 34 32 30 29 28 27 30 29 27 18 21 21 23 21 23 23 23 24 22 23 23 22 23 26 22 24 24 24 24 22 22 24 24 25 25
43 43 44 45 45 44 44 43 43 43 43 39 34 37 35 29 25 29 30 24 29 25 22 21 24 25 26 24 26 28 29 29 27 27 26 26 26 20 23 23 25 26 24 22 21 22 23
44 44 44 45 45 44 45 44 43 43 43 41 33 32 33 27 25 21 21 30 28 31 34 25 25 27 27 32 31 30 30 29 29 29 29 27 25 26 26 26 21 22 21 22 23 22 25
45 45 44 45 46 45 46 46 44 43 43 41 39 37 31 29 20 21 23 28 35 34 31 30 27 29 35 35 31 26 27 28 29 28 27 29 28 26 25 20 18 15 18 18 20 21 29
45 45 45 45 45 45 45 45 46 44 43 42 39 41 39 32 25 18 19 23 24 28 31 32 32 37 37 34 33 25 22 21 23 24 26 27 30 28 27 22 18 18 22 25 25 21 30
45 45 45 46 46 46 46 46 46 45 44 43 38 42 40 34 28 25 20 21 23 29 34 32 34 37 38 35 30 25 24 21 21 25 26 28 30 28 27 25 21 29 25 29 24 27 32
46 46 45 46 46 46 46 46 46 46 45 43 41 41 39 36 30 29 29 32 24 34 35 35 36 37 35 34 29 27 27 24 20 21 27 27 29 29 28 28 23 24 25 28 35 35 35
46 45 46 45 46 45 45 46 46 46 46 45 39 43 42 38 33 34 33 34 33 35 37 38 30 36 33 30 30 29 31 31 24 22 28 29 25 27 24 24 31 36 36 37 38 37 38

GFSGBSN_sfc_dewp_087.txt.gz
Dewpoint
50 50 49 49 49 48 48 47 48 49 50 49 49 48 50 50 50 50 52 52 52 52 51 51 51 51 46 34 33 31 57 56 53 44 40 38 25 24 25 25 25 22 20 20 19 20 20
49 49 49 49 49 50 48 47 48 50 50 49 49 50 49 50 50 50 51 52 52 52 52 51 51 50 43 31 26 24 26 31 41 25 34 33 30 27 27 26 25 24 22 21 19 18 18
47 48 49 50 49 49 50 50 48 49 49 49 49 49 49 49 50 50 50 51 51 51 51 51 51 47 41 35 28 28 29 26 28 29 19 28 34 31 29 27 27 26 23 21 20 19 19
47 46 46 48 50 50 50 50 49 47 47 47 47 48 50 50 51 51 51 51 50 51 51 51 51 47 40 37 34 30 29 28 31 31 26 20 19 23 31 32 29 26 24 19 23 21 20
48 47 45 46 48 49 50 50 49 48 47 48 48 48 49 50 50 51 51 50 50 51 51 51 48 46 38 40 35 32 31 28 28 30 28 24 16 17 24 30 27 28 23 21 20 20 19
46 46 46 45 45 47 48 48 50 49 49 48 47 47 49 50 50 50 50 50 48 49 48 44 44 42 41 31 27 28 28 24 28 32 28 23 13 15 23 27 25 25 24 21 20 21 20
46 46 46 45 45 45 47 46 48 49 48 47 46 46 47 49 49 49 48 42 35 39 39 39 39 37 32 33 26 20 29 35 33 28 24 21 12 13 20 25 28 27 27 24 22 22 21
44 44 46 46 44 44 46 47 48 48 47 46 47 46 46 47 49 49 45 41 35 35 35 36 34 31 32 26 23 20 20 26 29 25 24 23 17 16 18 21 23 26 29 30 26 25 24
44 45 45 44 44 44 45 46 46 47 46 47 46 45 46 47 48 45 43 42 40 39 35 32 31 31 29 28 25 23 20 20 27 30 30 29 28 31 26 22 23 27 23 24 24 24 25
41 42 42 43 44 44 45 45 45 44 46 46 46 46 47 48 43 41 39 40 43 41 30 27 25 23 24 27 26 25 25 18 28 28 33 36 38 37 33 29 26 25 27 25 30 33 31
42 43 43 43 44 44 44 44 45 45 45 46 46 45 46 45 41 38 38 42 41 40 21 28 22 26 28 25 26 22 25 21 24 32 34 32 35 37 37 32 33 28 32 33 36 34 32
42 43 43 43 43 43 43 44 44 45 45 45 46 45 46 40 41 38 41 44 43 32 21 13 24 25 25 26 26 23 21 23 29 28 33 32 32 34 37 37 35 36 39 38 35 35 32
40 40 41 42 41 42 42 43 44 44 44 45 46 45 43 39 36 39 39 43 30 25 19 12 21 20 20 18 21 22 19 22 25 26 26 26 27 31 32 32 35 40 37 33 31 31 27
40 40 40 40 41 42 42 42 42 44 43 44 45 45 42 38 38 39 41 37 25 22 19 17 18 19 17 16 18 21 19 19 24 26 21 22 26 26 30 31 33 34 37 32 25 27 29
41 41 41 41 40 41 41 42 42 43 43 44 44 39 39 39 40 42 39 27 24 19 19 18 16 15 14 14 21 24 21 23 21 22 19 23 26 30 32 35 30 35 34 33 33 32 33
39 40 40 40 41 41 41 41 41 43 43 42 40 39 37 38 41 42 35 27 22 23 21 19 16 16 13 19 20 30 29 31 27 24 23 22 22 26 28 32 34 35 39 32 35 26 27
39 40 41 41 41 41 41 41 40 41 43 43 40 35 34 37 44 37 29 30 25 25 22 19 19 19 21 20 20 21 34 30 26 25 26 23 24 25 26 31 30 32 36 37 35 33 32
41 41 41 42 42 41 41 41 42 42 42 40 39 27 38 40 33 35 32 30 30 22 23 23 22 21 21 23 23 22 30 28 26 27 24 28 30 24 22 25 32 36 35 37 34 30 34
41 41 42 42 42 43 42 41 42 41 42 39 35 31 38 43 26 31 32 32 29 27 24 22 21 22 21 21 22 23 30 32 30 27 25 25 30 27 24 25 27 28 35 36 36 37 35
41 41 42 43 43 43 43 43 41 41 41 40 34 25 29 37 35 32 28 27 26 26 25 22 21 22 21 20 22 24 25 30 30 27 34 32 29 28 28 33 35 34 33 35 38 34 31
41 42 43 43 44 44 43 43 42 41 42 40 34 31 30 20 31 33 32 35 31 24 23 23 21 21 21 20 20 21 24 24 29 33 28 29 27 28 26 26 35 35 36 36 36 35 35
41 43 43 43 43 44 43 43 43 42 42 37 32 30 28 27 30 30 30 28 25 25 26 27 25 23 22 20 20 21 28 29 30 30 28 27 25 26 24 23 24 32 32 33 34 38 37
41 42 43 43 44 44 44 43 44 43 42 36 37 35 33 28 26 27 28 27 25 26 27 25 27 31 31 30 33 33 33 32 32 32 29 28 27 26 24 25 23 27 28 32 33 34 33
41 42 42 43 44 44 44 44 45 44 42 35 34 33 30 22 24 24 25 25 25 25 27 27 30 32 34 37 34 34 32 31 31 31 31 28 28 27 24 23 21 28 28 27 26 31 31
43 42 42 43 44 45 45 45 45 44 43 37 35 35 31 22 24 22 23 21 24 27 29 31 33 36 41 37 31 26 26 27 27 28 28 29 28 25 24 24 23 19 21 22 22 31 37
42 42 43 44 45 45 45 45 45 45 44 40 36 37 34 29 25 25 23 25 26 27 29 31 38 41 40 34 29 23 21 24 22 25 27 28 30 28 26 23 18 23 25 28 31 31 36
43 43 44 45 46 46 46 45 45 45 45 43 37 37 36 30 30 29 27 28 32 30 33 32 34 36 39 31 24 23 23 23 23 26 26 26 27 26 25 26 27 27 28 31 26 32 37
43 44 45 46 46 46 46 46 46 46 46 44 40 37 36 32 30 31 31 30 31 34 28 34 32 35 32 28 27 25 23 27 26 27 30 26 26 26 27 24 21 33 32 32 38 38 36
44 45 45 46 46 46 46 46 46 46 46 45 39 39 39 35 31 34 32 32 32 35 37 37 36 35 35 29 29 29 27 31 31 28 35 29 28 28 27 26 39 41 39 41 38 36 37

GFSGBSN_sfc_dewp_090.txt.gz
Dewpoint
49 50 50 49 49 49 50 49 50 50 50 50 49 47 47 48 49 49 51 51 51 50 50 50 51 51 46 36 35 32 57 50 54 52 44 38 25 20 22 24 27 26 26 25 24 22 21
47 48 48 49 50 49 49 49 49 50 50 51 50 50 48 47 48 49 51 51 51 51 50 50 51 51 45 33 26 26 27 27 44 42 35 38 35 26 25 27 26 27 26 25 23 22 21
47 48 47 47 48 49 50 49 49 49 50 49 49 49 49 47 47 49 49 51 51 51 49 49 50 47 41 35 33 28 32 31 27 28 29 25 31 33 31 29 30 28 26 26 26 23 21
46 47 48 46 47 48 49 49 49 49 49 48 48 49 49 48 49 50 50 50 50 50 49 49 50 46 37 39 39 37 34 29 29 29 31 30 24 19 24 31 31 28 27 24 26 23 22
48 46 46 47 46 48 48 49 49 48 48 49 48 49 49 49 49 50 50 49 49 49 48 49 47 43 36 43 40 38 33 29 29 29 30 29 26 14 19 27 28 28 24 24 25 23 22
47 47 46 46 46 46 45 47 49 49 48 48 48 48 48 48 49 49 49 48 46 49 47 47 44 42 40 31 30 28 30 30 27 31 29 26 17 11 20 27 24 25 25 25 23 22 23
45 45 45 45 45 46 45 45 47 48 48 47 48 48 48 48 48 48 46 40 35 34 38 39 38 38 34 37 30 26 23 32 31 28 24 23 10 10 15 21 27 27 26 26 28 30 31
43 44 45 45 45 45 45 45 46 47 46 46 46 47 46 46 47 47 44 40 41 36 34 36 36 35 38 38 32 31 24 20 32 26 26 24 18 15 17 21 22 24 25 27 29 29 29
41 41 42 43 43 44 44 45 45 46 46 46 46 45 45 47 47 43 41 39 42 41 33 33 33 32 30 29 30 28 23 20 20 26 24 24 27 26 22 21 19 24 24 25 25 29 30
43 44 43 43 44 44 44 45 44 44 45 46 46 46 47 47 37 39 33 39 42 42 29 26 31 30 30 29 26 26 24 19 20 24 32 32 37 37 37 34 31 24 27 26 25 35 30
42 42 43 43 43 43 43 43 44 44 44 44 46 45 46 44 40 37 35 38 39 41 15 25 26 28 27 24 25 24 26 21 19 33 34 31 36 36 35 36 34 30 28 28 31 35 34
40 40 40 42 42 42 42 42 43 44 44 44 45 45 46 41 38 40 39 36 42 30 17 26 25 22 25 28 27 23 23 23 23 32 33 30 35 36 34 34 37 35 32 35 34 36 30
39 40 40 40 40 41 42 42 42 43 43 43 44 44 43 41 35 38 38 39 29 23 22 20 23 26 26 26 25 19 20 23 24 24 26 28 28 32 36 33 35 37 37 31 29 30 24
41 42 42 42 42 42 41 42 43 42 43 43 44 45 42 40 40 40 40 36 22 21 21 20 21 24 22 19 22 20 19 19 26 26 19 21 18 26 32 31 32 33 37 33 23 26 26
41 41 40 40 41 41 42 42 41 42 42 44 43 39 38 38 40 42 36 27 21 21 22 20 19 15 15 14 20 21 22 21 21 26 20 20 25 31 31 33 32 34 34 37 34 35 30
41 41 40 41 42 42 41 41 42 41 41 43 37 37 36 38 40 40 32 27 24 23 24 22 19 21 20 21 26 31 30 30 26 25 24 22 20 25 33 35 36 34 40 34 35 26 26
39 41 41 41 42 42 42 42 41 42 41 42 39 33 36 38 41 35 27 28 27 26 26 22 20 20 20 20 23 30 34 34 26 25 27 26 22 24 26 30 32 36 36 36 36 34 29
40 41 42 42 42 43 43 43 42 42 41 40 37 27 35 40 28 30 27 34 32 28 29 26 26 22 21 22 21 24 32 30 27 28 23 26 28 22 22 23 33 35 37 37 34 30 34
40 41 42 42 42 43 43 43 42 42 41 38 34 31 35 40 23 26 32 30 31 28 26 25 24 25 24 22 19 29 31 32 30 27 24 24 26 27 25 28 31 34 34 36 38 37 33
40 41 41 42 42 43 44 44 43 41 41 38 32 25 28 34 35 30 27 29 27 28 26 26 24 24 24 23 23 23 29 32 30 28 36 32 27 28 28 29 35 34 34 37 36 33 31
39 41 41 42 43 43 44 45 44 41 42 37 33 23 33 28 30 28 31 33 29 25 28 29 24 24 23 21 22 20 25 27 30 35 29 29 25 29 28 26 34 34 33 34 36 36 35
39 40 42 42 43 43 44 44 44 42 42 35 29 29 31 28 30 31 32 29 30 25 28 26 28 29 31 29 28 23 28 29 30 31 29 29 23 26 25 25 26 22 33 34 35 38 38
39 40 41 42 43 43 44 44 44 43 41 35 33 32 29 27 27 25 28 26 26 28 29 26 26 28 31 32 34 33 32 32 31 30 28 27 28 26 23 24 20 23 29 34 30 37 34
39 39 41 42 42 43 44 45 45 44 41 34 33 31 26 20 24 24 24 24 22 24 28 30 31 31 34 37 34 33 32 31 31 31 31 27 26 26 24 23 14 23 25 28 35 36 34
38 40 41 42 42 43 44 45 45 45 44 35 34 33 29 19 26 24 24 24 27 28 27 29 33 38 39 35 30 28 26 26 27 30 30 31 27 23 22 22 22 19 20 26 31 34 38
38 40 41 42 43 44 45 45 45 45 44 40 35 36 32 29 23 25 26 25 24 26 28 31 38 40 37 33 29 25 21 24 22 25 29 28 29 25 24 22 17 24 27 30 34 33 38
39 40 42 43 45 45 46 46 46 45 45 43 39 37 34 27 28 29 26 28 32 31 29 31 33 34 37 28 24 25 23 25 22 24 27 28 27 24 23 23 26 31 36 35 26 32 37
39 41 43 44 45 46 46 46 46 46 46 44 41 38 34 29 28 30 31 30 32 35 30 33 28 33 33 28 27 25 23 25 26 26 27 27 27 25 25 25 21 38 37 35 37 37 37
41 42 44 45 45 46 46 46 46 46 45 45 40 39 37 33 31 32 31 31 31 35 34 35 35 35 35 32 30 29 24 25 28 25 35 30 31 28 27 26 38 38 37 38 37 37 37

GFSGBSN_sfc_dewp_093.txt.gz
Dewpoint
47 48 48 48 49 50 50 49 49 51 50 50 49 49 48 47 47 47 49 50 50 49 49 49 49 50 46 37 33 33 49 42 53 49 41 37 27 22 18 22 29 28 28 27 26 25 23
47 48 48 47 47 47 49 49 49 50 51 51 51 50 48 47 47 47 49 49 50 50 49 49 49 50 42 33 25 27 28 28 31 47 41 40 32 24 21 21 24 28 28 28 28 26 24
46 46 47 48 46 47 47 48 48 49 49 50 50 50 49 47 47 47 48 49 49 49 48 48 49 46 39 35 34 34 35 31 29 31 34 29 36 33 30 28 29 28 25 26 26 25 24
46 48 46 46 47 47 46 46 47 48 48 48 49 49 49 49 48 49 48 48 48 49 48 48 48 45 38 39 39 39 38 35 34 32 28 31 27 20 22 26 29 28 28 25 27 26 25
46 46 47 46 47 47 46 47 47 46 48 48 48 48 49 49 49 49 48 48 48 48 48 47 46 43 36 42 40 41 37 32 29 29 30 29 25 19 16 20 26 28 25 24 25 25 23
44 45 46 45 45 46 46 46 47 47 47 47 47 48 49 49 49 48 47 47 45 47 47 45 44 40 39 31 36 30 38 32 27 29 28 27 21 11 21 26 21 25 25 25 24 24 28
43 42 44 44 45 45 45 45 45 47 46 46 46 46 47 47 47 47 44 40 38 35 40 39 37 37 36 38 36 29 25 26 28 27 24 22 17 14 12 24 26 27 26 26 27 28 31
40 40 41 42 42 44 44 44 45 45 46 46 46 46 46 46 46 47 42 39 40 40 36 38 36 37 39 40 37 35 29 22 32 27 26 24 16 16 15 17 21 23 23 22 27 30 28
40 43 44 43 43 43 44 44 44 45 44 45 45 46 46 47 47 41 36 33 38 39 35 33 33 33 33 33 33 32 30 20 21 26 25 24 25 27 18 15 15 16 18 22 24 28 30
39 41 42 42 43 43 44 44 43 43 44 44 44 45 47 46 35 38 32 37 37 38 29 26 30 31 30 27 28 31 25 19 20 21 26 26 33 35 35 33 31 28 26 26 26 30 24
38 38 40 40 41 42 42 43 43 43 43 44 44 44 46 45 39 36 34 38 35 41 16 18 30 32 28 21 24 25 24 21 22 31 33 31 36 35 34 34 36 31 32 30 27 33 33
37 38 40 40 41 41 41 41 42 43 43 43 43 44 45 41 37 38 39 38 41 26 15 22 25 26 25 26 27 23 22 22 25 32 32 30 36 35 33 35 37 37 33 33 35 34 27
41 40 41 42 42 42 42 42 42 42 42 43 43 44 42 41 35 38 39 38 25 20 20 22 23 26 24 25 26 20 22 25 22 23 26 28 30 33 37 34 36 37 33 24 27 27 24
40 40 41 41 40 41 41 41 42 42 42 43 43 45 42 40 40 39 40 33 20 18 21 25 22 25 25 26 25 21 20 21 26 24 23 23 16 29 33 31 31 35 33 28 21 24 26
39 40 41 41 40 41 42 42 41 42 42 42 42 37 37 38 40 39 33 24 20 23 29 28 22 22 21 19 22 20 22 19 23 25 19 20 22 29 32 32 32 33 32 37 33 34 30
40 39 40 41 41 42 42 43 43 42 42 42 36 35 35 38 40 37 29 26 24 27 29 30 21 21 20 21 26 24 29 30 26 27 23 22 20 28 33 35 35 35 39 33 34 26 26
39 38 40 42 42 42 43 43 43 42 42 40 39 32 33 39 39 34 21 27 25 26 28 32 23 20 22 21 23 31 33 31 26 27 25 25 22 24 32 32 32 34 34 35 36 34 29
38 39 40 41 42 42 43 43 43 43 41 39 36 26 34 42 25 28 21 27 31 28 29 33 28 23 21 24 23 30 33 31 26 27 24 25 28 23 23 25 35 36 34 36 31 31 33
39 39 40 41 42 42 43 44 44 44 41 36 32 31 35 39 25 16 25 29 26 28 27 32 30 26 24 24 21 30 30 32 28 26 24 26 27 24 24 30 34 34 36 36 35 36 31
39 38 40 42 42 43 43 44 44 43 42 36 32 22 27 33 34 29 25 23 26 29 26 27 28 27 25 22 24 23 28 32 32 28 35 31 27 26 24 28 31 32 33 35 36 32 32
38 38 40 40 41 43 43 44 44 43 42 35 32 24 29 24 30 28 28 28 29 27 29 30 28 30 29 25 24 23 27 26 30 35 28 28 23 27 28 30 29 32 32 33 33 35 33
36 37 39 40 41 43 43 44 44 43 42 34 28 27 29 28 30 32 31 28 29 31 28 25 25 28 30 30 30 28 30 27 28 30 28 28 22 25 23 26 28 27 22 21 31 34 35
38 37 39 40 41 42 43 44 44 43 40 31 32 31 28 24 25 25 28 29 30 31 31 28 29 29 28 31 32 32 33 32 31 30 27 27 26 25 22 23 21 18 24 25 33 33 35
37 36 39 40 42 42 42 44 44 44 40 33 32 30 24 18 23 22 23 23 25 27 27 28 30 29 34 37 34 32 30 31 31 31 31 27 26 26 23 21 13 18 19 36 34 37 37
37 38 38 39 41 42 43 44 44 44 44 34 34 31 27 20 25 24 24 24 26 27 28 32 36 39 39 35 28 26 25 25 26 30 30 30 27 22 20 19 17 18 25 29 28 30 39
37 38 38 40 41 43 44 44 45 45 45 39 35 35 31 24 21 26 24 25 24 28 28 31 36 38 37 32 28 23 20 23 22 24 30 30 28 25 23 19 13 23 33 35 37 32 39
37 38 38 40 41 44 44 45 45 45 45 43 38 36 33 26 27 27 26 27 31 30 28 30 34 34 36 28 26 24 23 25 21 23 25 26 26 24 23 22 23 27 37 38 27 29 38
37 37 38 40 42 44 45 46 46 46 46 44 41 37 34 26 28 29 28 26 31 32 29 31 27 31 32 25 25 25 24 25 26 24 25 24 24 23 25 24 19 37 36 33 36 37 38
36 37 38 41 43 44 45 46 46 46 46 45 40 38 36 35 28 32 30 31 31 33 30 32 32 34 35 32 30 30 24 24 27 22 33 25 30 29 26 24 37 38 37 38 37 34 34

GFSGBSN_sfc_dewp_096.txt.gz
Dewpoint
48 48 48 47 47 47 48 48 49 50 50 50 50 50 49 48 47 47 49 49 47 46 46 47 48 48 45 37 33 30 43 39 54 46 36 34 26 21 19 19 26 29 29 27 27 26 24
46 46 46 48 47 47 47 46 47 48 48 49 50 50 49 49 47 47 48 49 48 48 46 46 47 48 42 33 28 28 34 33 26 47 45 37 31 25 22 19 21 25 28 28 28 28 28
45 46 46 46 46 46 46 46 46 46 46 48 48 50 49 49 47 47 47 48 48 47 46 46 46 45 38 34 35 34 35 34 30 27 37 37 39 35 25 25 26 26 23 23 26 26 25
45 46 47 46 46 46 46 46 46 46 46 47 48 48 49 49 49 49 48 48 48 47 47 46 47 43 36 38 39 38 38 37 36 34 30 29 29 27 26 24 24 29 28 25 27 26 26
41 44 45 45 45 45 45 45 46 45 46 47 47 48 48 49 49 49 48 48 46 46 48 48 44 42 35 41 39 39 39 33 31 33 30 28 28 21 17 18 22 27 24 25 25 26 24
43 41 43 43 44 45 44 45 45 45 46 46 46 46 48 48 48 48 48 47 46 46 45 43 42 38 34 28 36 36 40 35 29 28 28 28 23 15 18 18 14 23 25 25 24 24 26
40 41 41 41 42 42 43 44 44 45 46 46 45 46 46 48 47 47 44 40 37 35 38 36 36 36 37 38 39 34 31 30 29 27 24 23 21 17 17 23 22 25 26 25 26 28 30
39 41 44 43 42 42 43 43 43 44 44 44 44 45 45 45 46 46 39 31 31 37 33 37 37 37 37 37 35 35 35 22 30 26 25 21 18 21 20 17 18 19 20 21 24 27 28
39 38 41 42 42 42 42 43 43 43 43 43 44 44 44 45 45 39 36 34 36 37 35 34 33 33 35 35 35 32 34 22 29 27 25 24 25 24 15 14 15 15 15 17 19 24 27
37 38 38 40 40 40 41 42 42 42 43 43 43 44 45 45 37 37 34 36 37 38 30 24 30 32 32 33 32 31 33 19 21 27 26 26 26 31 28 23 21 24 25 24 25 25 23
38 37 38 39 40 41 41 41 42 42 42 43 43 43 44 44 38 36 34 38 37 42 15 16 27 32 30 23 20 29 28 21 18 22 31 27 35 34 32 32 33 30 34 32 31 26 32
37 39 40 41 42 42 41 42 42 42 42 43 43 43 43 40 37 38 38 37 40 27 11 20 28 28 25 24 25 25 22 22 27 32 32 30 36 34 32 36 36 37 33 33 34 32 25
39 41 40 41 41 41 41 41 41 42 42 42 43 43 42 41 35 38 39 36 25 19 18 23 25 25 25 24 24 22 22 23 21 23 26 29 32 34 36 33 35 35 30 21 23 25 20
37 40 40 41 41 40 41 42 42 42 42 42 42 43 42 40 39 38 35 29 17 14 18 28 28 27 23 26 25 21 23 21 26 23 25 23 17 32 35 31 30 34 30 24 21 23 26
36 38 40 40 41 41 41 42 43 43 42 42 42 36 35 37 39 38 28 19 14 24 34 32 29 23 25 23 24 20 21 22 24 24 19 21 18 28 33 32 31 33 31 34 32 28 28
36 39 39 39 41 42 42 42 43 43 43 42 35 34 34 37 39 34 23 19 24 26 34 34 29 27 23 20 23 26 27 30 24 27 23 22 20 28 34 34 34 34 37 32 33 25 22
37 39 38 40 41 42 42 43 43 44 43 41 34 30 32 38 39 32 20 21 24 27 35 33 31 30 30 23 28 32 31 28 26 27 26 24 22 25 32 31 31 33 31 34 36 33 28
39 38 39 40 41 42 42 43 43 44 41 37 34 24 33 42 30 25 18 24 26 27 34 34 34 34 31 27 31 33 33 30 26 27 25 27 27 23 24 28 34 35 33 32 31 29 33
37 39 39 39 41 42 43 43 44 42 41 35 29 29 34 40 23 25 25 24 27 25 22 31 30 34 33 28 28 33 34 33 32 26 25 28 29 23 27 30 31 33 35 35 36 34 28
39 39 38 38 41 41 43 43 44 42 42 35 30 22 23 35 35 29 26 23 20 28 27 27 31 34 31 29 27 28 32 33 33 29 36 32 28 24 22 26 29 29 32 34 36 30 31
37 38 37 37 39 41 42 43 43 42 42 34 31 23 27 21 27 27 30 27 25 24 32 32 33 32 30 28 29 27 30 28 30 34 30 28 22 26 27 27 30 30 30 31 31 33 31
35 35 35 37 39 41 41 43 44 43 42 32 22 25 29 28 27 26 28 27 27 28 33 32 28 29 31 30 29 28 29 29 29 30 28 28 23 25 24 24 28 27 25 22 22 24 27
36 35 38 37 39 40 42 43 44 43 39 30 30 30 28 24 23 24 27 27 26 31 32 29 28 29 27 31 32 31 32 32 31 30 26 26 25 24 21 23 22 16 20 32 32 34 35
38 35 35 36 39 40 42 42 43 44 38 32 32 29 23 18 22 22 21 23 22 24 28 29 34 30 35 38 34 32 30 30 32 30 31 26 26 26 23 22 12 13 19 33 31 36 37
36 36 36 37 38 39 42 43 43 44 43 34 34 32 27 21 24 24 24 23 24 24 29 31 36 38 38 34 27 23 24 22 24 29 30 29 26 23 20 20 18 19 28 31 32 31 40
37 37 35 38 38 40 41 43 43 44 44 41 35 36 34 25 20 26 24 23 21 27 27 29 34 37 35 30 27 21 19 22 21 22 31 30 28 25 23 19 11 17 34 36 36 29 38
36 38 35 37 38 40 41 43 44 45 45 43 39 37 36 27 27 27 25 26 30 29 27 30 32 34 33 26 24 24 23 25 19 22 25 26 26 25 23 23 24 30 35 37 26 30 37
37 38 36 37 38 39 41 43 44 45 45 43 41 37 36 26 27 27 27 24 26 30 27 28 25 30 30 26 25 25 24 25 26 24 25 24 25 23 24 23 19 36 35 30 35 34 36
37 37 36 37 38 40 42 44 44 45 46 45 40 38 38 35 28 33 31 30 30 32 29 29 30 34 34 31 30 30 27 26 27 23 31 24 32 30 27 25 37 37 37 35 33 32 32

GFSGBSN_sfc_dewp_102.txt.gz
Dewpoint
46 45 48 47 46 45 45 45 45 45 46 46 47 47 47 48 48 47 48 49 48 47 46 47 46 46 42 32 26 14 44 39 23 36 34 30 28 28 28 27 28 27 25 23 23 22 20
46 46 45 46 46 46 46 45 44 46 45 46 46 47 47 47 47 46 46 48 49 48 47 47 46 46 39 32 22 26 26 26 23 35 31 30 26 29 27 26 25 26 26 24 23 23 23
45 48 48 47 45 44 44 44 45 45 45 45 46 46 46 47 46 46 46 47 48 49 47 47 47 43 38 31 24 24 24 25 26 27 26 34 28 26 26 25 25 23 21 21 21 23 23
44 46 46 45 44 44 44 45 44 44 45 45 45 45 46 46 46 46 46 48 48 48 47 49 49 43 34 32 32 30 30 30 28 28 25 26 31 33 27 26 24 21 23 23 24 24 22
43 43 42 42 42 41 41 42 44 44 44 44 44 44 45 46 47 47 48 48 48 45 48 48 44 42 30 38 34 35 37 35 28 28 27 23 21 32 32 29 23 25 22 25 24 26 24
41 41 40 39 40 40 40 43 44 43 43 43 43 43 44 45 46 47 47 47 43 46 43 41 39 37 33 20 31 34 37 37 34 29 24 23 20 23 26 24 21 20 20 22 23 24 25
40 40 43 41 39 39 41 41 43 43 43 43 43 43 43 44 44 46 41 29 25 28 30 25 23 27 23 22 21 23 36 33 34 28 7 17 14 16 20 23 21 18 16 17 19 23 26
39 38 38 38 39 38 38 38 41 41 41 42 42 43 43 44 44 44 37 29 32 35 32 28 27 28 28 28 27 23 23 28 31 20 14 16 12 12 15 21 20 17 16 17 17 19 21
39 39 37 37 37 38 38 40 41 42 42 42 43 43 44 44 44 38 35 31 35 37 31 23 25 26 28 32 29 27 22 27 27 22 19 13 8 8 13 17 18 17 16 17 17 17 17
38 38 36 37 38 39 41 41 41 41 41 42 42 43 43 43 38 35 28 34 36 39 27 15 24 29 31 31 30 30 24 27 25 23 22 18 20 21 20 17 18 15 18 19 17 16 14
37 37 37 38 40 41 40 40 41 41 41 42 42 42 43 43 36 29 31 37 38 41 4 12 24 33 31 30 29 25 28 23 23 26 28 24 24 22 21 20 19 18 22 19 19 20 23
37 38 40 39 39 39 39 40 41 42 43 43 43 42 43 36 35 34 37 39 39 24 0 7 16 25 22 27 30 26 27 24 25 27 27 29 31 26 25 27 21 30 29 29 29 26 23
38 38 39 39 39 39 38 40 42 43 43 43 43 43 40 35 31 39 40 33 19 9 0 10 21 21 21 26 25 25 24 23 20 25 26 29 32 33 33 33 34 30 28 27 27 26 19
39 36 37 39 39 39 40 41 42 43 44 44 44 42 37 36 39 41 37 23 10 -4 7 18 20 22 26 33 28 23 22 16 21 18 20 21 24 32 34 28 27 29 26 22 12 16 17
40 34 36 38 37 39 41 42 42 43 44 44 42 35 37 39 42 41 30 18 2 10 18 20 22 20 27 26 35 22 20 12 18 21 19 20 21 31 32 32 29 29 29 30 28 28 26
37 34 38 37 38 39 41 42 43 43 44 42 34 34 34 43 43 37 29 16 14 15 15 20 24 26 24 24 32 21 17 15 19 23 24 22 24 29 32 32 34 30 32 29 30 23 20
37 36 37 37 38 39 41 42 43 44 42 41 36 28 37 42 41 32 26 18 19 19 19 25 23 22 29 27 30 31 23 20 21 25 24 25 25 31 32 29 28 32 30 31 30 31 25
36 35 38 37 38 38 41 42 43 43 40 37 35 30 36 41 34 32 24 23 25 19 19 24 24 27 30 30 28 32 30 27 30 25 23 28 29 28 26 30 30 30 28 29 29 27 28
38 37 38 39 37 38 40 42 43 41 39 36 32 27 35 41 26 25 24 22 23 23 23 27 27 31 32 30 29 35 31 32 29 28 29 31 28 26 28 30 31 28 30 33 36 35 28
37 37 38 39 37 38 39 41 43 42 40 35 36 31 27 35 33 26 24 23 22 25 26 29 34 35 33 33 36 34 35 33 33 31 38 33 27 24 20 26 29 30 29 29 30 30 25
38 37 39 38 35 35 38 41 42 43 40 34 36 29 28 28 27 28 26 23 21 26 28 35 35 33 32 31 32 32 35 34 34 35 33 30 22 23 22 24 24 24 23 22 20 22 24
38 39 39 35 32 35 38 40 42 43 39 34 34 28 27 23 25 26 25 22 18 25 30 30 30 30 29 28 31 31 33 32 32 31 31 31 22 18 17 21 21 19 17 13 15 22 26
38 38 36 35 35 36 38 40 42 44 39 35 34 33 27 21 16 20 25 23 21 22 24 23 30 29 28 31 34 34 34 34 32 30 27 24 22 15 15 16 15 12 15 18 20 23 28
38 39 37 36 37 35 37 39 42 44 39 34 33 30 30 25 19 18 20 19 19 21 22 23 30 29 30 35 35 31 31 28 28 29 30 22 19 20 17 18 4 16 24 23 21 29 35
39 36 37 35 35 35 38 39 42 43 41 35 34 32 28 28 21 18 21 23 21 21 23 28 29 32 37 34 27 14 21 22 26 30 28 28 23 21 18 13 17 26 28 28 27 27 34
38 37 39 35 36 37 38 39 42 42 44 42 37 36 36 30 21 21 23 24 23 25 24 28 31 36 36 32 28 18 17 17 16 22 28 27 28 24 21 14 12 26 29 31 31 26 34
37 37 39 36 37 37 38 39 41 41 43 42 39 40 38 33 27 26 22 23 26 25 25 28 30 32 35 31 26 22 18 22 18 17 22 25 26 24 24 21 23 31 30 32 23 28 35
37 37 39 37 39 36 35 38 39 41 43 43 41 39 38 35 30 29 28 26 25 27 26 28 32 31 32 27 25 26 25 26 24 27 27 23 26 26 25 22 20 35 30 29 34 34 35
36 39 38 38 38 37 36 38 39 41 42 44 39 39 40 37 33 35 34 33 30 29 30 30 29 30 32 29 28 29 27 29 26 22 29 29 30 28 28 28 33 34 32 32 32 31 33

GFSGBSN_sfc_dewp_105.txt.gz
Dewpoint
49 49 48 48 46 45 45 44 44 45 45 45 46 47 47 47 47 47 47 48 47 47 46 46 47 47 42 27 25 22 46 42 23 20 31 33 29 24 23 25 25 24 24 25 24 23 22
47 47 48 47 46 46 45 43 44 45 45 45 46 46 47 47 47 47 46 47 48 47 46 47 47 47 39 29 25 19 17 21 18 9 26 27 28 26 23 23 26 27 25 26 25 24 24
47 48 48 47 46 44 43 44 45 44 45 45 45 46 46 46 46 46 46 47 48 48 47 47 49 44 37 28 23 18 19 20 16 18 17 26 29 27 27 26 27 27 25 25 24 26 24
47 49 48 46 45 44 44 43 43 43 44 44 44 44 44 45 45 45 46 48 48 47 46 47 50 44 32 26 26 25 24 22 22 22 17 22 27 32 27 27 25 22 25 22 24 22 22
46 46 45 44 43 41 40 40 43 42 43 43 43 43 44 45 46 47 47 47 48 47 45 49 46 42 30 38 32 29 28 28 28 27 21 18 21 28 29 26 23 24 20 21 20 21 22
44 44 43 42 41 40 41 43 43 43 43 43 43 43 43 44 46 46 47 47 43 45 43 39 35 36 33 22 25 29 32 32 35 32 22 18 19 16 19 24 21 22 20 20 20 22 23
43 42 42 42 41 40 39 39 41 41 41 42 42 43 44 44 45 46 43 29 25 27 29 23 19 28 19 14 14 15 15 28 33 31 22 15 13 10 12 22 24 23 21 20 20 21 23
42 43 42 41 40 38 37 38 39 40 42 42 43 43 43 44 44 45 40 28 28 31 30 26 23 22 21 22 24 24 20 21 28 26 21 9 8 8 10 15 22 22 21 19 17 16 22
42 41 40 40 39 38 39 40 40 41 41 42 43 43 43 44 44 40 31 30 30 32 29 20 17 19 22 29 29 27 22 19 22 25 20 5 6 4 7 11 18 21 20 18 12 14 16
41 40 39 39 40 40 40 39 40 40 41 41 42 42 43 44 39 30 27 29 33 37 26 7 20 26 31 30 28 28 27 18 18 21 22 12 5 10 9 11 16 18 21 15 12 15 13
40 40 39 40 41 41 39 40 40 41 42 42 43 43 43 42 35 28 28 33 36 39 9 4 17 31 27 26 24 26 25 18 15 20 20 17 9 11 11 13 13 17 15 13 16 17 15
40 39 40 41 40 39 39 39 41 42 43 44 44 44 43 35 34 31 36 38 36 26 7 0 8 18 19 17 18 21 24 26 15 19 20 19 19 18 13 15 20 17 18 19 18 17 17
39 40 42 40 40 40 38 39 41 42 44 44 44 44 40 34 32 39 41 33 18 15 2 3 11 11 11 18 26 27 28 24 13 18 28 23 27 20 19 19 22 19 22 24 24 22 18
40 40 40 41 40 39 40 40 41 43 44 44 44 43 40 35 39 42 37 24 10 -1 0 7 9 10 18 26 26 29 22 17 16 15 20 21 28 26 27 22 20 24 24 19 15 16 13
41 39 38 41 39 39 40 41 42 43 44 45 44 37 37 40 43 40 31 20 7 7 9 11 11 15 23 22 26 33 29 15 13 18 30 22 28 32 29 26 27 29 25 24 28 27 24
42 38 38 39 38 40 40 42 42 43 44 43 34 32 33 42 43 38 29 16 13 12 13 15 20 17 22 22 29 27 23 16 13 19 31 25 25 28 28 29 29 29 27 26 28 19 15
40 38 39 39 39 39 40 42 43 44 43 41 36 27 35 41 41 31 28 17 16 17 17 20 22 24 27 27 31 27 17 10 12 22 22 26 26 27 29 27 24 29 29 31 29 29 25
39 38 38 38 39 39 40 41 43 43 42 39 34 33 35 40 36 30 23 20 25 22 24 24 26 29 31 32 31 32 27 13 18 19 18 22 25 26 30 23 25 24 25 27 26 25 26
38 37 38 38 39 38 40 41 43 42 42 35 28 25 36 39 29 26 22 20 20 23 23 27 31 35 36 32 28 31 33 32 27 24 24 25 27 25 31 27 30 28 26 29 33 31 28
38 38 39 40 39 39 40 40 42 43 42 37 37 35 28 31 32 26 23 20 21 26 28 28 34 36 35 33 33 32 36 35 34 31 38 34 28 26 22 23 27 28 29 28 28 29 26
39 38 38 40 38 37 38 40 41 43 42 37 38 31 26 32 28 26 25 21 20 25 27 29 35 28 32 30 29 32 35 34 32 36 33 31 28 31 28 27 27 27 27 26 27 24 22
39 38 39 40 37 35 37 40 41 43 42 35 33 29 26 23 22 25 26 21 18 21 26 27 26 26 26 25 29 30 32 32 35 35 33 32 20 20 20 21 22 22 18 14 13 17 22
39 38 40 38 36 36 37 39 40 44 42 32 32 31 27 23 16 20 24 20 19 21 23 21 26 27 24 28 33 33 32 32 31 28 32 30 22 19 17 14 13 14 17 17 18 31 32
40 39 38 37 36 37 37 39 40 43 43 36 33 30 28 26 17 17 17 17 17 18 19 22 27 27 28 33 33 29 30 28 28 27 28 21 20 18 16 17 10 21 23 22 29 31 32
40 39 38 38 38 36 36 39 40 42 44 38 36 32 27 27 19 17 20 19 21 21 22 23 27 29 35 33 27 19 22 24 21 25 24 26 22 21 17 13 18 25 25 26 26 32 31
40 40 38 39 38 36 38 39 39 42 44 41 38 38 34 29 22 21 22 20 20 22 24 24 29 34 35 30 27 16 17 18 16 19 22 23 24 23 21 12 18 30 29 29 28 30 34
40 38 38 39 38 38 37 38 39 41 42 42 41 41 37 35 27 27 25 25 24 23 23 25 29 31 34 31 28 21 19 18 17 17 20 23 24 24 23 20 27 32 32 32 28 28 34
40 39 39 40 39 39 38 39 39 40 41 44 42 41 38 36 30 30 30 28 26 26 26 26 31 31 32 28 25 25 26 24 25 22 24 25 28 26 24 22 24 32 30 30 33 34 35
40 39 39 40 40 40 38 38 38 39 41 44 41 40 40 39 32 38 37 36 33 32 30 28 27 31 31 30 29 29 29 29 25 29 28 28 28 28 28 27 32 32 31 33 32 32 32

GFSGBSN_sfc_dewp_108.txt.gz
Dewpoint
52 50 49 48 47 46 46 44 43 44 44 45 46 46 46 47 47 47 47 47 47 46 46 46 46 47 43 26 24 23 53 47 30 19 15 21 29 32 22 16 21 25 26 25 24 24 24
50 50 49 48 47 46 46 44 43 44 44 45 46 46 46 46 46 46 46 46 46 46 46 47 47 47 42 31 26 21 19 18 14 14 12 8 21 27 26 21 19 23 25 25 25 24 24
49 48 50 48 47 46 44 44 45 43 44 44 44 45 45 45 45 45 45 46 48 47 47 47 47 44 39 33 25 25 21 14 15 14 13 12 10 23 24 25 24 21 21 25 25 24 24
49 48 48 48 46 45 45 44 43 43 43 43 44 44 44 44 45 45 45 47 48 47 47 47 47 45 37 34 28 23 22 22 19 17 16 17 16 18 24 26 25 23 24 21 25 25 25
48 50 49 47 46 45 43 41 43 42 42 43 43 43 44 44 46 47 47 47 48 47 47 47 44 42 35 36 29 28 26 23 21 21 20 17 16 15 22 26 24 23 21 23 23 25 25
49 49 48 46 43 42 41 43 43 42 42 42 43 43 44 44 46 47 46 47 46 46 41 37 39 38 36 27 18 24 27 30 26 30 30 26 17 11 16 22 22 21 21 21 21 21 23
48 48 46 44 43 42 43 41 41 40 41 42 43 43 44 44 44 46 43 36 25 27 32 27 23 30 23 19 15 13 12 13 15 25 27 27 15 9 10 15 20 20 19 19 20 21 21
47 46 44 43 42 41 40 39 39 40 41 42 43 43 43 44 44 46 41 29 26 28 26 25 24 22 21 20 17 16 19 19 14 9 24 23 18 11 8 8 12 14 19 21 24 26 23
47 46 45 43 42 40 39 40 40 40 41 42 43 43 43 44 45 41 31 27 27 32 26 20 16 14 15 16 18 21 26 24 16 9 19 19 17 14 6 5 7 11 16 24 25 24 19
46 44 43 42 41 41 42 40 40 40 41 42 43 43 44 45 40 32 27 27 31 35 24 15 16 27 26 29 23 24 25 26 23 12 14 18 17 14 6 4 5 9 15 22 22 21 13
45 43 42 41 42 42 41 41 40 41 42 43 44 44 44 43 38 29 28 33 34 36 14 5 17 32 17 17 28 30 23 28 24 14 14 16 21 15 7 5 4 9 18 22 21 19 17
44 43 41 42 43 42 41 40 40 41 43 44 44 44 44 35 39 34 36 39 37 27 10 1 2 4 5 7 8 23 23 30 31 15 13 11 18 23 4 11 7 13 19 21 20 19 16
43 42 41 43 42 41 40 40 40 41 43 44 45 45 42 36 33 38 41 35 28 16 1 -1 5 7 8 12 26 26 25 27 30 14 12 12 24 34 8 9 13 16 18 23 23 24 20
43 40 42 42 41 41 40 40 41 42 43 44 45 46 43 34 39 42 38 33 18 3 6 9 10 12 14 32 29 24 26 29 28 25 3 15 26 30 21 17 12 16 19 26 15 18 18
41 43 42 41 41 40 41 41 41 42 43 45 45 40 40 39 43 41 34 23 8 9 10 11 12 14 19 19 23 29 27 26 24 16 12 31 29 32 28 17 21 20 22 26 27 27 26
41 41 39 42 40 40 40 41 41 43 44 44 36 34 32 41 42 40 33 17 12 13 15 18 19 23 24 24 28 28 26 22 14 8 26 31 32 36 31 32 25 28 28 29 31 28 27
42 40 39 41 39 40 40 41 42 43 43 41 39 29 37 39 42 33 29 16 17 18 21 23 22 26 28 30 31 29 28 23 10 31 34 35 35 29 28 33 32 35 33 32 30 27 27
42 39 40 41 40 40 40 41 42 43 42 41 36 32 35 41 37 34 22 19 25 21 24 26 30 34 32 33 30 30 31 31 10 32 32 31 34 28 28 26 28 35 34 33 30 22 27
42 39 40 40 40 39 40 41 42 43 42 39 30 26 35 39 30 26 21 20 21 24 25 26 30 33 35 32 29 32 32 36 34 31 33 31 30 28 29 30 30 30 27 28 32 33 28
40 39 38 40 40 39 40 40 41 43 43 39 37 35 29 29 29 26 21 22 20 25 25 26 28 34 33 33 32 32 34 35 34 34 40 37 30 26 29 29 29 29 30 29 26 29 25
40 39 40 39 40 39 39 39 41 42 43 39 40 34 26 31 28 24 25 23 20 21 24 27 30 25 28 28 30 32 35 33 32 37 35 35 34 34 35 31 26 30 27 26 26 22 23
40 41 41 41 39 38 37 39 40 42 43 38 33 32 24 21 21 23 26 20 18 19 24 24 23 24 26 23 28 30 32 32 31 33 32 33 28 28 32 32 31 32 18 15 28 31 33
41 40 41 41 38 36 37 39 40 42 43 36 31 29 28 24 16 19 23 19 17 20 19 19 24 24 23 26 31 32 31 31 29 32 32 30 26 25 17 17 19 20 22 29 28 30 32
41 40 40 41 37 37 37 39 39 42 44 40 36 31 27 27 16 15 16 18 17 18 20 20 24 25 26 32 33 30 28 25 25 26 31 28 23 23 18 19 22 27 30 30 30 30 31
41 41 40 39 37 38 37 38 39 41 42 41 39 34 31 29 20 15 18 18 20 21 22 21 25 28 33 33 28 25 24 25 21 22 23 26 26 25 21 17 24 28 30 30 31 30 32
41 41 40 39 40 38 37 39 38 41 42 41 43 39 34 29 30 21 20 22 21 22 23 24 28 33 34 30 32 20 17 18 19 25 21 23 29 28 25 16 21 28 28 31 31 27 33
42 41 41 40 40 39 38 38 39 41 42 41 41 43 36 34 28 28 25 25 24 23 23 26 26 30 33 33 29 23 23 21 22 21 23 27 28 27 26 24 27 28 30 31 26 26 34
42 41 41 41 40 39 39 38 39 41 42 43 42 42 37 36 31 31 31 28 28 27 27 26 29 31 32 28 24 24 25 23 29 25 25 25 28 26 28 25 22 30 28 26 31 35 35
41 41 41 41 40 41 39 39 39 39 40 43 42 42 40 38 34 38 36 36 34 32 32 29 26 30 32 30 29 28 29 31 25 29 28 27 28 26 26 26 31 31 31 33 32 32 32

GFSGBSN_sfc_dewp_111.txt.gz
Dewpoint
55 54 52 50 49 48 47 45 44 44 44 45 46 46 46 46 46 46 46 46 46 46 46 46 46 47 44 35 33 31 52 53 43 30 21 19 17 32 33 26 21 14 19 25 28 28 28
54 54 52 50 48 47 47 45 43 45 44 45 46 46 45 45 45 45 45 45 46 46 46 46 47 46 41 33 30 28 29 34 34 27 16 14 12 9 16 28 28 21 18 17 24 26 26
54 53 51 50 48 47 47 45 45 44 44 44 44 45 45 45 45 45 46 46 47 46 46 47 47 43 39 34 34 35 34 32 28 21 15 16 15 9 12 17 25 26 24 22 20 21 24
53 52 50 50 48 48 46 45 44 43 42 43 44 44 44 45 45 46 46 48 48 47 47 48 47 44 37 36 37 35 32 30 26 25 21 18 17 16 17 17 17 20 22 22 22 21 21
52 50 50 49 48 46 46 44 44 42 42 42 43 43 44 45 46 47 47 47 48 48 48 48 44 43 38 42 37 35 33 27 24 23 22 17 15 15 16 13 17 23 21 22 22 23 21
51 49 49 49 47 46 44 43 44 43 41 42 43 44 44 44 46 46 47 47 47 48 44 37 38 37 40 34 29 21 21 18 28 29 25 27 19 15 14 10 13 19 23 22 21 23 24
50 50 50 49 46 44 43 44 43 41 41 42 43 44 44 44 44 46 45 37 25 27 26 24 27 31 29 24 22 19 20 18 17 14 12 23 27 21 17 11 11 17 21 22 21 23 23
51 51 49 47 45 44 44 42 41 41 41 41 42 43 43 44 44 46 43 26 25 27 28 27 25 24 24 23 21 21 20 17 16 15 16 10 19 25 21 14 10 11 12 13 16 19 21
50 48 48 47 46 45 43 41 41 41 40 41 42 43 44 45 46 43 32 26 30 34 27 24 20 19 30 31 26 25 28 33 30 19 19 15 9 24 23 15 9 7 8 11 13 15 25
48 47 46 46 45 43 42 42 42 40 41 42 43 44 45 46 41 37 29 33 34 36 23 21 19 28 22 8 20 16 31 34 33 29 28 17 12 13 19 17 11 4 6 9 11 13 28
46 47 47 46 44 42 43 42 41 41 42 43 44 45 45 44 39 35 35 38 36 35 11 3 4 28 10 8 10 10 25 25 29 32 29 28 15 12 16 21 11 6 9 9 19 32 30
47 46 45 44 43 44 42 41 42 42 42 44 44 45 45 41 40 38 40 41 38 25 8 4 10 10 12 15 26 25 24 28 31 31 28 27 19 13 18 26 29 11 15 30 29 28 24
46 45 43 43 44 43 41 42 41 41 43 44 45 46 44 40 35 39 41 38 26 11 7 6 10 13 15 17 24 27 24 24 24 23 24 23 19 13 26 26 29 16 25 23 22 22 20
45 44 42 43 43 42 41 41 41 41 43 44 46 46 43 39 41 42 40 31 16 8 8 12 16 18 17 23 25 26 26 24 26 26 26 17 13 20 29 28 25 19 23 23 18 21 20
45 42 42 42 42 42 41 41 41 42 43 45 45 41 41 41 41 41 35 20 11 12 13 17 20 20 22 24 30 30 26 25 26 29 25 24 14 31 31 32 25 19 20 27 29 29 27
43 41 44 42 41 41 41 41 41 42 44 44 38 39 38 39 40 40 30 24 16 17 19 22 23 25 24 26 28 28 29 30 30 30 29 32 24 34 31 34 34 22 23 25 32 25 25
42 43 41 43 41 40 40 41 41 43 44 42 38 34 38 38 41 36 22 19 19 19 27 28 27 27 28 27 28 27 26 28 35 33 34 35 30 34 36 31 27 32 30 33 34 33 27
42 42 40 42 40 40 40 41 41 43 43 41 38 31 37 40 31 32 24 21 26 24 27 28 30 32 32 31 28 27 28 32 37 34 30 35 33 31 32 37 36 37 33 32 31 30 32
43 41 41 42 40 40 40 41 42 43 43 39 35 33 37 39 23 24 25 24 23 25 25 26 29 32 32 30 25 27 32 35 37 35 35 36 34 27 27 34 36 35 35 35 35 36 32
43 41 41 41 40 39 39 40 41 43 43 40 35 27 32 33 29 26 24 25 23 25 24 26 27 31 30 26 32 31 32 33 35 35 40 39 34 32 28 32 33 32 32 33 36 31 32
43 41 39 41 40 39 39 39 41 42 43 39 34 28 30 23 27 23 26 25 22 21 24 27 27 26 26 23 26 26 33 33 32 36 35 35 32 33 34 33 35 34 34 34 32 31 31
41 41 41 41 41 39 39 39 40 42 43 37 24 32 24 22 23 22 28 25 19 19 24 25 24 25 26 24 27 28 32 33 30 32 34 35 33 32 31 32 32 33 29 30 32 36 36
41 41 42 41 41 38 37 38 40 42 43 38 35 31 29 28 20 22 25 22 21 24 23 20 25 25 25 26 29 30 32 34 33 34 32 31 30 29 26 28 28 28 29 29 30 32 32
41 41 40 41 40 37 37 39 40 42 43 42 39 37 29 25 23 18 19 19 20 21 23 25 27 25 28 32 32 33 32 31 28 34 32 29 30 27 23 23 23 30 30 30 30 31 31
42 41 39 41 39 38 39 39 39 41 42 41 39 36 32 25 24 21 20 21 23 26 25 27 27 28 34 32 31 26 26 28 28 30 30 32 30 26 23 26 30 26 26 28 29 29 32
42 41 40 41 41 40 40 39 39 41 41 41 41 41 35 29 28 27 25 27 24 22 25 29 27 34 33 33 30 23 21 23 25 25 27 30 31 30 26 22 21 25 27 29 32 23 33
42 41 42 42 41 41 40 40 39 41 42 41 40 41 36 28 33 31 26 26 28 27 26 28 28 30 32 28 27 24 24 24 27 25 26 26 28 25 27 25 24 28 28 29 23 24 35
42 42 42 41 42 41 41 40 41 41 42 42 39 41 39 34 32 36 34 30 29 29 25 29 27 29 28 26 25 26 26 28 30 28 27 26 27 24 25 22 18 30 28 25 32 34 35
42 42 42 42 41 41 41 41 41 41 42 42 40 43 40 35 33 36 37 37 35 33 32 31 29 32 32 26 27 28 29 28 26 25 30 26 29 25 26 24 32 32 32 34 34 32 32

GFSGBSN_sfc_dewp_114.txt.gz
Dewpoint
56 55 55 55 53 51 50 48 46 46 45 45 45 46 46 46 45 45 45 46 46 46 46 46 46 47 44 36 33 34 50 49 47 32 23 22 22 26 34 29 24 15 11 13 16 24 29
55 55 55 54 52 50 49 47 46 46 45 45 45 45 45 45 45 45 46 46 47 46 46 46 47 47 41 28 28 32 33 33 35 32 27 22 16 13 11 10 21 29 26 20 17 16 17
56 55 55 53 52 50 49 48 46 47 45 44 44 44 44 45 45 45 45 45 46 46 47 47 47 44 39 31 32 32 36 36 32 28 25 20 16 14 13 14 16 20 25 28 26 23 20
56 56 54 52 51 50 50 47 47 46 44 43 43 43 44 45 45 45 45 47 47 47 47 48 48 44 37 38 38 36 36 34 31 27 27 25 21 18 16 17 15 12 16 17 22 24 25
55 55 54 52 51 50 49 47 46 45 44 43 42 43 44 45 45 46 47 48 48 48 49 48 44 43 37 44 38 32 34 31 20 25 26 22 20 16 16 14 12 14 9 13 18 24 24
56 55 53 53 51 49 47 47 46 45 43 42 43 43 44 45 46 47 47 48 47 47 45 43 39 37 38 27 29 24 21 21 20 19 19 23 23 17 15 12 9 7 12 16 21 23 23
55 54 53 52 50 48 47 45 46 45 42 42 43 43 44 44 45 47 46 36 25 24 27 20 21 23 24 23 24 22 23 22 21 19 15 15 12 12 22 18 14 12 10 11 16 21 20
54 54 53 52 49 47 46 46 45 43 42 42 42 43 43 45 45 47 42 26 28 28 27 27 27 25 25 25 22 22 23 22 24 23 29 22 13 12 11 22 22 15 12 9 11 15 16
53 52 52 50 48 46 46 45 43 42 42 40 42 43 45 45 46 41 33 31 32 32 27 26 24 22 22 26 10 11 26 31 32 28 28 27 26 19 11 11 21 20 13 10 7 7 9
52 52 51 49 47 47 46 44 43 42 41 42 43 44 45 46 40 37 33 37 36 34 22 10 20 25 24 14 14 14 29 32 33 26 27 31 32 29 21 14 14 27 20 12 8 9 11
52 51 50 48 46 45 44 43 42 41 41 43 44 45 45 45 38 35 35 38 38 34 6 9 11 21 15 15 18 20 22 27 23 23 29 23 26 27 28 13 14 24 29 16 9 9 25
50 49 47 47 46 45 44 44 42 42 43 43 44 45 46 40 40 37 39 40 36 17 3 11 13 14 19 20 20 24 27 27 27 27 30 28 28 27 25 20 18 25 28 25 30 31 23
47 46 46 47 46 46 45 43 43 43 42 44 44 45 45 41 35 39 41 36 18 8 11 10 12 18 20 19 23 25 25 26 24 22 24 24 24 23 22 15 21 29 28 18 20 22 19
47 47 47 46 45 45 43 43 42 42 43 44 45 47 43 41 40 41 38 27 9 9 11 14 18 21 20 24 27 28 29 25 26 24 23 23 17 17 21 17 19 24 23 18 13 19 21
46 45 44 44 45 44 43 42 42 42 43 44 45 40 40 41 40 40 32 16 10 13 15 21 22 23 23 24 28 30 28 27 28 29 25 24 18 27 28 32 33 28 24 25 26 30 24
45 44 44 46 45 43 42 42 42 43 43 43 37 38 38 40 40 39 27 20 18 19 25 25 23 27 25 25 25 27 26 29 34 36 30 31 23 28 30 36 33 33 27 23 27 18 16
44 43 45 44 43 42 42 42 43 43 43 43 37 34 37 39 41 32 21 19 20 26 27 28 27 28 27 29 27 27 26 30 35 36 36 35 31 25 32 31 29 28 28 32 29 29 22
43 45 44 43 42 41 41 43 43 43 43 40 37 30 36 40 30 29 23 21 28 26 27 27 29 31 29 29 27 27 29 34 35 37 34 35 33 27 33 37 37 36 32 31 23 26 32
43 42 44 42 41 41 42 42 43 44 43 39 35 31 36 38 23 22 25 25 27 25 26 26 27 31 30 29 21 26 31 34 35 34 34 36 34 27 30 34 37 33 34 32 36 34 31
43 41 42 42 41 41 41 42 42 43 43 38 34 27 30 33 29 25 24 24 24 25 25 25 26 28 27 22 28 23 30 33 34 35 40 39 32 29 25 29 34 34 32 34 35 30 27
43 42 43 41 40 39 40 41 42 43 44 38 31 27 29 23 27 23 24 26 21 19 24 25 25 26 24 17 23 24 30 31 34 34 34 34 29 32 34 35 35 33 35 35 34 33 27
43 42 42 42 41 39 40 40 41 43 43 37 26 30 26 22 28 22 26 25 19 19 22 21 23 25 25 23 25 25 28 30 31 32 32 34 30 32 31 33 32 30 32 33 34 33 31
42 41 41 41 41 40 39 40 41 43 42 37 36 34 29 27 20 22 24 22 21 25 23 22 25 24 24 25 28 29 30 31 31 32 32 29 29 30 26 32 30 23 29 30 30 31 32
42 40 40 41 41 39 38 40 42 42 43 40 37 35 28 23 24 19 22 20 21 24 25 27 27 25 27 31 32 32 32 32 33 33 34 30 29 28 27 28 17 29 34 29 28 31 31
43 42 40 41 40 39 39 40 41 42 42 40 39 35 30 23 27 26 27 27 25 26 25 27 26 27 32 32 30 25 25 25 29 31 30 32 31 27 27 25 27 24 27 27 27 27 34
43 42 41 42 41 41 41 41 41 42 41 40 39 39 33 27 27 30 26 26 24 25 26 28 30 31 32 31 27 23 23 23 25 27 29 30 31 29 28 21 18 24 27 28 29 22 34
43 42 42 42 41 41 41 41 41 42 43 40 38 38 34 27 32 31 28 26 28 27 26 28 28 30 31 25 24 23 23 29 27 25 26 27 28 24 26 23 24 27 28 30 21 23 34
43 43 43 42 42 41 41 41 43 43 43 40 38 40 36 29 31 35 35 30 31 29 24 27 25 28 27 24 24 24 25 28 29 28 28 27 25 22 24 19 16 30 26 26 30 33 32
43 43 43 42 42 41 42 42 43 43 43 41 37 42 39 32 29 36 34 35 34 32 31 30 32 32 31 25 28 26 27 28 26 22 31 25 26 24 25 23 31 32 32 33 32 30 27

GFSGBSN_sfc_dewp_117.txt.gz
Dewpoint
58 57 56 55 55 55 53 52 49 48 47 46 46 46 46 46 46 46 46 46 47 47 47 46 46 48 43 30 21 31 45 40 39 37 27 22 22 27 32 23 22 12 8 9 13 13 12
57 57 56 55 55 55 53 51 49 48 47 47 46 46 45 45 45 45 46 46 46 46 46 47 47 46 39 15 26 32 33 35 32 34 30 24 20 16 12 12 17 22 14 14 15 19 23
58 57 56 55 55 54 53 51 50 47 48 47 46 45 44 44 44 45 46 46 46 47 47 47 47 44 39 32 34 38 38 35 34 30 28 25 19 15 16 15 16 16 11 11 11 16 24
58 57 56 55 55 53 52 51 49 47 47 46 44 44 44 44 45 45 46 46 47 48 48 48 47 43 37 39 39 40 35 33 32 32 29 27 25 21 17 17 16 12 12 9 12 16 19
58 57 56 55 54 52 52 51 49 48 47 45 44 43 44 45 45 45 46 47 48 49 48 49 44 41 36 43 38 33 28 27 21 21 23 22 22 19 17 13 12 12 8 9 9 10 17
58 57 56 55 54 52 52 51 48 47 46 45 43 43 44 44 45 47 48 48 47 44 47 45 42 36 35 23 26 27 24 21 21 21 18 18 18 19 17 13 14 13 8 6 8 10 18
58 57 56 55 53 53 51 49 48 47 46 44 43 43 43 44 45 47 46 33 23 18 25 13 25 25 23 23 25 23 24 24 21 19 16 16 12 10 11 18 18 18 17 15 13 13 12
58 57 56 55 53 52 50 49 48 47 45 43 43 41 43 45 45 47 39 28 26 26 25 26 27 26 26 25 22 20 23 23 27 21 28 26 18 20 18 15 12 14 19 18 18 17 16
57 56 55 54 53 51 50 48 47 45 43 43 41 42 44 45 46 38 33 32 33 31 24 25 26 24 23 25 17 12 23 29 28 27 28 25 21 24 23 18 15 11 9 17 22 21 14
56 55 54 53 52 50 48 48 46 44 43 42 43 43 45 46 37 36 34 38 36 33 19 11 20 23 20 17 17 17 23 25 32 26 25 26 26 30 30 25 21 17 17 16 25 24 14
55 54 53 52 50 49 49 47 46 45 43 43 43 44 45 45 34 33 35 39 38 33 3 11 11 17 19 19 21 21 27 29 25 24 26 22 23 24 22 24 25 24 19 20 24 26 16
54 53 52 50 49 49 48 46 45 43 43 43 43 44 45 41 39 36 38 40 35 16 2 12 14 17 21 22 22 23 26 29 27 25 24 24 25 27 25 25 25 23 27 28 28 23 14
52 51 50 49 48 47 46 45 44 44 43 43 43 44 44 41 34 39 40 35 15 8 13 10 14 20 22 22 25 28 28 28 25 23 21 25 26 28 28 26 25 25 25 20 14 16 18
51 50 48 48 47 46 45 43 43 44 43 43 44 46 43 41 39 40 36 25 9 11 13 14 19 23 22 26 26 28 28 27 29 29 27 22 20 21 19 25 16 19 24 22 12 16 18
50 48 47 46 45 45 44 43 43 43 43 44 44 40 38 40 40 40 28 17 10 12 16 23 23 24 24 25 26 28 27 26 35 36 27 26 22 23 30 33 25 26 22 22 22 25 24
46 46 46 46 45 43 43 43 43 43 44 44 36 38 38 40 41 36 27 17 16 21 26 26 23 26 21 24 22 26 26 28 35 35 37 30 27 28 30 31 33 29 32 24 25 18 17
45 45 46 46 44 43 44 43 43 44 44 43 37 33 37 41 39 30 20 18 19 26 27 27 26 25 26 24 26 25 27 29 34 33 35 35 32 26 29 26 28 31 30 29 27 27 24
45 46 45 44 43 44 43 43 44 44 44 39 37 30 37 39 30 27 24 25 28 26 27 27 28 28 26 26 26 26 28 31 33 34 32 36 34 27 30 35 37 36 29 28 21 23 30
45 44 43 43 43 42 43 44 44 44 43 39 34 31 36 36 25 23 25 26 26 25 25 25 25 29 28 22 20 24 28 32 33 32 33 35 33 25 26 33 34 33 34 35 34 34 27
46 44 43 42 41 42 43 44 44 44 43 38 34 27 30 33 29 24 23 24 22 25 23 25 25 26 25 20 28 23 28 31 32 34 39 39 34 30 25 29 34 33 31 34 32 26 26
44 44 44 43 41 43 43 43 43 44 43 37 32 27 29 24 26 24 25 25 20 18 21 25 24 25 23 16 21 23 26 29 30 34 33 36 31 31 31 33 31 33 35 35 31 31 25
44 44 44 43 41 41 42 42 43 43 43 37 31 29 25 26 26 23 25 24 18 18 21 20 21 24 25 22 22 22 26 28 29 32 31 33 31 32 29 29 26 27 30 32 30 28 27
43 43 43 42 40 41 41 42 43 43 41 37 36 34 28 26 21 21 24 22 19 23 25 25 25 24 23 24 26 27 28 28 29 29 31 30 29 30 27 30 29 20 27 28 28 31 31
44 42 41 41 40 40 40 42 43 43 43 39 37 34 27 24 23 20 25 21 23 25 25 26 26 25 27 30 32 32 31 31 32 32 32 31 30 28 27 29 16 27 31 31 28 29 31
43 41 41 41 40 39 40 42 43 43 43 40 39 34 30 25 27 26 26 25 25 26 24 27 26 26 30 31 29 25 24 25 28 29 28 31 31 30 26 22 26 26 26 27 26 26 31
43 43 42 43 42 41 41 42 43 43 43 40 39 37 32 28 28 31 25 26 24 25 25 27 30 31 31 28 25 22 23 25 25 26 29 30 29 30 28 20 17 24 27 32 29 21 31
43 43 43 43 42 42 41 41 43 43 43 40 38 38 33 29 31 30 26 25 28 27 25 26 28 29 30 23 23 23 24 29 24 25 27 26 27 24 25 22 23 26 30 35 22 22 33
43 43 43 42 42 41 41 42 43 44 43 40 38 39 34 29 29 34 34 29 29 28 23 25 23 27 26 22 23 23 24 28 29 28 28 24 24 22 23 18 16 29 27 24 29 31 33
43 43 43 42 42 42 42 43 44 44 43 41 37 40 37 31 27 35 35 34 34 31 30 30 31 30 29 23 27 25 24 27 26 21 30 23 25 23 24 22 29 31 30 32 30 25 24

GFSGBSN_sfc_dewp_120.txt.gz
Dewpoint
59 59 58 57 56 55 55 55 54 53 51 48 47 46 46 46 46 46 46 46 46 46 46 47 48 48 40 19 14 26 44 42 34 33 29 25 21 28 32 22 27 24 18 17 16 14 15
59 59 58 57 56 56 55 55 54 52 50 48 47 47 46 45 45 45 46 46 46 46 47 47 48 47 36 10 24 32 37 36 33 32 29 25 21 19 16 12 15 18 14 13 12 12 12
60 59 58 57 56 55 55 54 54 52 49 48 47 46 45 45 44 45 46 46 46 47 48 48 47 44 38 19 34 38 38 35 34 31 28 27 24 19 18 16 18 15 13 12 10 11 12
59 59 58 57 56 55 55 54 53 51 49 48 47 45 44 44 45 45 46 46 47 48 49 48 48 42 28 38 39 41 38 28 35 33 30 27 25 21 19 19 15 12 12 8 9 10 10
57 59 58 57 56 55 55 54 52 51 48 48 47 45 43 44 45 45 46 47 48 49 49 49 43 39 27 40 35 30 30 24 22 22 24 21 23 20 18 14 14 13 9 8 8 10 9
55 56 58 57 56 55 55 54 52 50 50 48 46 44 43 44 44 47 48 47 46 48 46 44 43 30 27 21 24 25 25 26 22 22 19 17 18 18 16 15 15 15 11 13 12 15 18
54 55 57 58 57 55 55 54 52 50 49 47 45 43 43 43 45 46 45 25 17 19 28 14 21 29 21 22 25 22 24 24 23 19 17 17 15 12 12 14 14 15 15 15 15 18 19
53 54 55 58 57 56 55 53 51 50 48 46 44 43 42 43 45 46 36 26 23 23 15 24 26 25 26 25 22 21 23 19 26 18 25 25 18 18 19 17 14 13 12 12 13 17 17
52 53 54 57 57 56 54 53 51 49 48 45 44 43 43 44 46 36 33 32 34 29 19 23 26 25 23 25 20 15 21 27 26 23 27 21 18 24 23 23 20 19 17 15 11 11 13
52 52 53 56 56 55 53 52 50 48 46 46 44 44 45 45 37 35 34 37 34 32 13 11 20 22 20 21 20 19 23 25 28 26 23 24 26 25 27 27 25 21 20 19 17 16 18
54 52 52 56 55 53 52 50 49 47 46 44 45 45 45 44 34 31 35 39 37 30 -10 13 14 18 21 20 22 21 27 29 25 23 25 23 24 25 23 21 26 22 25 23 22 20 21
55 53 53 55 53 52 50 49 48 46 44 44 45 46 45 41 37 35 38 39 34 12 -2 12 15 17 22 23 23 25 28 29 28 25 25 24 25 25 24 24 25 26 25 24 24 24 19
54 53 55 53 52 50 49 48 46 45 45 45 45 46 44 40 34 39 39 34 10 7 13 11 16 22 22 22 25 28 28 28 26 25 23 25 25 27 27 26 27 25 23 16 14 14 16
54 55 53 52 50 49 48 47 46 46 45 45 46 46 44 41 39 40 35 21 6 11 12 15 23 24 22 25 25 27 27 26 31 28 27 22 20 21 25 26 23 22 22 17 12 14 21
55 53 51 50 49 48 47 47 46 45 45 45 45 40 37 38 40 38 25 15 8 12 16 23 24 23 23 24 27 27 26 26 32 35 28 27 24 25 28 28 25 20 21 20 20 22 20
50 50 49 48 48 47 46 45 44 44 45 45 37 38 37 41 41 34 26 16 15 21 26 25 23 26 21 23 21 24 25 29 31 36 36 33 26 29 30 31 30 25 30 25 24 18 16
44 44 45 45 45 45 44 44 43 44 45 42 37 34 38 40 38 28 22 18 22 26 27 27 25 25 25 23 24 24 26 29 32 33 34 36 34 27 30 29 25 30 28 30 29 26 22
46 45 45 44 44 44 44 43 44 44 45 39 37 30 37 40 31 28 24 22 28 26 27 28 28 27 24 25 24 21 26 31 31 32 31 33 34 28 27 31 34 36 29 28 22 19 27
44 44 44 44 44 44 43 44 44 45 42 38 32 32 36 36 27 25 25 25 25 24 25 25 25 28 27 22 16 18 26 30 32 30 34 36 33 26 23 31 34 32 33 34 31 30 27
45 44 44 44 43 43 44 43 44 44 43 38 34 26 30 33 30 25 24 23 22 24 23 25 25 27 24 16 23 17 26 29 32 30 35 39 34 27 21 26 33 30 32 33 30 24 23
44 43 42 42 43 43 42 43 44 44 43 36 31 28 30 27 27 25 25 24 19 18 21 24 24 24 22 14 19 23 26 27 29 32 32 36 30 32 30 30 30 29 31 31 29 29 23
44 43 43 43 43 43 43 44 44 44 42 34 31 28 27 27 26 25 27 22 18 18 20 20 20 23 24 21 19 20 24 26 27 31 30 34 30 32 27 33 28 25 27 29 29 28 26
43 43 43 42 43 42 42 43 43 43 40 36 36 33 29 26 22 23 26 25 19 22 26 24 24 24 23 24 25 25 27 27 28 28 29 31 31 29 23 28 23 19 26 26 27 27 27
44 42 42 41 41 42 42 42 43 42 42 38 37 32 27 25 21 20 26 21 20 24 23 25 25 24 25 29 31 31 31 30 30 30 31 30 32 29 27 28 15 26 32 31 26 28 27
43 42 41 40 41 40 41 42 42 43 43 39 37 33 29 27 26 25 25 24 24 25 24 26 26 26 30 30 28 24 24 25 28 30 29 32 32 30 23 21 25 26 26 27 27 25 28
43 43 41 41 41 40 41 42 43 43 43 39 38 37 32 27 26 29 25 25 23 24 23 26 29 31 29 27 25 23 22 26 25 26 29 29 32 32 26 20 17 23 25 28 31 21 28
42 43 43 42 41 41 41 42 43 43 42 39 38 37 34 30 31 29 25 24 27 26 24 25 27 29 28 22 23 23 23 28 23 23 25 25 26 24 24 21 22 25 30 32 22 21 28
42 42 43 42 41 41 41 42 44 44 42 40 38 39 34 30 29 34 33 28 29 27 21 23 22 25 25 21 23 23 24 27 26 28 27 23 23 22 25 18 17 29 28 24 28 31 29
42 41 43 42 42 41 41 43 44 45 43 41 37 39 36 32 29 35 35 33 33 30 29 29 27 29 28 22 23 25 24 25 26 19 28 23 24 22 23 21 28 28 29 28 26 25 27

GFSGBSN_sfc_dewp_123.txt.gz
Dewpoint
61 60 59 59 58 58 57 56 55 54 54 53 51 48 46 46 46 46 45 46 46 46 47 47 48 49 39 12 8 23 45 42 34 32 27 24 20 26 23 23 23 23 23 15 14 13 11
59 60 59 59 58 58 57 56 55 54 54 52 50 48 47 46 46 45 45 46 46 47 47 48 48 48 34 12 22 36 38 34 33 29 28 25 20 19 19 16 12 14 14 14 13 13 12
55 57 59 59 58 58 57 56 55 55 54 52 50 48 48 46 45 44 45 46 47 47 48 48 47 44 34 19 33 38 39 33 34 29 22 26 24 20 17 16 18 17 14 12 8 10 10
53 54 56 58 58 57 56 56 55 55 54 51 49 48 47 46 44 45 45 46 48 49 49 48 48 43 20 35 39 39 38 25 34 32 30 27 24 22 20 20 17 13 15 9 9 9 9
50 51 53 55 56 57 56 55 55 55 53 51 49 48 46 45 45 45 46 47 48 49 49 49 43 38 23 38 30 28 32 22 22 21 24 23 23 22 17 17 17 15 8 10 10 12 13
50 50 52 53 54 57 57 56 55 55 53 51 50 47 46 45 45 46 48 47 50 48 46 44 42 27 25 21 22 24 25 25 21 22 19 18 18 18 17 17 7 8 10 11 12 13 14
50 50 51 52 53 55 58 56 55 54 52 51 49 47 45 45 44 46 40 35 22 23 35 17 18 26 21 21 24 21 23 23 21 20 14 19 13 9 12 17 13 13 13 12 12 13 14
51 50 50 51 52 54 56 57 55 53 51 51 48 45 45 44 44 46 35 22 19 22 14 23 24 24 25 25 21 20 23 19 23 18 24 22 16 16 17 17 16 16 16 15 16 16 16
51 50 49 50 52 53 55 57 55 52 51 50 47 45 44 44 44 38 32 30 33 30 17 21 24 24 24 24 19 16 20 25 23 22 23 18 16 20 20 18 18 17 19 19 18 17 17
49 49 50 51 52 52 54 57 54 52 50 49 47 45 45 45 40 36 34 37 35 33 15 14 21 21 23 22 19 19 21 25 26 23 23 23 24 23 22 21 21 18 22 20 19 19 16
48 49 50 50 51 51 52 55 53 51 49 48 45 44 45 45 36 32 34 39 36 32 -14 11 17 22 23 21 22 21 26 28 24 24 24 23 23 25 25 22 26 23 23 22 22 21 21
48 49 51 53 53 51 52 54 51 50 48 46 45 46 45 41 39 37 40 40 35 13 -10 11 15 18 21 23 24 27 29 31 28 26 25 25 25 24 23 24 23 23 24 24 25 23 18
47 48 53 55 54 52 53 52 50 48 46 46 46 46 44 41 37 40 41 34 13 9 11 11 16 22 21 23 25 27 27 28 27 25 25 26 25 26 25 24 27 25 23 16 16 21 14
46 52 55 54 53 52 53 50 48 46 46 46 46 46 43 40 41 42 38 25 5 8 10 19 23 23 21 26 25 27 27 25 31 30 27 24 20 21 25 23 18 25 22 13 6 7 10
46 54 54 53 52 53 51 48 46 46 46 47 45 41 41 42 41 39 30 20 7 11 16 23 24 20 22 24 27 27 25 26 31 35 29 27 25 27 24 26 26 21 20 20 17 17 17
45 53 53 52 52 50 48 47 46 46 47 44 40 38 36 41 42 35 27 14 15 22 25 24 22 24 22 23 25 25 25 28 30 35 36 32 29 28 29 31 30 27 26 24 23 18 19
45 44 49 50 49 48 47 47 46 46 44 43 40 36 39 42 39 30 25 17 24 26 27 26 25 26 25 26 27 24 25 28 31 31 32 33 33 27 30 29 27 30 28 27 27 27 22
46 45 43 43 46 46 46 46 45 44 44 43 39 32 39 41 33 29 24 23 30 25 28 28 29 27 27 28 26 25 25 30 30 31 29 32 34 28 29 30 32 33 31 29 25 22 27
45 45 45 44 43 43 44 44 43 43 44 41 35 35 38 38 28 28 25 25 26 25 25 25 28 28 28 26 22 24 26 29 31 29 31 36 31 23 20 27 27 31 34 36 31 30 26
43 44 43 44 44 44 44 44 43 44 43 39 35 30 32 35 31 27 25 23 22 25 25 25 27 29 25 23 26 23 27 28 31 29 34 39 31 25 21 25 29 28 30 31 32 27 23
43 43 43 44 44 44 44 44 44 45 43 37 34 30 33 30 28 27 27 24 21 19 22 26 28 24 24 19 22 24 27 26 27 32 31 36 32 32 31 30 28 27 29 30 27 29 24
43 43 44 44 44 43 43 44 44 44 42 34 33 29 30 28 29 27 28 21 18 19 23 21 21 23 25 21 18 19 23 25 27 30 30 35 31 33 28 32 28 25 27 28 27 25 25
43 42 43 43 44 44 44 44 44 44 40 35 35 32 30 25 24 26 27 23 21 26 26 23 25 24 23 24 26 25 26 27 26 26 28 31 33 30 25 30 27 19 25 26 26 26 27
44 41 43 43 43 43 43 43 43 43 42 38 37 32 29 24 22 22 24 21 23 24 25 25 27 24 25 30 32 32 30 29 29 29 29 30 30 31 26 30 17 27 32 30 26 28 26
44 42 41 42 42 42 42 42 43 43 43 39 38 33 29 27 24 25 25 25 26 27 26 26 25 27 32 29 28 25 25 27 29 31 30 32 31 29 25 21 25 27 26 27 27 24 27
44 42 41 41 41 42 42 42 43 43 42 39 39 38 33 26 27 26 25 25 23 23 23 26 29 32 30 26 26 23 20 25 25 24 29 30 32 32 25 20 18 23 25 29 30 21 26
43 43 41 41 39 41 42 42 43 44 42 39 39 39 35 32 32 29 25 26 28 26 23 25 28 30 29 26 26 24 24 28 22 21 23 23 25 25 25 21 21 25 28 31 23 23 26
43 43 43 42 41 41 42 43 44 43 43 39 39 39 35 33 32 34 32 30 29 26 21 24 26 28 27 24 24 24 26 28 27 26 25 21 23 22 25 21 18 27 31 25 29 30 27
43 43 43 43 42 41 43 43 44 44 43 40 37 39 36 34 33 36 35 35 32 29 30 31 28 30 29 26 26 27 28 28 26 22 28 23 23 22 23 22 28 29 28 28 29 28 28

GFSGBSN_sfc_dewp_126.txt.gz
Dewpoint
57 58 61 60 59 59 59 58 57 56 55 54 54 52 49 47 47 47 47 47 47 47 48 49 49 50 40 13 9 26 46 43 30 26 19 17 13 13 9 13 12 12 11 15 14 11 9
55 56 57 60 60 59 59 58 57 56 55 54 53 52 49 47 47 46 46 46 47 47 48 49 49 49 32 4 24 34 35 27 26 23 22 20 17 18 14 12 10 11 11 10 10 9 8
52 54 55 56 58 59 59 58 57 56 55 54 53 51 49 48 47 45 45 47 47 48 49 49 49 42 32 19 31 34 35 25 26 23 19 22 22 19 17 13 17 15 11 8 7 7 6
51 51 52 53 54 55 58 58 57 56 55 55 53 51 50 49 47 45 45 46 47 49 50 49 48 41 20 31 35 30 27 22 24 25 23 24 23 22 20 21 16 14 13 7 8 7 7
52 50 51 52 52 53 54 56 57 56 56 55 53 51 50 49 47 45 45 47 49 49 50 49 43 38 20 36 25 23 24 17 19 22 24 21 23 21 20 15 9 15 6 5 6 10 11
52 51 50 51 52 51 52 54 57 56 55 54 53 51 50 48 47 46 46 47 50 49 45 42 39 32 25 18 21 22 22 20 20 22 19 18 17 15 14 11 0 3 5 6 6 8 10
51 53 53 52 52 51 51 52 54 56 55 54 52 51 49 47 46 46 45 44 32 30 36 20 16 22 19 21 23 19 20 22 21 19 16 19 14 9 11 12 11 10 9 7 8 12 13
50 51 52 52 52 51 51 52 52 55 55 54 52 51 49 46 46 46 41 25 20 27 13 20 18 21 23 24 17 18 22 19 22 18 21 20 14 15 15 15 14 13 11 9 10 12 14
50 51 51 52 52 52 52 51 51 54 55 53 51 50 48 47 47 43 33 28 31 31 17 16 20 19 23 22 17 15 20 22 22 21 20 19 16 19 19 18 16 15 14 13 13 15 13
50 49 48 49 50 50 50 50 51 52 54 52 50 48 47 47 41 37 33 36 35 37 19 14 19 20 23 22 18 17 22 25 27 23 22 22 22 21 20 18 17 15 17 17 17 15 9
50 49 48 48 48 49 49 50 51 52 54 52 49 47 47 42 38 36 37 38 38 36 11 14 17 22 21 20 21 22 27 27 25 25 25 22 22 23 22 20 20 17 22 20 19 18 17
49 49 47 47 48 49 49 50 50 51 53 51 48 47 46 39 39 38 41 41 40 24 8 10 14 17 19 22 24 25 27 30 29 27 26 24 25 25 22 22 23 22 22 22 21 20 15
48 48 47 47 48 49 49 49 50 50 53 50 47 46 43 40 36 42 43 42 25 15 13 10 12 17 17 21 24 25 27 28 27 24 23 24 24 24 25 23 25 24 22 18 14 20 10
49 47 47 48 51 52 53 52 50 52 49 47 45 45 43 42 42 45 42 31 14 11 3 13 18 19 17 24 24 25 27 26 31 29 25 23 21 23 24 24 21 23 21 14 9 7 11
47 46 46 52 54 54 54 52 51 50 47 45 45 43 43 44 46 45 37 25 18 8 15 21 21 18 22 24 27 27 25 26 30 32 26 27 23 25 24 25 25 26 22 19 20 21 19
47 45 45 52 53 54 53 51 51 47 46 44 41 40 40 45 46 43 32 25 14 15 19 20 20 19 23 21 29 27 26 29 31 32 33 29 28 26 28 28 27 27 29 25 25 19 17
47 45 45 51 52 52 52 49 48 47 44 44 41 35 42 45 46 37 31 19 19 23 23 23 23 24 25 28 28 25 25 28 29 29 30 31 32 26 27 28 28 33 29 26 25 25 22
46 44 44 46 49 48 48 47 46 44 44 42 39 31 43 43 36 33 25 18 28 25 26 26 25 26 31 29 28 29 26 30 30 29 28 31 34 30 27 27 32 30 29 25 25 21 24
45 45 44 44 46 47 47 46 44 45 43 42 35 35 43 42 30 30 23 24 24 23 23 24 25 30 30 33 32 33 27 28 29 29 30 35 32 22 20 29 24 24 31 34 34 32 31
43 45 45 45 44 43 45 45 45 45 44 43 36 31 35 38 36 25 24 24 23 24 24 26 28 30 29 30 30 30 26 25 29 29 33 38 29 27 25 25 26 25 26 28 30 33 30
43 42 44 44 45 44 44 43 45 45 44 43 37 32 32 30 32 29 27 23 22 20 23 26 28 25 27 26 26 28 26 25 28 33 34 35 31 32 29 31 28 30 29 30 29 31 28
43 43 42 43 43 44 44 44 45 46 43 37 34 34 34 31 30 29 28 23 20 21 23 23 22 23 24 16 18 22 25 27 29 31 32 34 31 34 31 33 29 28 30 31 28 26 25
42 44 43 44 43 43 43 43 45 45 41 37 34 34 31 30 29 25 26 23 20 24 24 20 23 24 22 21 22 22 23 25 29 29 29 31 30 29 29 32 29 24 27 30 27 27 26
41 43 42 44 44 44 44 45 45 44 42 41 37 33 29 26 23 21 22 21 22 23 24 26 26 21 27 30 32 33 31 29 30 30 30 28 28 29 29 31 22 29 33 30 27 27 26
42 42 43 43 43 43 43 43 43 43 42 40 38 34 28 29 23 22 22 22 26 27 26 25 25 28 32 28 30 26 28 29 30 30 31 30 30 29 27 24 27 28 27 29 29 25 26
43 43 43 43 42 43 43 43 43 43 42 40 39 40 31 27 24 22 24 24 23 24 26 28 31 34 31 22 27 19 19 19 24 26 30 29 32 31 26 22 21 25 27 30 29 24 25
44 43 43 42 41 42 43 43 44 43 41 40 39 42 35 35 31 27 22 23 25 22 21 26 28 30 31 26 27 22 22 26 22 18 23 24 26 28 26 24 23 24 28 31 25 26 26
44 43 43 40 41 42 43 44 44 43 42 40 39 41 37 35 34 33 31 29 28 23 21 28 28 29 30 25 24 25 27 27 26 24 23 21 24 26 26 25 22 27 31 27 30 29 26
43 43 42 42 42 42 43 44 44 44 43 41 37 39 39 34 34 37 37 36 31 29 29 30 29 30 29 27 28 28 29 31 24 26 27 25 25 24 25 25 29 29 31 31 30 29 26

GFSGBSN_sfc_dewp_129.txt.gz
Dewpoint
54 55 57 58 60 60 60 59 58 57 56 56 55 54 53 50 48 47 48 48 47 47 48 49 49 50 43 22 8 27 46 44 30 23 17 14 12 10 6 6 7 7 6 8 10 7 6
53 54 55 56 56 60 60 59 58 57 56 56 55 54 53 51 48 47 47 47 47 48 48 49 50 50 37 15 21 28 29 25 21 19 18 17 14 15 11 9 7 8 9 8 6 6 6
52 52 52 54 54 55 59 59 58 58 56 56 55 54 53 51 48 48 47 46 47 47 49 50 50 42 31 18 26 29 26 19 19 19 16 19 19 17 17 11 14 13 9 8 5 5 4
52 52 52 52 53 53 54 55 58 58 57 56 55 54 52 51 50 48 46 46 47 49 50 51 50 40 20 28 30 27 22 19 19 19 19 20 21 20 19 18 15 11 12 9 9 7 7
50 53 53 52 52 52 52 53 54 56 57 56 55 54 52 51 50 48 45 46 48 50 49 49 44 36 18 34 24 19 19 16 16 20 22 18 21 20 19 16 9 9 5 5 2 3 6
49 50 52 53 52 52 52 52 53 54 55 56 55 53 52 51 49 47 45 46 50 49 46 39 33 30 24 18 19 18 19 18 18 21 20 20 17 16 13 9 4 4 3 2 1 2 5
48 49 50 52 53 53 53 52 51 52 53 56 55 53 52 51 49 47 44 44 37 34 35 24 20 16 18 19 20 16 17 19 20 19 16 18 13 8 11 14 11 9 7 4 4 5 9
48 49 49 49 51 52 52 52 51 51 52 53 56 54 52 49 47 47 44 35 25 29 21 25 17 20 21 18 15 15 18 17 21 16 18 18 15 14 15 15 14 12 11 10 9 8 11
49 49 48 49 49 50 50 51 52 52 51 52 54 53 51 49 48 45 38 32 33 34 22 21 13 12 19 18 11 15 17 18 18 18 17 17 14 18 18 15 14 13 13 13 11 11 11
49 49 50 50 49 49 49 49 50 50 50 50 52 53 49 48 41 36 32 35 37 41 30 26 16 15 21 17 15 14 17 22 24 21 18 18 19 18 17 14 15 15 17 16 14 13 7
48 48 49 50 51 50 49 49 48 49 50 50 53 51 47 42 38 33 34 37 43 37 24 28 18 19 18 13 18 17 24 26 23 23 23 22 19 19 18 17 18 17 21 19 18 15 15
46 48 48 49 50 50 49 48 48 49 49 50 53 50 46 41 40 37 39 42 42 30 22 18 17 18 18 16 18 21 25 28 28 25 24 22 22 21 18 19 21 22 22 22 21 18 14
46 47 48 49 49 48 48 48 48 48 49 50 52 49 43 39 37 39 41 40 27 25 22 13 13 15 15 16 18 22 24 26 23 22 22 21 22 20 22 21 24 24 24 22 17 18 13
47 47 48 49 49 48 48 49 49 51 49 50 51 46 42 42 41 45 39 36 25 26 20 11 12 14 14 19 20 22 23 21 26 24 22 18 21 20 22 21 21 22 23 20 10 8 10
45 46 48 48 47 48 48 49 52 53 49 50 49 43 40 45 45 44 40 29 29 26 25 14 15 15 19 20 23 24 22 20 25 28 26 24 19 20 20 22 24 26 23 24 20 20 19
46 46 47 47 48 50 52 52 53 52 50 49 42 41 41 45 46 44 36 33 32 21 16 17 19 17 20 20 27 24 22 23 27 29 31 28 27 24 23 27 26 25 27 26 23 19 18
45 46 46 46 49 50 52 53 52 50 49 45 40 36 43 47 46 40 31 33 28 20 20 20 20 20 23 23 27 22 22 26 29 29 29 30 29 26 26 25 25 29 28 28 24 24 23
44 46 45 47 49 52 53 52 50 47 46 44 41 31 44 44 34 35 34 31 26 22 27 28 24 24 30 28 27 28 25 29 28 28 28 30 35 31 25 25 28 27 27 30 26 23 27
44 45 46 46 48 49 48 47 46 46 45 42 35 35 43 43 32 32 32 28 22 23 25 26 27 32 33 36 33 36 28 30 30 29 29 33 33 26 25 30 24 23 25 28 30 37 32
43 45 45 45 46 47 47 47 47 46 44 44 37 30 35 36 38 31 29 25 22 23 22 24 27 32 31 34 31 34 30 29 29 30 35 35 28 29 27 28 25 24 24 26 28 31 33
43 42 45 44 44 45 45 45 45 45 45 44 39 33 33 32 35 31 26 25 21 21 23 26 29 27 28 30 27 30 27 27 28 33 33 35 31 32 27 28 26 29 28 30 30 32 30
43 41 43 45 44 44 45 45 45 45 45 42 34 34 30 30 32 29 30 27 22 21 24 24 23 24 22 21 24 24 29 28 29 32 33 35 32 34 32 31 27 29 31 33 28 27 26
43 42 42 44 45 45 44 44 46 45 45 41 42 38 34 35 33 31 32 27 23 25 24 23 22 22 20 18 21 25 27 30 30 29 31 32 32 29 28 32 28 26 29 30 27 26 26
43 43 43 42 42 44 44 45 44 44 43 41 39 40 35 32 31 30 26 25 22 24 23 21 24 23 27 27 30 30 27 27 29 29 30 28 28 28 30 29 23 29 29 27 27 27 27
43 42 44 43 42 43 44 44 44 44 43 39 39 36 31 32 29 25 23 23 23 25 25 25 25 28 29 27 29 28 29 29 28 29 29 29 28 27 26 26 27 28 28 27 28 26 27
42 42 43 44 44 44 43 43 44 44 43 41 39 41 36 30 27 26 24 23 24 25 26 29 31 33 31 21 26 18 18 17 22 26 28 28 30 31 27 22 22 27 27 27 27 25 26
43 43 43 42 43 43 44 44 43 42 42 42 40 46 38 33 26 26 24 25 24 25 23 28 29 28 30 22 25 18 18 19 21 21 26 27 26 26 27 24 25 26 29 30 25 28 27
43 44 43 42 42 42 42 44 43 43 42 41 40 45 38 35 33 31 29 28 25 24 25 28 28 27 26 23 19 21 24 24 25 21 22 21 23 26 26 23 24 28 30 28 31 29 26
44 44 42 42 42 42 43 43 43 43 42 41 36 40 39 33 36 38 37 36 33 30 27 31 26 24 24 22 24 24 28 30 23 26 25 24 25 28 26 27 29 30 33 31 30 28 27